GFSSGP_700_spd_000.txt.gz
Wind_Speed
5 10 17 11 8 14 15 11 7 5 14 15 12 9 6 5 2 2 9 11 12 14 14 14 12 11 5 2 2 1 4 5 6 6 5 6 8 9 9 11 12 14 14 15 17 19 20 19 19
15 21 13 10 20 21 15 14 13 11 11 9 9 7 7 8 7 5 8 9 12 13 11 12 10 9 5 4 4 6 7 8 9 9 9 8 9 10 11 13 15 17 19 19 19 21 19 21 22
21 16 14 16 16 16 12 12 12 12 11 10 9 8 9 8 7 3 6 7 11 11 9 7 7 8 8 6 7 7 9 10 10 10 9 7 8 10 12 14 17 19 19 20 21 19 19 19 20
16 15 16 18 20 16 13 11 12 12 15 13 8 3 11 9 7 7 8 8 8 7 7 9 10 10 11 12 12 12 13 14 15 14 13 12 11 11 12 16 19 19 19 20 20 20 20 20 19
18 19 22 23 22 19 16 12 8 6 8 10 8 9 8 6 9 6 6 6 6 5 5 7 9 11 12 14 14 15 16 17 16 16 15 15 15 14 13 14 15 16 15 15 16 15 16 17 16
16 16 20 22 19 16 13 7 1 2 4 4 4 4 8 8 7 4 3 3 2 4 7 8 8 8 9 13 15 15 15 14 11 9 7 6 7 6 6 7 9 10 9 9 8 9 12 12 14
14 18 17 17 14 10 7 5 3 3 3 3 6 4 5 6 4 3 5 2 2 4 7 6 5 9 10 11 12 14 12 10 9 7 3 6 7 5 3 3 4 7 10 8 6 7 5 5 8
14 15 17 13 9 8 4 1 3 5 5 4 4 3 6 6 6 2 4 5 4 6 5 2 4 7 10 11 14 12 8 7 9 7 6 9 10 11 9 8 8 8 8 7 6 7 9 10 11
11 18 14 8 5 5 3 2 5 8 3 1 1 1 3 4 5 4 1 0 2 3 1 1 4 8 12 14 13 8 7 7 7 6 7 8 10 11 11 11 12 13 13 12 12 12 12 12 14
10 12 8 4 1 2 3 4 8 9 5 1 2 6 9 9 9 8 6 6 4 2 0 4 13 18 18 17 15 11 9 9 11 10 10 10 11 11 12 13 14 14 15 15 16 15 16 16 15
10 7 5 3 3 6 7 8 11 11 5 3 5 13 14 13 11 9 6 7 5 4 6 10 15 15 16 16 15 15 14 15 14 15 15 15 15 16 17 18 19 19 19 20 20 19 19 18 19
15 14 10 6 4 4 2 1 3 4 4 9 7 9 11 12 12 9 7 7 8 8 10 12 12 16 19 19 19 19 18 19 20 20 20 19 19 20 21 22 23 24 25 25 24 24 24 23 23
12 8 5 4 3 3 2 2 3 4 4 3 4 5 6 8 10 12 11 10 7 8 9 10 12 16 19 21 23 23 21 21 22 23 23 23 23 24 26 27 27 27 27 27 27 26 26 26 26
6 4 2 1 3 1 2 3 1 5 7 3 1 2 3 4 7 9 7 7 6 6 6 9 13 18 21 23 23 22 21 22 23 24 25 26 27 27 29 29 29 28 28 28 27 27 26 27 28
4 2 3 1 0 4 5 4 2 7 7 3 2 1 2 4 5 5 6 6 5 4 6 9 14 18 22 23 24 23 22 24 25 25 26 26 28 28 28 29 29 28 28 28 26 26 27 27 28
2 0 2 3 3 4 7 8 5 12 15 10 6 4 4 6 7 6 6 6 6 5 7 10 15 16 18 20 18 20 22 23 27 26 25 26 29 30 29 29 29 29 28 27 26 27 28 29 29
2 2 5 2 2 5 8 19 17 13 14 6 7 7 8 8 9 9 7 7 8 9 10 14 16 15 18 22 20 25 27 28 35 29 28 26 25 27 29 29 29 30 31 31 32 31 30 30 30
5 8 9 8 13 13 16 18 15 12 9 4 6 7 8 9 11 12 12 12 10 11 13 17 18 17 21 25 24 29 28 32 33 32 34 33 28 27 28 29 29 29 28 28 29 30 30 30 30
7 10 12 11 10 17 15 11 8 4 9 6 4 3 4 8 12 15 13 10 4 6 14 19 19 22 26 30 27 28 29 31 30 28 32 31 28 27 28 29 31 33 34 31 30 29 30 30 30
8 10 11 7 11 14 6 3 8 9 7 2 1 2 5 5 9 9 9 8 10 10 9 15 16 21 27 29 31 29 30 30 30 30 33 33 32 33 34 35 36 37 39 38 37 39 39 39 37
7 6 11 13 12 6 8 3 4 4 3 4 4 2 4 5 6 6 10 13 15 15 11 14 18 24 26 28 28 30 34 37 36 37 39 43 37 35 39 42 43 43 43 43 41 43 45 43 43
10 12 14 12 9 1 9 3 11 5 2 5 6 4 5 7 9 11 14 18 18 18 20 22 24 26 29 32 32 34 37 40 41 44 46 42 37 38 41 46 47 45 45 46 43 44 49 45 48
9 12 14 10 4 2 5 1 5 8 8 5 7 6 8 10 13 18 19 19 20 20 22 25 25 27 32 32 34 36 40 45 51 46 43 44 44 45 46 48 49 50 49 49 46 48 47 49 49
12 12 4 3 2 2 3 10 6 4 8 8 4 3 5 12 18 17 18 22 24 22 25 27 27 31 33 34 36 39 46 47 46 47 47 47 48 49 49 50 52 54 55 53 49 52 52 54 54
10 6 2 3 3 4 5 6 3 2 1 2 1 6 11 13 18 20 23 27 21 26 27 28 30 33 35 35 41 45 43 44 45 48 48 47 47 49 50 50 51 52 51 49 45 47 54 58 56
10 10 5 2 1 6 5 5 5 4 2 1 8 13 18 21 20 21 26 23 25 26 29 31 34 36 38 43 40 42 45 48 47 45 49 51 51 51 49 49 46 42 36 31 33 41 57 60 66
4 5 6 1 2 3 4 3 8 19 9 11 22 27 20 15 16 20 18 24 27 29 31 32 38 43 44 44 47 48 48 44 47 51 53 54 51 49 44 36 32 27 27 29 33 41 43 57 45
2 2 3 4 2 4 7 12 9 18 20 28 32 24 15 12 14 20 24 26 29 33 39 47 49 53 53 50 47 43 46 52 55 57 58 55 51 46 35 30 30 28 28 28 31 37 42 41 41
2 1 1 3 2 3 3 5 9 18 23 27 25 25 27 28 29 29 31 33 38 46 50 54 52 49 44 42 43 47 52 56 57 56 56 53 47 39 30 30 32 35 30 31 33 35 36 36 36
4 4 8 2 2 8 14 18 15 11 23 30 27 35 34 30 29 33 36 42 46 49 52 50 47 43 41 42 47 51 56 56 58 55 51 46 38 31 32 35 36 35 31 31 33 34 33 35 38

GFSSGP_700_spd_003.txt.gz
Wind_Speed
5 12 18 16 9 15 16 15 17 17 16 13 13 8 5 3 3 2 9 11 12 14 15 14 13 13 8 4 3 2 2 4 4 4 6 9 10 9 10 13 13 13 14 15 18 19 20 20 22
20 20 15 13 20 17 13 16 15 15 17 16 11 9 8 7 6 8 10 11 14 14 13 12 11 11 11 8 3 2 4 5 5 5 9 9 11 11 13 17 16 16 16 18 19 20 19 21 21
20 18 16 19 21 18 16 16 14 14 14 12 11 12 11 8 8 8 10 13 15 13 11 11 11 10 8 6 6 6 6 7 7 8 8 10 11 12 14 17 18 17 18 19 20 20 19 20 20
16 15 17 20 20 18 18 15 13 15 14 10 8 4 10 8 8 10 12 13 10 9 8 8 6 4 5 6 8 7 7 8 8 9 10 10 10 11 14 17 16 16 17 19 20 20 18 19 19
17 20 24 24 22 20 17 16 13 9 9 7 6 6 6 6 9 11 10 9 9 7 4 4 4 5 6 7 6 7 9 10 10 11 10 8 8 10 11 12 12 12 12 14 14 15 17 18 18
23 19 26 26 25 19 16 13 10 6 3 3 5 4 9 9 10 9 8 7 6 7 4 2 3 3 5 7 8 10 11 9 9 8 6 4 6 6 5 4 5 6 7 7 7 7 8 10 13
18 22 23 23 21 17 15 12 7 3 1 3 7 6 8 6 7 6 5 4 5 4 1 3 2 3 6 7 8 8 4 5 6 3 0 2 3 4 4 2 4 5 6 6 6 7 7 7 7
20 15 20 17 14 13 10 7 7 5 5 7 4 5 6 6 5 6 7 6 4 1 0 3 0 3 6 7 8 6 4 4 5 3 2 4 5 6 6 6 8 10 10 10 9 10 10 12 14
18 20 17 13 8 7 6 3 4 7 3 3 3 4 3 2 1 4 9 8 5 5 5 3 2 9 10 10 8 7 6 7 6 7 8 9 10 10 11 11 12 12 14 14 14 14 15 16 16
15 17 12 8 3 4 3 1 5 7 5 6 8 8 7 6 7 7 10 10 9 9 6 3 4 10 12 13 13 11 8 8 8 9 11 12 13 14 15 16 17 18 18 18 17 17 18 19 20
15 11 7 5 2 1 2 1 5 5 5 9 11 11 11 9 7 7 10 10 9 8 6 4 8 13 15 16 15 14 13 12 12 13 15 16 17 17 18 19 21 23 23 24 24 23 23 23 23
14 14 9 8 5 5 5 4 6 7 11 11 9 8 9 8 8 5 7 11 11 9 6 6 9 13 15 17 18 17 16 15 15 17 17 18 19 20 22 24 25 27 28 29 29 28 27 27 27
13 11 9 7 5 4 4 5 6 5 4 5 4 3 3 5 5 5 8 9 9 7 6 5 8 11 14 15 17 19 18 17 20 20 20 21 22 23 24 26 27 28 30 31 31 31 30 29 28
10 8 4 3 3 4 5 5 4 1 2 4 4 1 0 1 2 3 7 9 8 7 4 2 4 8 12 12 15 19 21 20 20 25 23 21 21 22 24 25 27 27 29 29 29 29 29 29 29
7 5 3 3 4 7 6 9 4 4 6 3 8 6 4 3 4 1 5 6 5 2 2 3 6 10 12 14 20 22 25 23 21 25 23 23 25 26 26 25 25 26 27 28 28 28 27 27 28
3 2 2 0 2 4 6 9 3 11 14 13 9 8 7 7 6 4 3 4 4 6 7 7 11 14 13 15 22 25 24 23 21 22 21 21 25 25 25 25 25 26 26 27 28 28 28 29 31
1 1 1 3 4 5 8 7 14 17 10 6 9 7 7 9 8 9 6 5 6 8 9 9 14 15 17 20 23 27 27 24 23 22 23 24 27 27 25 24 24 25 26 27 29 30 31 31 31
1 2 4 5 7 7 8 8 10 6 3 7 6 6 8 11 12 12 11 10 10 11 12 15 18 19 22 25 26 27 26 24 25 25 25 30 31 31 30 29 29 30 32 32 32 33 33 33 33
3 4 5 6 3 8 5 4 5 1 4 8 7 7 5 10 11 12 13 14 12 10 9 15 17 18 20 23 28 27 27 24 25 26 28 32 35 36 36 33 32 32 36 36 38 39 39 39 36
5 5 4 2 6 6 2 3 5 8 8 6 4 5 7 7 7 6 6 5 8 6 6 12 16 18 21 24 26 29 30 29 30 31 33 37 39 39 39 39 39 40 42 42 42 42 45 44 41
5 3 7 8 6 1 1 5 3 5 6 5 2 2 5 5 4 4 7 7 9 11 8 11 15 17 21 25 28 29 30 32 34 35 39 39 37 37 39 39 42 44 47 49 48 47 46 48 47
5 7 10 9 4 3 3 4 7 4 4 3 2 4 6 5 6 7 9 13 11 12 12 13 15 20 24 28 30 33 34 36 38 43 47 40 41 43 43 43 43 44 46 49 50 51 51 49 51
6 13 11 6 4 5 3 2 1 3 2 3 6 6 6 7 7 12 13 13 14 15 15 17 20 24 28 31 34 37 38 39 44 46 42 46 46 44 42 45 48 51 50 50 53 56 56 54 52
10 10 2 4 4 3 1 4 1 2 4 3 5 7 6 7 13 16 18 18 18 17 19 22 28 29 32 36 38 39 44 50 49 46 46 43 44 46 49 51 51 51 52 52 50 53 55 55 54
9 4 1 1 1 2 4 6 3 3 2 5 7 8 8 13 17 19 20 20 19 21 25 29 32 35 38 42 44 47 48 47 44 40 43 49 51 53 52 51 52 52 53 53 48 45 44 42 42
11 10 4 1 2 5 10 1 4 7 8 8 8 11 16 23 22 20 21 23 26 31 30 35 38 41 41 48 51 46 41 41 39 44 47 51 50 50 51 53 53 50 45 39 35 32 33 32 33
5 6 6 3 4 3 4 1 6 13 12 8 16 22 21 14 14 17 22 27 28 34 39 39 38 40 42 43 42 38 39 40 43 46 49 52 51 49 49 49 46 39 35 31 33 28 31 30 36
3 3 4 5 2 3 6 9 6 10 16 17 24 22 15 15 17 20 24 29 31 35 39 45 46 47 45 44 40 40 41 42 46 48 53 55 54 50 43 38 34 32 33 32 35 37 32 31 36
2 1 2 2 1 1 3 7 12 17 22 15 24 23 25 26 25 26 29 32 39 45 48 47 45 46 44 43 43 44 45 46 52 55 56 56 51 40 32 29 28 32 33 41 29 30 34 32 36
2 4 4 3 2 5 8 16 1 5 15 23 31 28 25 26 28 30 34 39 42 41 39 44 43 44 46 47 47 44 49 54 55 57 57 52 43 34 29 29 29 34 35 39 35 34 33 32 32

GFSSGP_700_spd_006.txt.gz
Wind_Speed
7 11 19 19 6 10 14 10 13 13 9 13 11 6 5 4 4 2 10 11 11 11 12 13 11 9 4 3 4 2 1 2 3 4 7 10 10 13 15 16 16 16 17 19 20 20 21 22 23
15 22 20 13 10 17 14 12 12 10 16 14 12 9 6 2 4 8 13 12 15 16 16 15 12 11 11 9 6 3 3 6 6 9 12 14 13 14 17 18 19 19 18 18 19 20 21 21 19
21 19 13 11 11 15 16 12 15 15 14 13 12 10 6 6 7 12 15 16 17 15 14 12 11 10 8 4 2 2 5 7 9 11 13 14 14 15 17 18 18 17 17 18 20 21 21 20 19
19 18 18 13 17 15 14 15 13 14 12 13 8 3 7 6 10 15 18 16 14 12 10 9 7 5 2 1 2 5 7 9 11 12 12 12 12 13 15 16 16 16 16 18 19 19 18 18 19
17 15 17 19 18 16 15 14 12 8 9 8 2 2 3 9 15 17 16 14 13 11 8 6 3 1 3 4 5 7 10 10 11 12 11 10 10 11 11 12 10 11 12 12 13 13 14 15 15
12 15 19 20 17 14 13 13 10 8 6 4 5 5 9 13 14 14 13 11 10 9 6 1 3 5 5 7 8 8 7 6 6 7 7 6 7 8 9 8 7 7 8 9 11 11 11 11 12
13 14 16 19 16 13 11 12 8 7 7 4 6 8 12 11 14 14 12 10 8 6 3 3 4 5 5 5 6 5 3 3 5 5 3 5 7 8 9 9 8 9 9 10 10 11 13 13 11
19 13 19 16 13 12 10 8 8 6 6 6 6 3 7 9 10 10 10 9 8 5 5 5 3 2 5 7 6 4 3 5 5 5 6 9 11 12 12 13 13 14 14 15 15 16 17 17 17
17 13 13 12 10 10 10 7 3 5 7 3 5 8 7 6 7 10 11 10 7 5 6 4 2 5 8 8 8 6 5 6 6 7 9 11 14 16 17 18 19 19 19 18 18 19 21 22 22
11 9 10 12 9 9 7 7 2 5 6 6 6 5 3 3 7 11 12 12 10 9 8 5 3 7 8 9 9 8 7 7 9 10 12 14 17 19 20 22 23 24 25 25 25 24 24 25 25
14 10 11 9 7 9 8 6 5 8 8 8 8 7 6 4 4 9 13 11 11 12 9 6 5 7 8 9 10 11 10 9 9 10 12 13 15 17 19 21 24 26 27 29 29 29 29 29 29
15 12 8 6 7 7 7 7 5 9 7 12 12 8 6 5 4 6 12 12 12 11 8 6 5 4 7 9 12 15 13 11 10 10 12 14 16 17 19 21 24 25 27 28 28 29 30 31 31
13 12 11 8 7 6 7 10 8 9 11 10 9 5 3 1 2 3 9 13 13 11 9 6 3 2 6 6 9 15 14 14 12 13 15 13 14 17 20 24 26 26 27 27 26 26 26 27 29
14 12 8 6 5 5 7 7 7 5 5 6 7 6 5 4 1 2 6 11 13 11 8 4 4 3 7 8 10 14 16 17 16 16 18 16 15 18 21 23 25 27 28 28 28 26 26 26 26
10 6 4 4 8 9 6 6 6 7 5 4 10 9 8 9 7 4 7 11 11 10 8 7 8 6 9 12 13 15 20 22 23 21 20 18 17 21 21 21 23 25 26 27 28 28 29 30 31
7 6 5 3 4 4 6 5 7 12 11 13 10 13 13 13 10 9 10 10 9 9 10 12 12 12 13 15 17 21 22 23 24 22 22 21 22 25 24 25 25 26 27 27 27 27 29 30 30
5 3 2 3 5 5 3 6 11 18 18 15 18 15 15 16 15 14 11 9 9 11 13 14 16 15 15 19 22 23 24 26 26 23 22 20 24 27 29 27 25 29 30 31 31 31 33 34 36
3 3 3 2 6 6 3 5 10 10 6 10 13 14 15 18 19 17 13 11 12 12 15 16 17 17 20 22 23 21 25 25 24 24 25 27 28 31 32 31 30 31 31 31 33 36 36 40 39
3 2 2 2 4 1 1 1 2 2 9 11 10 10 12 19 16 15 14 14 16 15 14 14 19 19 22 23 21 23 26 27 25 26 27 30 32 36 36 35 35 35 38 37 37 39 42 41 42
3 1 1 2 3 1 1 2 4 5 8 8 7 8 9 12 13 14 13 13 12 13 13 14 18 21 22 23 25 27 29 31 29 31 32 34 38 41 42 38 39 39 38 38 37 39 42 45 45
4 1 3 3 5 3 5 3 3 6 7 6 4 4 8 11 11 10 9 10 11 13 14 16 20 22 23 25 28 31 35 35 36 36 37 36 42 40 40 39 37 37 38 42 44 45 47 51 51
2 5 9 7 3 6 7 5 2 5 5 6 6 7 8 8 7 7 7 11 15 14 17 17 22 25 27 28 32 35 39 40 42 43 43 47 42 39 34 37 39 41 44 46 47 48 50 51 55
3 10 9 5 6 4 2 7 4 5 3 3 9 8 7 7 7 8 12 15 18 18 19 22 27 29 31 33 36 40 41 41 47 50 51 47 42 35 37 39 42 45 47 48 50 50 51 53 56
8 8 2 3 4 5 2 4 6 4 2 3 9 10 11 10 10 14 18 19 20 22 24 27 28 30 35 37 41 42 45 42 48 46 45 41 37 41 44 47 52 51 51 53 52 53 53 54 54
8 2 3 2 4 1 2 5 2 5 7 8 10 12 12 12 15 20 20 21 21 23 24 28 32 36 39 42 44 48 51 44 44 44 45 44 45 45 49 53 52 52 53 53 53 51 47 45 43
8 7 3 2 2 4 6 3 4 7 8 10 12 12 15 18 23 18 18 20 23 24 27 30 35 43 48 48 46 44 45 44 44 45 46 45 47 50 55 55 54 52 50 47 43 37 39 41 41
3 4 4 2 3 3 2 3 7 9 4 9 12 17 21 19 19 20 22 26 29 34 37 36 39 43 44 44 46 44 45 45 45 46 47 47 52 54 55 54 48 45 41 37 32 32 31 37 43
2 2 2 3 3 4 4 11 10 7 8 12 15 16 21 21 21 23 25 30 31 31 35 37 39 41 45 45 45 45 46 47 49 48 48 51 54 54 49 43 38 35 32 32 29 33 35 29 31
2 1 1 1 1 3 4 7 3 5 7 10 13 18 21 25 23 22 26 26 31 33 34 39 42 43 44 45 43 44 43 43 45 48 52 53 49 42 37 33 31 31 31 35 37 36 37 35 33
5 4 2 2 2 5 5 11 3 4 7 17 22 17 26 26 22 24 30 33 38 41 44 42 38 41 44 38 36 35 39 45 49 53 51 44 39 36 33 32 31 30 35 39 39 38 35 36 34

GFSSGP_700_spd_009.txt.gz
Wind_Speed
7 12 19 20 5 9 10 7 9 8 8 6 8 4 5 4 5 2 11 7 7 8 10 13 16 12 10 9 7 5 4 5 6 8 10 11 13 14 16 18 17 18 19 20 20 20 20 21 20
11 19 20 7 8 13 12 10 12 9 11 11 11 8 5 5 6 3 8 9 9 11 12 14 14 11 7 5 6 5 4 6 9 11 14 14 15 16 18 19 19 20 21 20 20 22 23 22 21
17 21 9 6 13 11 11 11 10 12 10 7 5 7 5 4 6 9 11 13 14 13 13 12 10 9 8 6 6 5 6 9 12 14 15 15 14 15 16 18 19 20 20 20 21 23 24 23 22
21 15 5 11 11 9 13 12 13 10 7 6 5 3 4 7 8 13 17 16 15 13 12 10 9 7 6 4 5 8 9 11 13 13 13 13 13 13 14 14 15 16 17 19 20 20 20 18 16
19 10 9 10 12 10 12 12 9 7 5 4 3 2 4 7 11 18 18 16 13 11 9 8 5 4 4 6 8 9 10 11 10 10 11 11 11 11 12 13 12 11 12 14 15 15 15 14 12
6 9 11 14 13 12 11 9 8 7 7 3 4 6 6 10 16 17 14 12 11 9 7 5 5 5 7 8 9 8 8 4 5 8 8 8 9 11 13 13 13 12 12 13 14 15 15 14 14
8 9 14 15 13 11 9 7 6 5 6 4 7 7 6 12 13 13 11 10 9 8 7 6 6 6 6 6 5 6 3 5 8 8 8 9 11 14 15 15 15 15 16 18 18 18 18 17 17
4 6 12 12 12 10 8 7 6 6 6 7 7 3 10 14 12 13 11 10 9 8 7 7 6 5 5 4 5 5 6 8 8 8 9 11 13 15 18 18 19 20 21 21 21 22 22 22 22
10 12 11 8 7 7 7 6 6 8 6 6 6 7 12 12 12 13 12 11 11 9 7 4 2 1 2 4 4 4 5 7 8 10 11 14 16 18 21 20 23 25 25 26 26 25 25 25 26
6 6 11 6 4 7 7 6 5 6 7 4 7 8 10 10 11 13 14 13 12 10 7 6 3 1 2 4 6 6 6 7 7 9 11 14 15 18 20 22 23 25 26 28 29 29 29 30 29
6 5 8 5 6 6 7 6 5 6 5 7 7 7 13 5 7 12 12 11 10 9 8 7 5 4 4 5 8 8 8 7 7 8 9 12 14 17 19 21 24 26 27 27 29 31 31 30 30
7 8 6 7 8 7 6 5 3 7 6 8 8 9 11 7 9 12 12 12 10 10 8 9 8 5 4 5 6 7 8 10 9 12 14 17 17 18 19 21 25 27 28 29 29 28 29 28 29
6 7 7 7 7 6 8 6 5 7 6 10 10 9 10 10 9 10 12 11 10 11 10 8 9 5 2 0 2 6 10 13 16 16 18 19 20 20 20 22 23 25 26 27 28 28 28 29 28
9 7 7 6 5 5 7 6 6 7 10 9 10 10 9 10 9 9 12 12 11 10 10 12 8 6 6 6 9 13 16 17 19 22 22 21 22 20 22 22 21 21 23 26 27 27 27 27 28
9 7 4 5 5 4 6 10 9 8 7 9 11 11 11 12 10 9 11 13 15 12 9 15 11 11 11 12 15 17 19 20 21 24 25 23 22 20 21 20 20 21 22 26 28 29 29 29 29
7 8 10 6 6 8 8 16 13 7 8 8 9 12 13 13 12 11 11 11 11 10 12 13 13 16 15 18 19 22 23 23 24 26 26 24 23 24 23 22 22 24 27 30 29 30 33 34 35
9 13 6 4 7 6 8 3 7 8 13 12 14 14 12 14 15 14 12 12 12 11 11 13 19 18 22 21 22 25 25 23 19 24 25 26 26 26 27 27 27 29 32 33 30 29 32 36 37
8 7 8 5 5 6 9 9 9 10 15 13 12 15 15 15 16 16 16 12 12 13 14 12 21 19 23 24 24 25 28 26 28 32 32 30 30 31 33 35 37 35 35 37 35 35 34 35 37
1 4 5 4 5 2 6 5 4 2 1 4 6 10 12 11 16 23 20 20 18 18 17 13 24 25 22 25 26 28 28 28 32 34 38 36 37 37 39 41 45 43 41 38 35 33 33 35 35
2 3 2 4 3 2 3 5 2 3 6 6 5 6 9 14 16 21 21 20 22 22 24 23 24 21 23 27 31 29 30 31 34 36 40 39 41 41 44 46 50 43 40 36 35 35 38 39 40
3 3 3 5 6 7 6 9 7 5 8 9 10 11 11 9 7 15 16 14 12 11 13 17 20 22 25 31 32 33 32 35 38 42 41 43 43 45 47 46 45 40 39 39 39 41 44 47 45
5 3 7 7 6 10 11 6 10 9 7 7 7 8 8 7 5 8 9 10 13 16 18 21 25 27 30 32 36 34 38 44 46 47 48 51 48 48 45 44 42 41 43 44 46 48 51 51 53
4 8 6 7 9 9 9 12 12 11 7 3 4 5 3 8 9 9 10 14 17 20 22 25 29 33 35 38 37 40 45 45 45 49 55 49 43 44 45 42 43 43 45 49 53 55 54 55 57
5 5 4 3 5 7 2 7 11 8 6 5 4 2 1 4 12 13 16 21 24 24 25 28 31 35 34 35 44 48 52 50 45 48 51 49 48 47 47 48 49 51 52 57 57 57 59 57 56
6 4 5 3 4 2 2 7 4 4 6 6 3 2 3 14 15 18 20 16 24 23 23 25 27 30 37 41 44 47 49 48 50 49 49 49 49 51 52 53 52 54 58 58 57 50 49 45 43
6 5 4 4 2 5 4 6 8 7 4 4 2 4 5 9 16 15 15 19 18 28 29 30 31 34 39 42 41 44 46 45 47 48 47 49 51 52 51 52 55 56 56 48 43 42 42 40 34
4 3 1 0 1 3 6 4 6 7 4 1 3 5 8 8 9 11 12 15 28 30 32 35 33 34 38 42 44 44 45 48 48 49 49 48 47 49 52 54 52 47 42 43 39 36 35 34 36
3 1 4 3 3 4 2 12 5 6 5 6 7 10 13 14 14 16 19 22 24 26 32 37 40 44 45 42 44 47 47 43 43 42 44 48 52 52 50 48 41 37 37 36 35 35 36 39 38
4 2 3 4 3 4 5 7 2 5 5 8 11 15 17 13 16 19 21 27 26 30 27 33 36 43 41 41 47 43 40 40 43 47 50 51 51 49 44 40 34 32 33 33 34 36 38 38 35
2 3 3 3 3 5 5 12 3 2 5 11 13 18 16 17 15 19 21 26 31 33 34 40 43 37 36 36 36 36 40 43 47 49 50 51 47 41 30 32 30 30 33 33 31 30 31 36 34

GFSSGP_700_spd_012.txt.gz
Wind_Speed
7 10 16 16 6 8 16 8 8 7 4 9 8 12 8 4 2 10 16 8 9 8 13 15 15 12 9 6 5 4 3 4 4 6 9 12 14 16 17 17 18 19 20 20 20 20 19 19 21
10 14 17 15 9 21 6 10 9 11 10 13 13 3 6 10 7 4 9 8 7 9 11 12 15 12 8 6 5 5 4 6 7 10 13 14 16 17 16 18 19 20 21 20 20 20 20 21 23
15 19 19 6 13 27 12 11 14 11 12 8 5 9 10 10 8 5 6 10 8 5 11 13 12 9 7 6 5 5 8 10 11 13 15 15 13 13 13 15 16 17 17 18 18 19 20 21 21
21 19 9 11 12 11 15 15 12 8 7 6 4 1 7 6 7 8 10 12 9 11 12 10 8 6 5 6 7 9 11 13 13 13 11 10 10 9 10 12 15 16 16 15 16 17 17 17 16
24 15 11 12 9 11 11 10 7 9 5 6 3 11 9 6 9 12 13 12 11 11 9 8 7 6 6 9 11 11 11 10 7 6 8 9 9 9 11 13 15 16 16 16 15 16 17 16 16
16 8 12 12 12 11 9 7 4 2 10 3 5 9 10 3 9 13 12 12 8 7 7 6 5 7 10 10 9 7 6 3 5 8 9 10 10 10 14 15 17 18 18 20 21 21 21 19 18
7 6 17 16 13 8 6 5 4 3 2 5 8 7 5 11 8 12 10 7 5 5 5 4 7 10 8 5 4 4 3 4 8 9 9 10 12 14 15 18 19 20 21 22 22 22 23 22 21
14 16 20 10 9 11 7 6 6 6 9 8 4 9 10 16 11 11 9 7 6 7 7 9 10 6 3 4 5 6 6 7 8 9 11 13 14 16 17 18 20 21 21 22 24 25 25 25 24
5 18 13 9 10 9 6 6 7 8 3 3 6 3 13 7 10 11 10 9 9 10 8 11 7 4 4 2 3 4 5 7 9 10 11 14 13 17 19 17 19 21 22 24 25 26 27 29 28
7 10 14 9 8 7 6 5 3 7 4 5 7 9 14 11 11 11 12 11 11 12 10 7 4 2 2 4 2 2 5 5 7 10 11 16 17 18 19 22 22 22 23 24 25 27 27 28 27
4 6 9 10 5 4 7 5 4 6 3 6 8 12 11 5 7 8 7 7 8 6 4 9 5 3 2 4 3 5 7 10 11 11 14 16 19 20 22 25 27 28 28 29 28 26 26 25 23
3 7 5 6 9 7 6 4 3 5 5 7 7 7 12 6 5 7 8 8 2 10 9 17 7 7 5 5 3 2 7 9 12 16 18 20 21 22 24 24 25 27 27 25 24 24 25 24 23
3 3 4 6 7 8 8 5 2 6 7 9 8 7 10 7 6 5 7 12 9 11 13 16 12 9 7 6 7 8 11 14 18 21 22 23 24 24 26 26 27 26 23 22 22 23 25 27 28
6 5 6 6 5 5 6 4 5 6 7 7 11 7 6 6 7 7 10 13 11 11 15 22 19 12 10 9 10 12 15 18 21 24 24 25 25 24 22 22 22 21 18 18 22 27 28 27 27
7 7 6 5 5 1 6 6 9 12 9 9 9 8 10 8 9 11 11 14 16 14 16 21 23 11 9 13 14 18 20 21 24 28 27 25 24 24 24 24 24 25 26 28 31 31 32 31 31
8 8 8 8 6 6 8 10 13 13 6 8 8 9 10 12 11 12 10 12 12 16 21 21 10 22 15 18 18 21 24 23 24 28 25 28 28 30 27 26 27 28 29 31 34 34 33 33 32
8 11 9 7 6 5 7 11 12 6 7 10 11 12 12 11 14 15 14 11 10 5 15 12 24 27 25 23 19 23 25 24 27 23 27 34 33 33 33 33 33 34 36 38 36 35 37 39 37
11 8 5 5 6 4 6 8 2 6 10 13 14 12 14 10 13 15 12 13 15 17 19 16 22 23 20 30 21 22 23 27 33 34 33 37 35 38 40 41 43 41 43 44 45 40 40 38 38
7 5 3 9 2 9 8 9 6 4 3 1 5 9 10 8 17 23 23 24 25 23 22 19 21 20 23 27 28 28 29 33 34 32 36 38 41 42 42 44 46 42 49 46 44 44 42 39 38
4 4 4 4 9 4 7 9 5 2 3 5 5 9 13 16 19 22 29 30 25 21 19 21 23 24 25 30 31 29 35 35 35 35 40 45 45 43 49 48 52 54 45 45 44 42 42 42 39
3 3 2 4 4 9 7 10 10 7 7 12 14 11 10 15 22 25 25 20 15 13 14 16 19 21 22 29 34 37 35 37 37 38 43 47 52 56 47 44 45 45 44 42 43 45 45 47 45
3 3 5 7 8 11 16 4 13 13 11 10 12 12 9 8 6 3 11 8 10 13 17 20 25 27 26 29 32 34 37 39 47 49 50 44 42 45 44 42 44 44 46 47 48 48 50 52 52
4 10 7 7 10 11 11 10 20 16 12 10 10 9 8 8 6 10 10 15 17 18 21 25 28 32 33 34 35 39 43 43 45 46 47 46 50 47 46 48 49 49 50 49 50 52 53 54 56
5 7 7 6 8 6 13 3 6 8 11 9 8 7 5 1 7 11 15 19 23 25 27 24 24 28 34 36 37 40 43 42 43 47 50 49 51 52 50 51 50 50 50 51 52 54 55 55 53
7 6 7 3 5 2 2 2 11 11 10 10 6 3 3 5 6 3 4 8 18 25 26 26 26 24 28 34 42 42 43 48 50 48 49 50 49 48 47 48 49 52 54 56 56 53 48 44 41
5 5 4 4 5 4 4 3 13 12 11 11 6 1 4 6 11 11 16 16 17 21 30 29 31 31 33 36 43 49 53 50 45 47 48 47 44 45 48 51 52 53 53 53 50 43 40 38 39
5 5 3 2 3 3 7 11 12 8 7 6 2 2 3 7 10 10 8 15 22 25 29 35 37 35 34 39 44 48 50 46 45 45 43 43 45 45 47 49 52 51 50 45 41 38 39 39 37
7 3 4 4 2 3 10 8 8 6 4 3 3 3 9 9 8 15 16 21 26 33 35 34 40 37 43 44 46 44 43 43 43 42 44 43 45 48 49 50 49 46 37 35 34 35 35 33 31
3 3 3 4 2 2 3 2 2 2 5 5 8 10 11 11 17 19 17 18 27 34 40 36 46 42 43 48 44 39 40 40 41 41 44 46 49 48 48 45 41 37 37 36 38 38 35 33 31
2 2 3 2 3 4 4 12 7 2 3 6 8 10 13 16 22 22 25 32 36 41 41 50 42 42 46 42 41 37 37 39 39 41 45 48 50 48 46 43 41 39 37 35 33 34 34 35 37

GFSSGP_700_spd_015.txt.gz
Wind_Speed
7 12 15 14 7 6 7 9 12 4 18 11 10 4 8 10 8 8 12 11 8 10 15 15 13 13 9 5 4 4 3 3 4 7 10 13 15 17 18 17 17 16 17 18 18 17 17 17 18
9 13 15 12 3 3 7 11 16 14 19 13 11 8 1 6 6 10 16 9 6 12 15 15 14 13 8 6 6 5 4 5 8 11 14 15 16 15 13 11 11 13 14 14 14 14 14 16 17
12 15 15 5 5 11 10 11 18 20 9 5 5 4 3 2 2 6 11 8 10 10 12 13 13 11 7 6 4 5 7 10 12 14 14 12 10 9 8 10 12 15 17 17 15 13 13 13 13
16 18 10 7 3 2 24 15 9 14 13 4 2 4 9 2 3 4 7 4 9 11 11 11 9 6 5 5 7 9 12 12 12 10 7 8 8 8 9 12 14 16 17 17 17 17 18 17 15
21 19 7 2 5 13 15 10 11 13 8 4 4 8 3 3 4 7 5 7 8 9 10 8 6 4 6 9 11 10 9 8 5 5 7 8 9 10 12 15 16 17 17 17 18 18 19 19 18
22 11 5 9 18 16 19 13 7 6 10 2 1 2 0 6 4 9 6 8 8 5 5 4 4 5 9 10 7 5 5 3 4 8 9 10 11 13 15 16 17 17 18 18 19 19 20 20 18
15 4 8 5 9 10 13 14 10 15 16 8 4 2 2 3 8 9 8 7 5 4 4 4 6 8 8 4 2 3 2 5 7 9 10 12 13 13 16 17 19 20 21 21 21 22 22 22 22
6 6 2 3 4 13 9 11 9 11 17 12 3 5 6 6 7 7 6 7 7 6 7 7 7 7 4 2 3 3 4 6 7 9 11 13 14 13 12 15 17 19 22 23 24 25 25 24 24
3 11 13 16 17 15 8 11 6 7 10 12 10 5 6 4 7 8 8 8 10 10 11 7 7 4 4 4 4 5 5 5 8 10 11 12 13 15 17 17 19 21 22 24 25 26 27 25 25
5 9 11 16 13 8 10 5 3 9 3 9 12 9 7 6 6 8 10 11 12 12 12 9 8 7 3 3 5 4 3 6 7 10 11 16 20 21 22 24 25 24 25 26 26 25 24 23 21
7 9 8 18 17 8 9 7 7 8 6 5 2 13 9 6 8 10 11 10 5 9 8 5 6 7 6 7 4 3 5 8 9 12 18 20 20 22 23 24 24 24 25 23 24 24 23 22 22
8 6 3 6 8 10 5 3 12 1 10 6 5 5 4 2 4 4 2 2 6 13 14 11 14 9 7 6 6 8 10 13 15 17 19 21 22 24 24 25 26 26 25 24 23 22 22 23 24
5 3 4 6 7 15 12 7 7 5 7 7 6 4 8 7 6 7 4 6 9 10 13 18 16 15 10 7 7 9 10 13 17 18 21 24 25 26 24 25 25 23 23 22 21 23 25 26 27
7 3 3 7 9 14 12 8 8 8 7 6 6 5 7 7 7 1 3 9 11 12 17 17 16 11 12 11 9 12 13 16 20 21 22 24 26 24 24 25 23 22 23 23 25 27 29 29 27
7 6 4 9 3 4 13 11 8 12 12 7 9 7 7 6 2 6 5 5 11 14 17 22 25 4 7 15 16 14 17 20 23 25 24 24 29 28 29 26 24 26 28 28 29 30 31 32 31
8 12 12 9 7 4 2 10 12 15 10 9 7 5 5 10 10 8 11 11 14 16 18 24 31 26 9 11 20 23 23 21 24 27 31 34 35 32 32 32 32 35 35 34 36 36 38 36 36
11 12 13 14 8 4 3 8 19 15 4 3 7 9 7 8 14 13 13 12 13 18 18 18 25 23 25 19 22 22 23 22 25 28 31 36 37 35 34 35 39 42 43 43 43 41 44 40 38
4 10 21 16 13 10 6 3 13 11 10 10 11 11 11 16 19 20 18 18 17 19 21 23 25 23 22 22 25 27 28 31 30 32 41 42 41 42 41 44 48 50 50 47 44 42 40 40 41
3 8 20 15 11 5 5 2 11 7 6 6 9 8 20 24 23 27 25 21 21 22 21 24 22 24 25 28 27 27 31 32 35 43 39 36 39 38 48 47 49 51 45 43 40 42 43 43 41
3 4 12 8 6 2 7 5 8 9 7 9 11 12 14 23 23 26 26 22 24 25 26 27 23 22 26 26 27 29 31 32 33 31 35 38 43 50 51 45 45 47 46 43 40 41 44 45 44
6 3 2 1 2 2 5 9 12 12 13 14 13 13 14 18 21 23 26 26 22 19 18 17 15 17 22 26 28 31 33 34 36 34 34 43 49 48 47 47 47 45 47 47 46 45 46 48 46
1 3 6 7 4 4 6 5 14 14 17 15 16 15 18 21 25 25 20 16 11 12 15 19 20 22 25 27 29 32 33 33 34 39 44 45 43 49 50 50 50 50 47 47 47 47 47 47 48
2 7 7 7 7 8 4 7 19 18 16 14 13 10 13 16 16 14 14 13 14 16 20 23 26 28 28 29 31 33 36 38 40 42 43 49 49 47 47 47 46 45 45 46 47 48 49 50 50
7 8 6 6 6 3 9 6 18 18 16 15 13 11 11 10 11 13 17 17 17 20 24 24 22 25 27 32 38 41 41 42 44 46 48 48 46 46 46 45 45 47 48 48 47 48 49 49 47
7 9 1 1 1 3 5 9 3 17 16 15 13 12 10 8 10 14 17 18 22 23 28 34 34 33 33 35 41 41 43 47 49 51 50 47 45 45 44 44 44 45 46 48 50 50 47 48 42
10 7 5 1 1 5 8 8 12 16 19 14 10 4 4 8 11 8 8 12 14 15 21 35 38 40 42 41 47 44 47 53 54 56 53 48 46 45 44 44 47 49 50 49 48 45 42 39 38
6 8 7 3 4 3 6 16 7 5 6 6 3 3 5 4 1 7 12 18 22 26 30 34 39 42 44 44 50 45 47 52 59 54 51 48 47 44 44 46 48 47 46 45 41 40 39 40 41
9 6 4 3 1 2 2 7 2 10 12 10 6 5 7 12 14 12 14 19 26 32 36 39 42 42 44 49 46 45 47 54 53 50 48 46 46 46 46 46 47 46 44 41 38 35 37 38 37
4 1 3 1 0 4 1 3 6 5 6 7 8 8 12 14 17 21 25 27 29 29 36 37 38 41 44 46 43 42 44 46 48 39 40 43 43 49 49 47 49 48 45 41 37 35 34 34 34
1 1 1 1 2 3 1 9 9 9 10 6 9 10 13 17 21 25 26 28 32 37 37 41 41 42 42 40 41 44 38 49 39 42 48 43 41 43 44 48 47 44 40 36 34 34 35 34 33

GFSSGP_700_spd_018.txt.gz
Wind_Speed
8 13 12 10 9 4 8 3 17 12 14 10 14 14 12 13 14 6 16 12 12 12 17 15 10 10 9 5 4 6 6 5 5 8 11 16 18 18 15 11 9 9 11 12 12 11 12 12 13
11 12 13 12 6 9 13 11 8 6 4 3 2 2 5 6 7 9 14 15 10 10 15 13 11 12 9 6 7 7 5 6 9 12 16 17 14 10 7 8 9 10 13 14 13 12 12 11 11
11 11 12 5 8 12 12 17 18 16 7 8 4 7 3 5 8 9 9 8 9 13 15 14 12 11 8 8 6 5 7 10 14 16 14 8 8 8 8 9 11 13 14 14 13 12 12 12 12
11 12 9 6 10 12 16 15 20 18 8 2 3 3 6 8 9 3 5 10 11 11 12 12 11 11 9 5 6 9 13 14 12 7 4 7 10 11 11 12 14 15 15 15 15 16 15 14 14
10 14 3 9 15 17 20 19 8 9 11 6 2 8 5 10 10 1 9 11 11 12 12 11 10 7 5 7 11 13 9 6 2 4 8 11 12 12 13 14 15 15 15 17 17 17 17 17 17
14 18 2 6 12 14 13 13 12 12 12 6 3 4 4 6 5 8 11 12 13 11 11 9 6 5 7 10 8 4 3 1 4 8 10 11 12 14 15 15 16 17 18 19 19 19 18 18 18
13 8 4 4 11 12 12 14 10 9 4 9 1 2 5 4 7 9 12 12 12 10 7 5 4 7 8 5 2 2 2 4 7 8 9 10 11 13 15 17 18 19 20 21 22 22 21 19 18
15 1 1 10 24 15 8 16 17 13 10 5 1 5 5 2 8 10 11 11 9 7 5 4 6 7 4 2 2 3 4 5 5 6 9 11 11 11 14 16 18 19 20 21 23 23 22 20 18
3 4 4 16 15 23 14 12 12 9 4 4 3 4 7 5 9 11 11 10 7 5 4 5 6 4 3 3 3 4 5 5 8 9 10 12 16 18 19 18 20 21 21 22 23 23 21 18 17
9 5 4 19 21 16 14 6 3 8 9 7 9 9 3 3 3 7 8 8 5 4 5 5 6 4 5 3 4 4 6 7 8 10 13 16 20 22 22 22 21 21 23 23 21 20 19 17 16
8 5 12 14 19 13 7 8 2 8 7 2 5 4 5 3 7 10 8 5 5 7 7 11 13 8 7 4 2 1 3 5 8 13 17 18 20 23 24 24 23 23 24 20 20 21 21 22 22
8 12 13 16 12 8 7 7 8 6 7 4 2 4 6 1 5 7 6 5 1 7 9 10 13 12 12 7 5 5 6 8 11 15 18 21 22 25 26 26 25 25 25 22 23 24 24 25 26
13 7 8 12 18 11 11 7 10 3 6 4 3 1 3 6 4 4 8 3 2 7 9 7 7 8 8 8 11 13 14 15 15 16 17 19 22 24 29 30 28 29 27 24 26 29 28 25 24
12 8 8 11 16 15 10 9 9 5 4 4 5 5 4 3 6 11 11 6 2 5 9 12 14 11 12 8 10 13 20 20 18 18 21 23 25 26 33 32 30 29 28 27 31 33 33 32 32
10 1 5 10 12 15 14 11 10 10 8 8 4 2 2 1 6 8 7 8 3 7 7 13 12 6 13 17 13 11 21 24 23 24 25 27 28 30 34 34 36 35 35 36 38 39 41 40 39
0 5 3 3 5 7 9 9 11 14 14 10 1 5 2 4 7 5 5 5 9 11 13 13 15 18 18 9 12 19 17 20 25 28 32 32 31 34 35 35 36 36 39 44 44 46 46 46 43
7 10 15 10 10 3 4 6 17 15 14 7 3 7 8 10 12 13 14 13 13 14 15 17 18 17 14 12 18 20 20 23 26 30 33 32 36 37 36 35 38 41 44 44 42 43 46 43 42
8 13 20 15 14 11 5 3 16 17 11 10 12 19 17 17 21 22 19 17 17 16 17 20 20 20 18 19 19 19 21 24 28 30 31 32 35 34 34 37 42 49 45 45 45 42 41 42 44
3 4 14 19 16 11 4 12 15 16 16 15 16 18 19 22 23 25 23 21 17 20 21 21 23 25 18 19 18 18 21 26 29 33 34 33 33 37 41 48 47 47 47 49 50 49 47 48 46
5 14 17 13 13 8 5 16 14 15 16 13 15 13 13 21 23 28 24 21 19 21 22 24 18 14 15 16 18 21 25 29 30 33 35 39 40 40 44 44 45 49 51 50 48 47 47 46 46
10 16 15 10 6 8 11 16 15 15 18 16 14 13 16 18 20 25 21 21 23 18 14 12 11 12 14 17 20 22 24 26 30 35 36 37 39 43 47 50 53 51 48 47 46 45 44 45 45
5 5 2 3 3 7 9 10 22 20 18 16 16 15 15 15 15 16 15 14 11 10 11 13 16 19 22 24 25 25 27 30 32 33 35 37 42 47 50 50 49 48 47 45 45 45 45 46 46
2 2 1 2 3 6 4 8 16 19 16 16 16 17 16 15 16 15 12 14 16 19 21 22 23 22 22 22 23 28 33 36 36 37 42 46 48 50 52 52 50 48 48 49 49 48 47 47 48
2 2 3 1 0 1 6 8 25 22 22 17 13 13 14 10 9 11 11 11 15 19 19 25 26 24 29 34 37 39 41 44 47 47 45 50 46 57 55 52 48 48 47 46 47 49 52 52 52
2 1 2 2 2 4 3 3 6 18 19 15 15 15 10 10 13 13 11 16 22 24 27 32 33 34 36 41 44 44 45 47 50 44 48 44 54 59 50 44 45 45 48 48 49 50 50 52 49
8 6 4 4 2 3 3 4 4 16 15 12 8 5 5 9 8 8 9 13 21 25 27 28 30 32 37 44 44 46 48 49 45 48 52 53 55 48 44 42 45 47 48 49 47 46 48 46 45
3 9 6 4 2 1 4 13 11 12 14 11 10 12 14 9 11 12 13 15 18 20 22 26 32 36 42 42 44 46 48 49 49 46 46 45 49 39 43 43 47 43 41 42 45 49 48 45 41
8 5 2 3 2 1 1 7 6 15 15 13 5 7 7 9 15 16 16 19 23 25 29 35 36 41 43 44 46 46 45 44 44 42 41 44 44 47 47 46 44 46 46 42 43 44 44 41 38
4 2 3 2 1 4 2 2 1 14 13 17 15 15 13 14 16 18 21 23 27 30 33 41 41 42 43 44 41 40 41 42 43 41 46 48 52 50 46 53 50 33 35 36 37 37 36 36 34
1 2 2 1 2 2 1 3 5 10 17 15 12 10 16 19 24 26 26 27 34 37 41 41 42 44 43 41 39 40 42 43 44 47 51 53 45 48 48 47 32 26 32 37 35 33 31 30 29

GFSSGP_700_spd_021.txt.gz
Wind_Speed
4 11 11 11 7 4 8 5 11 17 14 18 17 11 11 13 13 3 19 14 14 12 13 11 10 10 10 6 4 5 6 6 5 8 12 16 19 15 9 6 7 8 11 13 13 11 11 11 11
6 9 10 12 8 9 5 11 15 8 20 18 12 9 13 10 6 1 11 17 16 14 11 12 11 10 9 7 6 8 5 6 9 13 16 16 10 7 7 8 10 12 13 13 13 13 13 13 13
7 11 10 6 9 10 6 18 8 9 8 5 5 5 3 4 2 12 13 15 14 13 15 14 12 10 10 7 8 5 6 9 13 16 12 7 8 10 10 11 13 14 14 13 13 14 14 14 14
14 8 12 8 11 11 9 15 13 6 3 2 5 1 5 6 7 4 7 10 12 15 16 15 12 10 8 8 6 8 11 14 12 6 6 9 10 10 11 13 14 14 14 15 15 15 16 16 15
9 10 7 4 5 12 14 19 15 16 15 13 2 4 1 10 6 9 11 14 14 14 14 13 10 9 8 7 9 12 11 6 2 5 7 9 10 11 12 12 13 14 14 15 16 15 15 15 16
13 14 7 10 12 17 22 19 7 13 12 3 4 4 2 10 8 12 13 15 16 12 12 10 9 7 5 8 10 4 2 2 4 5 7 10 12 13 14 15 16 17 17 17 18 18 17 16 14
13 15 6 11 11 12 16 13 14 10 6 6 4 3 6 10 13 11 13 15 15 13 11 9 6 4 6 7 2 1 2 4 5 7 10 13 14 15 15 16 16 17 18 20 21 20 19 18 16
13 12 6 11 16 11 7 9 12 8 5 6 2 2 9 9 14 12 14 14 13 10 7 5 4 5 6 3 1 2 4 5 7 9 12 12 13 15 16 17 17 17 19 21 22 21 19 18 18
13 7 5 20 20 19 11 17 15 12 7 3 2 2 8 6 12 12 10 9 8 5 5 5 5 5 2 1 2 3 4 6 7 7 9 10 14 17 21 22 22 23 22 25 22 20 19 17 16
14 8 3 16 12 13 20 18 13 10 3 1 3 3 3 5 7 8 7 7 6 4 5 4 3 1 2 3 2 3 4 4 4 5 9 13 17 19 21 24 24 23 23 24 22 21 23 24 23
2 2 4 19 10 12 20 12 6 7 6 6 6 4 2 3 6 8 9 7 6 6 9 7 7 7 4 3 2 2 3 3 7 10 13 16 19 21 23 25 27 27 25 24 23 22 24 25 26
6 8 13 22 23 20 15 10 8 4 4 1 3 6 7 5 2 1 5 9 10 8 7 2 9 6 4 3 1 3 5 8 13 16 17 20 21 21 22 25 30 28 26 26 24 24 26 27 27
13 14 12 12 15 18 13 9 5 4 3 5 2 4 6 10 14 12 9 5 7 4 5 8 9 8 5 6 7 6 9 12 17 18 21 23 24 23 23 27 29 30 29 29 29 29 32 32 33
16 13 11 15 14 13 12 9 8 4 3 1 5 4 4 7 7 7 9 10 14 11 7 7 8 8 7 12 17 10 8 19 17 18 20 21 22 24 26 31 33 34 32 32 33 36 39 39 40
11 6 4 15 17 17 12 9 7 6 3 2 3 5 2 2 2 5 2 4 7 7 3 7 8 8 4 14 15 12 14 18 16 17 20 21 23 26 28 36 37 36 36 38 40 42 43 42 43
8 5 6 11 13 15 14 10 12 9 7 6 1 1 3 7 9 7 6 3 4 6 11 15 15 10 9 14 12 13 19 18 16 20 23 25 28 31 32 39 38 36 39 40 46 47 44 45 43
11 8 6 4 7 6 10 1 11 13 11 8 7 8 9 10 13 13 12 11 14 15 19 22 19 18 13 9 15 15 18 22 23 24 28 32 32 34 39 39 38 39 41 47 51 50 53 49 48
5 8 10 12 10 11 5 5 4 19 15 13 12 11 14 15 16 15 16 16 15 16 23 26 22 21 20 19 14 14 20 23 24 27 30 32 35 36 34 35 42 45 47 52 53 54 53 54 57
4 8 13 9 10 12 8 9 11 19 18 18 18 20 22 23 22 21 19 18 19 18 18 20 21 23 13 12 13 17 20 22 26 29 30 33 32 36 41 40 45 48 52 55 56 58 56 53 52
4 1 13 13 11 9 8 15 17 22 20 18 20 21 21 23 24 22 23 19 19 14 17 22 23 18 13 14 16 17 19 25 26 27 32 34 37 38 41 44 47 50 54 55 53 51 50 50 50
12 14 18 15 7 4 10 9 9 12 16 17 17 16 15 15 16 17 14 14 15 16 17 16 12 12 13 14 15 17 20 23 25 27 29 34 37 40 44 47 51 53 53 55 52 48 48 48 46
12 13 9 9 8 9 14 6 13 15 16 15 14 13 12 12 10 7 8 12 13 14 12 11 12 14 12 10 13 16 23 28 31 34 37 41 43 44 48 52 49 47 56 55 49 47 47 47 49
7 7 6 7 10 9 11 6 18 20 19 18 16 12 9 5 8 7 6 8 10 12 15 15 16 17 18 21 25 31 37 39 40 42 46 46 46 50 47 50 54 64 56 52 50 47 48 51 51
8 7 7 4 4 2 3 8 20 28 26 22 16 12 6 8 6 8 10 8 11 13 13 16 24 28 31 33 35 38 41 42 45 48 50 47 51 53 57 56 55 55 47 42 41 43 43 44 44
7 10 3 0 0 4 1 4 4 26 20 17 15 10 9 10 11 12 15 16 19 19 20 22 27 30 34 37 38 41 42 45 46 48 50 50 49 48 49 44 42 43 47 46 47 42 41 44 47
6 5 4 5 3 2 1 0 3 23 14 15 12 13 10 6 11 21 20 19 23 20 21 24 28 29 36 39 42 43 45 47 49 48 48 47 47 44 45 46 48 48 49 40 44 40 40 39 45
2 4 4 5 3 2 3 4 7 14 20 20 18 16 11 16 27 22 20 24 19 19 20 27 32 38 43 48 43 45 47 47 46 45 44 44 44 46 49 51 46 40 44 47 41 40 38 41 45
4 4 1 2 2 1 3 6 8 21 24 22 21 22 27 19 18 21 24 20 18 23 28 28 35 40 42 41 43 45 45 44 43 43 44 45 48 50 52 54 45 44 43 40 29 31 37 41 41
4 1 1 3 2 5 1 6 12 17 22 21 23 20 16 17 19 22 24 25 30 28 28 33 41 43 41 42 42 43 42 40 40 42 45 49 52 54 55 49 45 41 31 30 31 31 38 39 35
3 3 3 0 3 4 1 6 9 10 17 20 19 18 16 17 20 24 26 24 25 29 32 40 45 39 42 41 42 41 40 42 44 47 49 53 59 58 53 48 42 34 41 31 30 35 41 36 32

GFSSGP_700_spd_024.txt.gz
Wind_Speed
4 6 4 10 9 3 8 4 4 5 13 15 24 13 11 6 8 1 16 17 17 16 15 14 11 10 10 8 4 2 4 4 5 7 11 16 15 10 8 9 11 13 14 15 14 14 14 13 13
5 5 7 9 7 6 6 9 6 10 12 13 12 7 8 5 9 4 16 11 17 16 15 14 11 11 10 7 2 5 4 4 7 11 14 10 8 8 9 11 13 13 13 14 15 15 15 15 14
9 9 10 7 12 8 4 10 15 18 19 9 12 6 5 1 7 10 12 18 14 14 16 15 11 11 9 4 3 4 5 8 12 11 5 6 8 9 10 12 13 14 14 14 15 15 15 15 15
10 11 9 9 10 15 4 19 16 10 6 10 6 5 2 3 6 10 12 14 13 14 16 15 11 9 6 3 4 5 9 11 6 4 6 8 9 11 11 12 14 14 14 15 15 16 16 16 16
12 7 7 7 6 12 14 11 14 7 8 5 13 9 2 6 10 11 14 15 14 17 16 13 10 7 5 4 5 9 8 2 3 5 7 9 10 12 13 13 14 14 15 17 17 17 17 16 14
15 12 8 5 8 9 13 16 10 7 5 7 9 5 5 11 13 12 14 16 18 14 13 11 8 6 4 4 7 4 1 3 5 6 8 10 12 13 14 15 16 17 17 18 20 19 18 17 16
12 12 7 8 17 21 18 20 11 10 5 8 7 3 5 14 17 12 16 17 17 15 12 10 8 5 3 5 3 3 4 5 6 8 10 10 12 13 15 16 16 16 17 19 21 20 20 19 19
13 14 6 9 11 14 12 15 4 9 12 11 6 1 2 12 17 16 16 17 16 15 12 9 5 3 4 2 3 4 5 7 8 8 8 8 10 13 15 18 19 20 20 21 20 18 18 19 19
15 13 7 14 15 9 11 13 18 14 8 8 3 2 6 8 15 15 13 13 12 10 8 6 5 3 2 3 5 5 8 7 6 5 5 8 12 15 17 18 20 21 22 22 22 20 18 20 22
16 12 3 8 11 9 8 18 20 16 7 5 4 5 7 9 12 11 11 8 7 6 6 7 7 5 6 7 6 7 7 6 4 5 9 13 16 18 19 19 21 23 24 22 22 21 19 20 23
17 7 3 9 10 5 9 18 22 13 6 5 8 4 7 7 10 10 9 8 5 5 6 6 6 7 8 8 8 6 4 2 4 8 12 15 17 18 18 20 21 24 26 25 23 22 22 23 26
6 3 6 17 12 14 14 19 17 7 5 6 8 10 10 7 7 6 9 6 7 7 8 10 8 8 7 7 6 2 1 3 8 11 13 14 16 18 20 21 21 24 28 29 27 26 25 27 29
7 12 5 22 23 17 20 15 6 5 6 2 6 11 16 20 18 15 9 7 9 6 7 9 9 8 7 6 3 2 4 5 12 13 14 15 17 18 21 23 24 26 30 30 30 31 33 34 34
13 8 8 12 26 16 17 12 6 4 4 5 13 13 14 13 13 14 13 12 8 6 4 2 4 4 4 1 3 5 6 9 14 15 15 17 18 19 23 29 29 30 34 34 34 38 37 40 39
9 10 12 16 20 17 13 10 8 4 4 7 10 9 8 7 8 9 8 8 7 5 5 5 10 8 9 8 4 3 6 16 17 16 17 19 20 23 27 30 30 33 34 35 40 43 44 45 45
14 8 11 14 15 15 13 8 8 4 3 5 7 4 6 7 5 6 6 8 8 7 10 15 18 14 14 13 12 15 15 18 20 20 21 20 23 28 30 33 33 35 34 35 44 47 48 50 51
14 8 8 10 11 8 11 5 9 9 8 6 4 6 8 9 10 10 8 10 11 8 13 21 24 24 21 10 20 11 16 20 20 22 21 22 28 32 28 39 29 36 41 45 47 50 53 55 56
9 7 9 5 7 7 7 9 9 13 13 11 9 11 12 12 13 14 15 15 15 15 18 24 29 30 23 19 12 11 14 19 21 23 23 29 36 30 38 36 40 46 49 50 53 54 55 57 58
5 3 8 10 12 11 12 10 9 9 18 16 14 14 17 17 18 18 19 21 18 18 19 32 23 20 8 15 13 14 16 20 22 24 31 28 35 37 39 41 43 47 49 51 54 56 57 56 55
4 3 3 9 12 14 12 11 11 12 20 18 17 18 21 22 22 23 24 23 17 10 12 12 11 13 13 11 11 12 15 20 24 26 29 30 32 35 37 40 44 47 50 53 56 56 57 59 60
4 7 11 11 11 9 9 7 10 13 17 17 19 20 18 16 11 7 7 8 11 9 8 8 10 12 13 12 12 14 15 18 24 28 30 32 36 40 45 49 52 54 55 57 58 57 54 54 47
8 9 5 6 5 5 10 5 8 13 16 16 14 11 8 6 3 4 5 10 3 5 9 11 8 12 12 14 17 21 25 29 35 37 39 41 45 48 51 52 54 54 55 56 56 52 48 45 45
7 9 8 6 6 5 10 4 10 14 16 16 13 11 8 6 6 5 7 6 3 11 15 13 11 13 20 23 28 31 33 38 39 39 42 44 47 47 48 51 52 52 52 51 48 48 49 50 51
8 10 8 3 1 2 7 10 11 22 23 20 17 12 11 11 8 11 14 4 10 20 23 17 19 20 24 26 31 34 39 39 39 41 44 45 45 45 48 48 48 48 49 50 50 47 44 43 45
7 7 1 1 1 4 4 9 14 16 23 21 18 16 15 13 10 8 8 11 21 21 19 22 22 22 25 29 34 38 39 39 40 40 41 42 44 45 46 47 50 51 51 51 47 44 43 45 43
6 9 5 5 3 3 4 5 6 12 23 18 16 16 15 13 10 13 22 27 17 22 24 25 25 26 27 33 38 41 40 40 42 44 46 46 48 50 50 51 53 53 53 50 46 47 36 33 32
3 3 6 1 1 1 3 6 7 10 24 19 23 21 18 16 17 23 27 19 21 27 27 26 28 27 31 37 45 44 44 45 46 46 47 47 48 50 51 53 53 51 47 42 44 38 28 31 34
5 6 2 2 2 3 3 6 11 12 24 26 26 24 20 19 23 24 21 23 26 29 29 29 31 30 35 41 44 42 43 44 45 45 47 47 48 50 52 49 47 44 42 39 34 34 34 29 33
7 4 3 3 2 4 1 6 8 13 13 16 21 21 20 23 21 21 22 25 28 30 32 33 29 34 39 40 39 41 42 43 46 47 47 49 50 48 47 47 46 43 40 31 38 35 30 32 36
7 6 5 3 3 4 2 7 7 10 16 18 21 21 22 21 22 23 24 26 28 32 32 29 34 40 37 38 40 41 43 45 47 49 51 50 49 46 46 43 39 36 31 25 27 30 32 36 38

GFSSGP_700_spd_027.txt.gz
Wind_Speed
9 5 4 7 4 6 9 9 7 7 8 13 13 14 12 14 12 4 12 24 20 19 19 19 16 13 10 7 4 3 4 3 4 7 12 13 7 8 9 11 12 12 12 12 12 12 12 12 12
9 7 5 6 7 6 4 9 15 6 8 18 13 10 11 12 10 14 21 20 13 21 19 18 16 13 10 7 2 3 1 3 6 10 8 5 8 8 10 11 12 13 13 14 14 14 13 13 13
11 9 5 6 9 9 6 8 20 24 17 6 7 5 7 6 3 8 11 16 21 21 20 16 14 12 9 6 1 1 2 6 8 3 5 6 7 8 10 12 13 14 14 15 15 16 15 14 13
13 9 6 9 8 9 5 19 15 17 12 2 11 6 4 5 10 8 16 18 22 20 19 15 13 11 8 4 2 2 6 5 3 5 5 7 9 11 12 12 12 12 13 14 15 16 15 14 13
14 10 9 6 6 9 8 18 15 3 2 10 8 3 7 2 6 15 18 19 18 19 19 15 12 10 8 4 3 5 3 3 5 5 8 11 11 11 11 12 13 13 14 15 18 19 18 16 14
16 11 6 2 3 9 14 18 19 8 10 3 7 1 3 11 16 18 18 16 17 19 17 14 11 10 6 4 4 4 3 5 6 9 10 10 11 12 13 14 14 14 15 18 20 21 20 19 18
13 7 7 10 14 10 19 18 12 8 3 7 3 8 5 11 15 12 15 17 20 19 15 12 10 8 5 4 2 4 6 7 9 9 9 9 9 11 12 13 15 17 18 18 19 20 18 17 17
12 8 12 15 13 9 15 17 8 2 9 14 9 5 4 14 15 14 19 19 18 17 16 14 10 7 4 4 6 7 8 10 9 8 7 7 8 9 10 12 14 17 19 19 18 18 16 16 16
13 10 7 12 16 8 14 14 8 8 10 11 7 5 5 11 15 16 16 17 18 17 15 11 8 5 4 6 8 9 10 10 7 5 4 6 8 10 11 13 15 17 18 18 20 21 21 19 18
15 13 2 8 15 15 14 7 6 9 4 8 6 6 12 15 17 17 16 16 14 12 9 8 6 6 7 9 11 12 9 7 4 2 4 7 9 10 12 14 16 20 21 22 23 22 22 22 21
15 8 3 5 12 9 13 16 16 11 5 2 2 5 14 17 19 17 15 14 11 7 5 4 8 10 11 12 12 10 7 4 0 4 6 8 11 11 13 15 18 22 22 25 26 25 23 24 25
12 7 5 13 9 17 16 10 13 10 3 9 11 8 11 15 15 16 13 8 10 11 12 10 11 12 13 14 13 9 6 4 4 7 8 10 11 14 16 18 20 22 23 26 29 28 27 31 30
6 2 10 20 15 13 11 11 9 8 8 8 16 20 20 19 16 16 14 13 13 11 11 11 10 12 14 14 11 8 7 8 7 9 12 13 14 15 16 18 21 23 26 28 31 31 29 34 34
12 7 2 15 17 17 12 12 9 9 9 13 19 21 21 20 19 17 14 14 11 11 10 9 10 11 11 12 9 7 4 10 12 14 13 14 16 17 18 21 23 26 29 31 29 35 35 40 41
8 10 8 9 24 21 17 14 12 8 12 13 15 15 15 15 17 17 15 14 12 9 8 9 13 13 13 12 10 8 10 12 20 18 15 18 19 19 21 25 28 31 35 38 35 38 40 47 45
11 9 11 14 20 16 19 17 13 10 14 14 10 9 10 10 10 12 15 15 14 13 15 17 18 15 18 20 18 25 12 10 15 15 19 22 22 23 25 34 34 34 36 34 42 43 46 47 49
13 7 9 14 16 16 21 10 10 11 11 11 10 8 8 8 9 10 12 14 15 16 17 20 24 24 23 18 23 11 4 9 12 16 21 24 25 24 32 33 39 39 39 43 44 47 49 52 53
14 11 14 13 15 12 10 10 6 6 13 14 12 11 11 10 10 11 12 13 15 14 16 20 25 23 24 24 16 5 7 11 14 19 23 23 28 31 32 34 35 38 41 45 47 49 52 54 56
8 9 11 12 12 11 9 9 7 5 16 18 15 13 13 13 14 16 15 16 20 19 18 21 21 10 10 5 7 8 10 13 14 18 23 25 26 29 33 36 38 40 43 45 48 49 50 52 55
8 5 3 7 13 13 11 10 8 5 10 19 17 17 16 17 18 18 18 19 17 16 14 11 7 8 9 10 9 9 10 13 15 17 23 26 28 32 36 39 41 45 47 49 51 53 55 55 56
6 3 4 6 11 10 9 8 8 9 12 18 20 18 18 17 15 9 6 5 5 3 2 4 6 5 4 7 8 9 13 16 22 26 28 31 34 37 40 42 45 48 50 51 52 53 54 54 53
7 5 3 5 7 4 8 4 11 12 14 16 17 17 16 12 9 7 3 3 2 4 8 12 8 8 10 11 11 16 21 26 30 31 32 34 37 40 43 46 47 48 49 49 49 50 50 50 48
5 6 6 6 6 6 9 5 12 16 18 19 19 16 13 10 10 7 2 3 4 5 14 13 13 14 15 17 20 23 26 30 35 35 35 36 39 41 43 44 45 46 46 47 49 49 49 47 43
3 5 5 5 5 4 9 12 12 18 20 22 20 17 14 13 12 9 4 3 2 13 22 22 14 17 20 22 23 25 29 34 37 36 37 38 40 41 42 43 46 48 48 49 49 48 46 44 42
6 7 0 1 1 3 7 8 18 8 14 21 21 19 18 16 13 8 6 4 17 24 14 15 17 20 22 24 24 28 33 36 37 37 37 40 42 44 46 46 47 48 48 49 48 46 43 40 39
6 9 5 4 3 2 5 6 6 11 16 15 18 18 19 17 13 9 10 13 16 11 14 20 21 23 25 28 29 32 36 37 38 41 43 43 44 45 46 47 47 47 47 46 44 40 36 32 31
6 7 9 3 1 1 5 8 12 11 13 20 25 24 20 17 15 13 14 17 15 16 19 21 23 24 29 32 33 38 40 40 42 43 43 44 45 46 46 46 46 45 43 41 37 34 30 31 34
7 6 3 4 3 3 4 8 11 7 9 18 25 25 23 21 15 15 19 18 20 21 22 24 25 28 35 36 39 40 38 40 42 42 43 44 44 44 44 44 44 42 40 35 34 30 27 31 28
9 8 4 4 3 3 2 5 4 4 7 10 15 16 20 18 16 18 20 22 23 24 25 29 31 33 38 39 42 35 40 39 41 42 43 44 45 45 45 45 43 40 37 34 30 25 29 28 30
10 9 8 4 4 5 2 7 3 4 6 12 15 15 18 19 21 23 24 24 26 27 29 32 33 37 39 40 36 37 39 41 41 42 43 44 46 46 46 44 40 37 34 31 27 27 29 30 34

GFSSGP_700_spd_030.txt.gz
Wind_Speed
11 10 8 8 5 8 12 12 7 4 3 4 6 10 13 14 13 9 11 21 22 21 20 20 19 17 13 10 7 4 3 2 3 7 9 5 6 7 7 8 9 10 11 11 11 11 11 10 9
11 9 9 7 9 13 9 7 9 7 9 12 11 8 10 12 5 10 21 29 22 18 15 19 19 16 13 10 5 4 3 2 5 7 4 5 6 6 8 9 10 11 11 12 12 12 12 11 11
13 12 7 5 11 14 6 7 14 12 13 10 14 8 15 14 18 23 24 19 16 18 21 18 17 16 13 8 4 4 1 4 4 3 4 5 6 8 9 10 10 11 13 14 14 14 13 12 12
12 12 10 8 9 6 5 13 16 11 7 4 14 1 4 6 16 26 13 12 19 21 21 18 16 15 11 7 4 2 2 1 4 4 4 6 8 9 9 10 11 12 13 14 15 15 14 13 12
14 13 9 9 7 5 8 15 10 7 9 7 2 11 5 5 3 6 14 14 23 23 21 18 17 13 9 6 4 1 0 5 6 6 8 8 9 9 10 11 11 11 12 14 15 15 15 14 13
11 12 9 13 5 7 13 12 9 6 6 8 11 3 6 3 3 12 26 26 23 23 21 18 15 13 9 6 3 2 6 7 8 10 8 9 9 9 9 10 11 12 13 13 14 16 17 16 16
11 10 10 6 5 7 15 14 10 4 3 4 6 9 5 10 10 7 17 17 21 24 21 17 14 11 8 5 4 7 9 9 11 9 8 7 6 6 6 7 9 13 15 16 17 18 18 18 17
12 8 9 7 8 7 14 12 7 11 6 11 9 8 9 7 15 18 19 19 24 23 18 15 13 10 6 5 8 11 11 13 11 9 6 4 3 4 5 7 10 13 16 16 18 20 19 18 16
16 11 13 11 10 10 13 12 7 7 5 8 8 10 6 12 15 18 22 25 23 20 17 14 11 7 7 10 11 12 13 13 10 7 4 1 1 3 5 8 10 14 15 18 20 21 19 17 15
13 12 7 9 10 10 12 12 8 7 6 6 7 5 10 14 16 20 20 20 19 17 15 12 10 9 11 12 12 14 15 13 9 6 4 3 4 5 6 8 11 13 16 19 22 24 24 21 20
12 9 5 6 10 3 10 13 19 11 6 3 4 4 12 17 20 20 19 19 17 14 12 10 11 12 13 14 15 16 15 12 9 7 6 7 7 7 8 10 12 14 17 20 23 26 28 26 24
10 9 6 6 15 12 14 6 7 8 3 6 5 6 16 19 19 20 18 15 12 11 11 12 14 15 17 18 19 17 15 12 10 9 9 10 10 10 11 12 14 16 18 21 25 29 31 29 29
12 5 14 16 15 16 8 8 6 5 2 7 11 15 17 21 21 21 18 16 17 15 13 12 13 15 17 19 17 14 13 11 11 12 13 11 12 14 14 15 18 20 24 27 28 32 33 34 34
7 10 18 16 14 13 9 10 5 8 8 15 20 21 21 21 20 19 18 17 18 15 14 12 12 14 15 16 15 14 12 10 13 16 18 14 12 16 18 20 22 25 30 35 33 33 33 33 40
7 7 11 19 20 16 12 6 10 9 15 20 20 22 23 23 21 21 20 17 16 14 13 12 12 13 14 16 17 14 7 7 11 14 26 22 16 18 21 24 26 31 36 35 39 38 38 41 42
9 10 8 14 19 17 13 12 11 8 18 19 17 19 21 21 20 19 19 18 16 15 13 13 14 15 20 25 25 20 10 12 9 16 17 17 19 22 22 28 29 37 35 38 38 41 42 45 48
13 9 8 8 14 15 16 9 13 10 21 21 19 17 19 17 16 16 17 17 17 18 17 18 20 21 22 27 30 28 9 11 11 12 16 18 21 24 28 33 35 35 37 39 41 43 46 47 49
15 9 11 11 12 14 17 10 12 14 21 20 19 19 19 16 15 15 16 17 18 18 19 20 20 21 22 19 15 11 6 10 11 13 15 17 23 26 28 32 35 36 38 41 42 44 46 46 49
10 9 12 12 18 13 15 15 12 13 20 22 21 20 18 16 15 15 15 15 17 20 20 20 17 14 6 4 3 5 6 8 9 12 16 19 24 29 31 33 35 36 39 41 44 45 47 49 51
7 10 12 17 20 17 17 15 14 10 15 24 24 21 18 17 16 16 17 20 20 22 22 20 13 6 7 3 8 5 2 4 8 11 17 21 25 28 31 33 36 38 41 44 45 47 49 49 51
9 8 11 9 21 19 13 12 15 14 11 14 23 23 20 18 17 17 16 13 11 10 10 8 2 5 5 6 4 3 4 8 12 18 24 26 28 31 34 36 38 41 42 44 46 48 48 50 47
7 9 7 6 12 10 14 10 15 17 14 14 19 24 23 20 17 14 11 9 8 8 8 4 4 5 7 7 6 9 11 15 19 24 28 31 32 34 36 38 39 41 42 44 45 47 48 48 47
6 8 8 7 7 7 10 12 7 13 15 16 19 23 22 18 14 13 12 10 8 7 3 8 11 11 11 12 13 15 18 21 24 29 32 32 34 35 36 38 39 41 43 45 46 46 46 46 45
7 7 7 6 5 10 9 9 9 10 13 18 20 21 20 17 14 15 13 9 9 7 11 16 13 11 16 16 17 19 22 25 29 34 33 34 35 36 38 40 42 43 43 44 45 45 45 42 40
8 8 4 4 5 7 5 8 19 11 14 15 18 21 19 17 15 16 12 8 6 10 11 11 13 16 17 19 21 24 26 30 33 35 34 35 36 38 40 42 42 43 44 44 44 44 31 31 29
10 8 6 4 4 2 4 7 4 10 17 17 15 18 19 18 18 17 11 10 10 9 9 12 17 19 21 22 27 30 30 32 38 35 36 37 40 41 42 41 42 42 44 44 43 37 31 29 31
6 6 9 3 4 3 8 8 12 14 12 15 20 24 22 20 19 17 14 12 12 11 14 17 20 22 24 28 30 34 33 37 37 36 36 39 41 41 42 43 43 44 43 42 35 29 29 30 31
7 5 3 6 3 4 3 7 4 5 7 13 19 23 23 22 22 20 17 15 15 16 19 22 24 26 30 32 34 34 39 37 34 35 37 39 40 41 42 42 43 42 42 39 28 33 28 26 25
11 8 8 4 3 2 3 1 1 2 3 4 8 15 21 24 24 21 20 19 20 21 24 26 28 31 34 38 36 41 40 33 34 35 37 39 41 41 42 42 42 42 39 36 31 28 27 29 28
14 10 10 6 4 4 2 5 2 4 5 6 10 14 20 24 26 24 23 23 25 27 27 29 32 35 38 36 40 41 34 33 35 36 38 40 42 43 43 43 43 41 38 33 28 31 29 27 29

GFSSGP_700_spd_033.txt.gz
Wind_Speed
13 11 7 7 7 13 20 21 12 4 6 9 7 9 10 14 14 16 15 19 24 24 24 22 19 17 17 14 11 7 6 5 1 3 3 5 5 5 7 9 9 10 10 11 11 11 10 10 10
13 10 9 6 14 20 21 12 4 11 3 7 7 8 13 9 17 12 13 19 27 24 23 20 17 21 18 14 9 7 6 3 1 2 6 6 5 6 9 9 9 10 11 11 11 10 10 10 10
13 12 7 11 18 21 14 4 8 4 4 4 5 14 14 5 14 16 18 29 29 28 22 19 21 19 17 12 9 8 4 0 1 7 6 6 7 8 8 9 9 10 10 10 10 11 12 12 12
11 10 11 14 18 11 9 4 6 5 6 4 10 12 8 7 14 19 27 26 26 22 22 26 21 19 15 11 9 5 1 1 6 6 6 8 8 8 8 8 8 8 9 9 11 12 13 13 13
11 10 16 17 18 10 7 8 12 7 4 3 5 15 18 5 20 24 20 19 19 22 26 25 21 19 15 10 7 3 2 7 7 7 9 8 8 8 8 8 8 10 11 12 13 15 16 16 15
10 11 18 21 15 5 7 10 7 9 8 3 2 2 3 16 14 22 22 22 22 25 26 25 22 17 13 10 6 3 7 9 9 10 9 8 7 6 6 6 9 11 14 14 15 18 18 17 15
14 16 18 20 6 6 10 9 6 7 4 3 3 6 6 7 6 19 28 26 28 22 22 21 17 15 14 9 5 7 11 11 11 10 9 7 5 3 3 6 8 11 12 14 17 19 20 20 17
13 15 19 15 10 11 10 9 8 7 6 6 0 2 9 6 8 6 8 12 14 18 19 20 16 14 11 8 7 11 12 12 12 10 8 5 2 1 4 5 7 9 12 14 15 18 20 20 19
12 15 21 14 19 9 9 9 4 2 2 9 4 4 12 8 9 8 13 14 17 18 16 15 15 12 9 8 11 13 13 14 12 10 7 4 3 3 5 6 8 10 12 14 15 18 21 25 26
15 15 15 3 18 12 11 7 11 10 5 2 3 7 8 8 11 12 14 17 21 18 17 18 13 11 9 10 12 13 15 15 13 10 6 6 6 5 8 9 11 12 14 17 19 21 24 25 26
15 15 7 8 7 4 2 7 14 11 4 7 7 7 5 10 11 15 18 20 18 18 16 12 9 8 9 12 15 16 16 15 11 10 9 8 7 8 10 11 13 16 17 21 25 27 28 32 33
10 14 7 6 8 11 7 10 11 6 10 3 9 5 11 14 17 17 17 17 16 14 11 9 9 11 12 15 16 18 14 15 11 10 10 10 9 10 11 14 16 18 19 21 25 29 34 32 34
12 8 6 9 8 14 13 15 9 4 1 6 8 12 15 17 19 18 16 16 13 11 11 10 10 12 13 15 16 17 14 9 8 10 13 14 15 13 17 16 19 20 23 27 31 36 36 34 35
10 6 10 11 12 12 10 7 4 7 7 10 9 16 16 18 17 17 15 14 12 11 8 8 9 12 14 16 16 16 12 11 10 10 12 19 22 23 26 20 22 25 27 32 34 38 35 35 36
7 12 13 13 11 10 6 7 5 6 8 13 15 16 16 16 16 15 15 15 14 12 9 8 8 10 16 18 20 22 21 8 6 18 26 26 28 24 20 22 27 23 29 33 37 37 38 39 40
10 11 18 12 13 13 13 14 10 10 14 13 15 17 17 17 17 18 18 16 17 15 12 10 10 12 14 18 24 26 24 16 17 18 22 22 21 17 18 23 29 30 34 35 37 39 41 42 42
13 15 8 10 15 12 13 13 11 10 16 16 16 17 18 19 18 19 21 19 17 16 14 14 15 15 18 18 27 24 32 26 10 16 21 20 18 17 21 25 28 32 36 37 37 39 40 43 44
16 5 14 12 12 14 14 7 11 11 18 17 17 17 18 20 20 19 20 19 19 20 16 19 19 18 18 19 15 3 4 10 9 12 16 15 16 19 23 27 30 31 34 36 40 40 41 43 46
9 9 9 11 9 12 14 10 8 15 19 20 19 19 20 22 22 19 21 21 20 22 20 20 20 20 20 11 9 6 8 9 11 14 12 12 16 19 23 28 30 30 36 39 41 42 43 45 46
9 10 9 6 10 11 12 13 12 14 17 20 21 20 20 20 22 22 21 22 23 23 22 22 23 21 13 12 9 9 9 10 11 10 12 16 20 23 26 27 32 35 35 40 43 43 45 45 47
8 6 7 10 14 15 11 15 17 19 15 19 20 20 20 20 23 24 23 24 24 23 20 18 14 12 11 11 9 11 12 12 13 15 18 20 24 28 29 32 33 36 38 40 43 46 47 46 46
10 10 8 8 16 21 20 18 20 20 23 21 21 24 22 21 22 23 21 19 16 15 14 12 12 9 8 11 12 11 12 11 18 20 23 27 29 30 32 35 36 37 39 41 43 43 45 45 45
5 8 7 9 16 12 18 14 22 22 19 19 19 22 22 25 23 21 17 16 15 17 14 11 8 11 12 12 13 13 15 16 19 21 26 28 35 34 35 37 38 38 39 41 43 43 43 42 42
5 5 7 9 15 10 18 18 8 17 15 15 16 18 20 20 20 18 17 18 19 15 12 12 13 13 13 14 16 18 20 23 27 25 27 34 35 34 37 38 39 40 41 42 42 43 41 40 36
6 8 12 8 7 9 3 8 17 9 9 14 17 17 19 20 20 20 20 20 17 14 13 14 14 14 16 18 20 22 25 25 28 30 31 36 33 35 37 37 37 39 39 40 42 43 39 34 28
9 13 13 7 7 8 4 9 5 6 9 9 16 15 17 18 20 21 21 20 16 16 13 14 16 19 20 22 24 26 28 30 31 30 35 34 35 35 36 37 38 39 41 41 40 40 39 30 28
8 10 9 6 6 8 16 13 7 9 8 8 15 17 17 18 20 22 23 21 19 16 16 17 20 22 24 25 28 31 34 36 30 36 36 36 36 35 37 38 39 40 40 39 39 37 34 30 32
10 4 5 8 3 6 5 7 5 2 5 9 15 18 18 19 20 23 23 23 23 21 20 20 22 26 27 30 33 36 38 36 37 38 36 35 35 35 36 38 39 40 40 39 38 33 26 26 31
8 12 9 5 5 3 4 3 4 1 4 8 14 18 19 20 22 22 25 26 26 27 24 25 27 30 31 34 38 41 42 38 36 35 34 35 35 36 38 40 41 40 40 40 35 27 23 28 33
9 10 12 9 6 6 3 8 3 1 0 5 9 16 18 21 22 23 26 29 28 30 30 30 32 33 36 38 42 44 37 34 34 34 34 35 36 38 40 41 41 41 39 37 36 31 32 32 30

GFSSGP_700_spd_036.txt.gz
Wind_Speed
11 10 8 6 8 11 20 23 7 15 3 3 5 10 3 9 13 11 8 15 13 21 25 24 23 21 19 16 13 10 8 7 3 1 2 7 7 8 8 9 10 11 11 11 11 12 12 12 12
11 12 6 4 14 19 23 3 7 5 9 8 16 9 4 12 11 10 23 15 13 24 27 25 24 21 18 16 12 9 9 6 2 2 7 7 7 9 9 9 11 11 10 11 12 12 12 12 12
10 11 8 11 17 24 22 8 7 3 4 6 5 13 17 14 12 13 15 20 21 28 27 26 24 21 19 15 11 11 8 4 4 9 7 8 10 9 10 10 9 10 11 11 11 12 13 14 13
9 9 12 11 21 23 7 8 10 4 4 6 4 3 12 15 19 13 17 24 29 30 29 24 22 23 20 14 12 10 5 4 9 8 8 10 10 10 9 9 10 11 11 11 12 14 15 14 13
9 9 16 18 18 18 13 7 11 11 6 1 4 4 9 9 12 15 20 21 30 33 30 27 24 25 16 12 11 7 5 9 10 9 11 10 10 9 9 9 10 10 10 10 12 14 16 16 14
11 10 18 23 23 9 5 9 10 14 4 2 4 8 4 10 24 20 19 24 28 29 31 27 28 23 18 12 10 7 10 11 10 12 11 10 10 8 7 7 8 8 9 11 12 14 16 18 17
14 16 19 21 22 15 10 12 9 8 8 4 2 5 4 8 11 27 16 17 14 29 29 24 24 21 10 12 10 8 11 11 12 12 11 10 8 5 4 4 5 7 9 11 13 15 17 18 19
13 14 21 25 26 9 3 12 6 12 13 6 8 2 5 12 4 6 24 27 25 14 24 23 19 12 13 13 8 10 12 11 13 12 10 7 4 2 1 3 5 7 9 11 13 15 17 18 21
12 18 21 21 17 8 9 1 3 7 6 14 12 6 11 8 4 5 4 20 29 15 24 21 18 16 15 10 9 12 13 14 13 11 9 6 5 2 3 5 7 9 12 14 16 18 19 22 26
16 16 21 14 14 17 29 17 6 7 8 4 2 2 7 4 5 4 11 16 13 18 9 16 19 15 10 9 11 12 14 15 14 12 10 6 3 7 6 9 11 12 14 16 17 19 21 24 30
17 21 13 14 6 11 13 18 11 8 7 5 4 6 6 3 6 8 10 14 14 15 14 16 13 11 10 10 12 14 15 16 15 12 6 6 6 9 11 11 14 14 17 19 23 26 29 31 33
17 16 13 13 7 5 5 6 8 11 9 9 7 7 2 8 9 10 15 18 14 14 11 9 8 7 7 9 13 15 17 14 10 8 8 8 10 13 15 20 22 18 20 21 23 26 29 33 32
15 11 11 7 6 8 10 13 8 10 7 9 8 5 10 13 12 13 13 14 14 12 9 10 11 10 11 13 16 17 16 15 12 11 9 13 15 17 19 28 23 22 26 26 28 29 30 33 33
11 9 8 5 6 10 10 11 9 10 11 9 6 8 11 13 12 8 9 12 11 9 8 8 9 11 14 14 13 15 17 15 12 10 11 16 16 15 20 26 26 23 24 26 31 31 32 34 34
8 11 6 9 4 9 11 7 16 11 7 2 7 8 12 12 15 12 11 10 9 9 7 7 7 8 7 11 15 16 19 16 11 13 21 24 29 27 25 27 23 20 26 29 29 32 33 35 37
8 10 10 5 10 7 10 8 7 11 12 10 10 12 13 17 15 15 16 11 11 9 6 4 5 6 6 8 12 14 17 23 26 22 21 31 22 22 20 21 19 22 26 30 31 34 36 38 40
9 11 15 11 13 9 9 11 7 14 11 13 16 15 15 15 16 18 14 11 11 9 10 10 11 9 9 11 10 16 14 18 26 31 31 25 21 19 19 19 18 23 27 29 32 33 36 38 40
9 13 14 12 13 13 11 12 15 12 16 14 14 15 17 18 17 14 15 14 14 12 9 15 16 12 16 15 15 10 11 13 12 13 17 16 16 17 18 18 20 24 28 31 35 36 36 37 39
6 11 10 11 8 11 14 19 15 14 17 17 17 18 19 19 21 17 15 18 17 22 13 16 17 15 18 18 16 13 13 12 10 13 15 16 15 16 20 24 26 26 30 35 38 39 40 40 41
10 11 6 5 5 9 12 13 14 16 21 22 21 20 21 21 23 17 19 22 23 24 23 20 20 18 22 20 14 14 13 11 12 13 14 16 17 19 23 25 29 32 34 35 38 40 41 41 41
13 7 7 11 6 9 9 13 14 13 16 20 22 22 22 22 22 22 25 24 24 27 26 24 24 21 18 16 13 13 13 13 15 16 18 20 21 24 26 30 30 32 35 36 37 38 41 42 40
11 2 10 11 10 12 9 12 17 14 17 21 25 28 27 25 25 28 25 27 28 30 26 25 22 16 16 15 14 13 14 18 20 21 21 20 22 26 29 33 33 33 33 35 37 37 40 40 41
4 11 7 9 12 9 14 15 31 23 26 28 29 27 25 23 24 25 27 26 25 26 23 21 17 17 15 13 15 13 16 20 21 23 25 28 28 29 34 35 37 37 37 37 39 40 42 42 41
6 6 9 11 14 5 24 23 11 30 26 24 23 24 25 28 30 29 31 26 25 23 22 19 13 16 16 17 18 16 19 22 24 25 26 28 32 32 34 36 37 37 37 38 38 38 40 40 39
7 10 5 9 9 5 13 8 9 20 16 4 25 24 20 26 26 22 21 15 16 20 18 16 15 20 18 18 19 21 22 26 29 31 32 34 32 32 32 35 35 35 37 37 37 37 39 41 40
8 12 5 1 2 11 3 6 3 11 9 3 16 19 17 20 21 24 25 27 23 20 19 18 19 21 19 19 23 24 26 30 34 36 35 34 34 31 32 33 34 35 37 38 38 38 38 39 38
5 5 6 10 9 6 11 20 4 3 5 4 13 15 18 18 21 22 21 23 22 22 21 20 21 24 22 22 26 27 30 33 36 38 40 39 33 31 32 35 36 37 37 37 37 37 35 35 35
9 7 4 3 2 5 10 11 13 3 3 6 12 15 18 18 22 22 23 25 25 24 26 25 24 27 28 28 28 30 34 36 39 42 44 32 31 30 31 35 37 37 38 39 38 37 36 33 31
5 9 10 10 8 1 4 5 6 5 4 4 11 16 18 19 19 21 23 25 28 29 30 27 27 29 32 32 33 36 38 40 41 45 45 34 32 30 33 36 37 38 38 39 37 36 35 34 31
7 8 11 9 8 5 2 10 1 3 5 4 7 14 18 19 19 22 23 27 30 31 32 29 29 33 36 36 39 40 40 45 41 46 39 33 31 31 34 37 38 39 40 38 39 36 35 32 29

GFSSGP_700_spd_039.txt.gz
Wind_Speed
9 10 10 8 9 9 13 18 18 14 10 11 13 14 12 7 8 9 8 7 15 18 20 25 28 27 24 21 18 15 13 10 7 3 6 9 8 9 10 10 10 10 10 11 12 12 12 12 13
9 11 13 9 11 14 19 16 13 15 6 11 8 9 9 11 12 15 22 14 16 24 28 32 31 28 25 21 17 14 12 9 5 4 10 9 10 11 10 10 11 10 10 10 10 11 12 12 12
8 11 15 5 12 20 15 4 9 10 6 9 7 7 11 16 17 19 19 17 15 29 32 32 31 29 25 21 16 14 12 8 6 9 10 10 11 10 11 10 10 9 9 10 11 11 11 12 11
8 9 11 13 15 15 20 11 7 8 1 4 3 3 7 11 14 20 19 19 23 33 35 34 31 28 24 18 14 14 11 9 11 12 11 12 11 11 11 11 10 10 10 9 9 11 13 13 11
12 12 12 11 18 17 6 10 11 8 5 3 5 1 4 7 12 13 16 17 37 43 37 34 31 27 25 20 16 13 9 12 14 13 13 12 11 11 11 10 9 8 8 8 9 11 13 15 14
13 7 9 16 15 16 9 13 16 10 5 1 6 3 6 6 11 12 20 22 19 30 37 34 32 31 28 19 15 10 10 14 13 14 13 11 10 10 8 7 6 6 6 7 8 11 13 15 18
11 10 16 22 25 10 13 12 11 11 11 5 4 6 3 5 8 20 22 22 28 39 34 33 29 28 22 14 11 10 13 14 14 14 13 12 10 8 6 4 2 3 5 7 10 11 12 13 16
5 8 17 21 25 8 12 14 2 9 7 8 7 6 6 4 6 11 25 25 13 33 30 20 23 23 18 16 14 11 14 15 16 16 15 11 7 4 1 2 3 6 7 9 11 13 14 16 18
8 18 22 18 21 12 14 15 10 3 6 13 14 15 8 3 4 8 13 19 13 16 22 23 17 19 17 13 10 10 14 15 16 14 12 8 4 3 3 5 7 9 10 11 13 16 17 19 19
9 14 24 17 15 13 12 20 13 11 7 10 6 4 16 5 5 6 8 18 17 15 27 19 18 16 13 10 11 14 14 13 13 12 10 8 5 5 7 9 11 15 14 14 18 18 19 21 22
8 18 15 20 10 12 13 6 7 7 12 8 7 5 5 10 11 11 11 17 19 20 22 20 18 14 11 10 11 11 11 11 11 12 11 9 8 8 9 11 15 20 16 16 17 19 21 24 26
14 16 19 8 6 4 8 8 9 8 12 11 5 5 1 10 15 11 7 13 8 15 20 15 15 12 9 10 12 11 10 9 12 14 13 10 11 11 12 17 19 24 25 26 24 26 25 28 29
13 16 9 3 2 10 9 4 9 13 7 10 6 5 6 11 14 14 13 10 6 10 14 12 9 9 10 10 7 7 11 12 15 14 11 11 14 16 16 17 20 22 23 29 25 23 26 28 29
14 9 9 4 9 6 6 3 18 16 6 9 7 7 9 11 12 14 12 9 8 9 9 6 6 6 5 3 4 5 7 8 10 13 16 16 16 17 14 19 22 22 22 26 25 25 27 29 30
8 5 7 6 8 6 5 6 13 15 12 6 10 10 10 10 11 7 7 9 9 9 7 5 4 2 1 2 3 5 9 10 13 18 17 18 18 21 24 20 20 21 24 24 24 25 27 30 32
6 7 8 5 12 8 3 2 8 10 7 8 11 12 16 12 9 3 2 4 9 9 7 7 6 4 2 3 3 8 8 13 17 23 21 24 24 22 24 19 21 22 25 24 23 25 30 33 36
7 6 8 10 11 7 1 6 9 11 7 8 6 6 16 16 11 11 8 1 5 7 6 7 4 2 5 4 7 8 10 17 18 24 32 30 32 32 26 22 21 24 26 26 28 29 33 35 35
6 13 11 18 15 13 9 5 6 14 12 11 12 11 13 11 9 7 7 5 6 6 4 8 5 9 10 10 13 10 11 14 15 16 17 18 19 23 23 20 21 25 28 30 31 33 35 34 35
4 8 11 11 16 17 14 6 17 19 19 15 14 14 15 12 12 13 12 10 7 6 8 7 9 12 13 13 14 11 13 14 14 14 15 16 18 20 20 21 23 25 27 29 32 35 36 35 34
13 8 14 6 7 15 17 13 19 22 21 20 17 15 16 18 18 16 15 18 16 13 11 13 13 14 15 17 19 16 13 13 13 15 16 17 18 21 22 23 24 26 27 30 34 37 37 36 36
20 15 19 13 5 8 7 11 23 19 19 22 24 19 19 20 20 21 21 24 24 23 21 19 19 16 20 21 20 16 15 16 15 18 17 19 21 23 22 22 24 30 29 30 33 35 37 38 37
16 12 6 16 14 6 6 1 16 19 16 21 25 25 25 24 25 24 24 28 28 27 27 26 21 20 23 20 15 15 17 20 18 19 19 20 22 25 27 28 29 33 29 31 32 33 35 38 38
13 13 11 10 13 14 6 1 10 15 17 18 22 28 28 27 28 28 25 23 26 32 29 27 24 22 19 18 16 18 22 23 20 21 21 22 25 28 31 37 35 32 32 31 32 34 37 39 40
4 9 8 9 6 2 18 12 9 21 28 29 29 24 24 26 29 28 28 31 30 26 27 26 25 22 21 19 18 20 23 24 24 25 27 30 31 33 36 34 37 35 34 33 34 36 38 39 39
11 14 2 3 4 6 15 8 28 17 19 26 16 28 28 29 27 32 34 34 32 29 27 26 26 24 20 19 20 19 23 24 26 28 32 34 35 39 42 41 34 32 33 32 34 37 38 38 39
9 10 2 5 2 4 16 6 2 10 15 15 13 21 28 28 33 34 36 35 34 20 17 22 25 23 19 17 19 21 23 27 29 32 34 38 40 39 48 42 33 33 33 34 35 37 38 39 38
3 3 2 5 5 2 11 5 9 10 11 10 16 21 28 30 29 32 32 28 23 22 18 20 21 22 20 20 21 23 26 30 33 36 39 40 41 42 44 40 33 34 33 33 35 36 38 37 37
12 8 3 4 4 4 3 9 8 7 3 6 11 19 20 16 17 18 21 21 22 22 22 23 26 28 27 27 25 26 28 30 35 39 44 40 46 44 43 34 33 33 33 34 36 36 37 38 36
14 10 9 7 4 4 0 2 5 3 1 6 14 15 14 13 13 16 18 20 21 21 23 27 29 32 33 33 32 33 33 35 35 42 44 50 49 40 34 30 30 31 32 33 35 36 34 35 35
12 8 6 12 5 1 2 8 8 4 2 4 2 14 16 19 20 17 17 20 22 23 22 20 26 32 36 37 39 39 39 39 40 44 48 48 47 36 30 27 30 31 34 34 35 37 36 34 32

GFSSGP_700_spd_042.txt.gz
Wind_Speed
10 9 11 12 7 6 8 16 9 14 16 16 14 7 7 10 16 8 10 12 14 22 25 27 28 28 26 25 23 20 18 15 12 7 6 9 8 8 8 9 9 9 10 9 8 8 8 8 8
10 10 13 11 8 9 13 13 14 12 13 13 13 14 9 7 9 10 8 14 20 23 28 28 29 29 31 27 24 21 18 15 11 10 11 10 9 10 9 9 9 8 7 7 7 7 7 7 8
10 12 13 8 10 17 15 6 9 16 10 8 12 13 11 12 19 20 13 10 15 23 28 31 33 34 31 28 24 21 18 14 11 13 13 12 12 11 11 9 8 7 7 8 8 9 9 10 10
12 13 12 11 14 11 16 20 15 14 7 9 5 7 11 12 17 14 13 13 20 24 33 37 37 37 34 27 23 20 17 12 11 14 13 14 12 11 11 10 8 7 7 8 8 9 11 12 10
13 13 12 13 10 9 12 9 16 10 7 3 5 6 5 6 9 14 15 17 23 23 38 40 34 34 32 24 21 16 12 11 14 14 14 13 12 11 10 8 6 5 6 7 7 9 11 13 12
13 12 6 19 3 11 13 8 10 6 4 7 4 5 4 5 8 8 12 15 22 32 43 38 34 32 34 28 19 15 11 13 14 13 13 12 11 10 7 5 3 2 3 3 5 6 7 8 11
14 11 15 13 7 13 15 17 14 12 4 6 4 4 5 6 5 8 12 16 29 32 29 32 37 37 34 30 21 13 15 15 15 16 15 13 11 8 5 3 2 3 3 4 5 6 6 7 9
9 9 12 11 10 19 11 11 12 18 21 16 6 6 6 5 5 5 14 13 20 37 39 36 35 39 27 22 15 15 17 17 17 15 12 11 9 6 4 4 5 7 7 8 8 9 11 11 13
10 11 12 10 11 21 10 12 13 11 9 13 9 9 11 11 6 4 5 14 27 25 30 23 22 29 22 16 16 17 17 16 15 14 14 12 9 6 6 5 7 10 11 11 12 13 15 17 15
10 11 10 6 11 12 9 11 11 14 16 12 11 6 6 13 13 2 6 15 18 26 14 23 24 22 20 14 12 13 15 16 15 14 12 10 8 8 7 7 10 13 14 12 12 16 17 17 19
8 14 8 9 17 12 14 14 7 13 12 11 4 5 2 5 9 3 8 16 9 22 26 27 23 22 17 13 13 14 14 14 14 14 14 12 12 11 10 11 12 13 14 16 17 18 21 25 26
9 8 13 15 18 10 5 2 8 11 11 5 3 2 1 5 11 10 15 17 17 21 26 22 17 17 13 11 11 12 12 14 14 15 14 14 14 12 13 13 15 16 19 21 23 24 25 26 24
13 16 7 4 10 6 4 3 6 11 6 6 5 1 5 8 16 15 11 4 13 21 26 22 17 13 11 9 9 11 10 12 12 12 14 14 14 13 15 17 17 21 23 26 23 22 24 24 23
13 0 7 9 6 4 2 0 8 5 4 6 7 6 9 10 11 11 7 7 7 14 18 19 16 13 10 7 8 8 8 6 6 11 14 14 12 13 17 16 22 24 22 21 21 23 24 25 25
8 6 6 8 10 5 2 7 6 9 6 9 11 11 11 12 10 10 7 5 4 7 12 12 11 9 9 9 8 6 6 6 8 11 12 16 17 20 19 20 20 21 21 22 23 23 25 27 29
4 2 13 15 11 2 3 7 5 12 11 7 13 14 14 14 12 9 8 8 5 8 10 10 10 11 10 8 5 3 0 5 9 14 15 19 23 24 26 27 27 26 25 24 24 26 29 31 33
7 4 12 15 10 9 2 8 9 11 11 8 11 16 15 14 7 5 8 11 9 8 6 6 5 4 4 2 2 2 5 8 13 15 19 22 27 31 32 32 28 25 25 24 26 29 32 32 34
6 7 11 5 14 16 9 5 9 9 10 9 8 11 13 8 5 7 10 12 10 7 5 5 3 3 4 6 7 8 8 10 13 17 18 18 20 20 19 20 23 24 23 26 30 32 31 33 35
7 10 12 9 9 16 16 10 8 12 14 15 14 10 10 8 7 6 6 6 11 10 7 5 6 8 9 12 12 12 11 12 13 16 17 19 20 21 19 21 22 23 26 29 31 34 32 33 35
3 7 14 12 12 23 21 17 10 15 18 19 15 14 13 11 13 13 10 9 10 10 10 11 10 10 13 15 15 16 16 14 17 17 21 21 19 18 19 22 26 29 29 28 33 33 34 35 34
12 11 10 14 11 10 11 18 16 19 21 23 19 15 15 13 14 16 15 14 15 14 13 14 14 14 16 19 20 20 18 16 17 18 18 18 19 20 24 28 29 30 31 34 36 36 37 36 34
15 14 17 17 9 11 6 7 6 20 18 28 25 23 21 18 18 18 18 17 17 19 19 20 19 18 20 21 23 19 16 16 18 18 17 19 21 26 28 26 26 27 33 31 35 37 36 38 36
11 11 15 15 15 9 10 5 4 14 21 24 29 29 27 27 26 24 21 20 20 20 20 22 24 24 23 25 23 16 16 17 18 19 19 21 24 28 26 28 31 34 42 40 36 37 38 38 38
15 9 8 12 6 3 1 3 8 12 21 22 23 28 28 31 30 25 26 24 23 25 23 22 24 30 28 25 17 14 16 16 19 21 21 23 26 29 32 35 34 32 40 44 38 36 41 40 40
12 10 3 3 2 5 6 3 14 14 17 24 27 22 27 27 31 30 28 28 26 29 27 24 28 27 30 23 18 18 19 18 20 23 26 30 32 35 35 35 42 41 41 44 33 37 40 41 41
5 8 4 4 2 4 5 5 6 15 10 11 17 23 24 31 24 24 25 26 27 27 25 25 24 21 24 21 18 21 21 22 24 29 33 35 36 38 42 48 43 41 32 38 37 37 40 42 42
7 10 6 6 2 3 6 2 7 6 8 12 17 18 23 26 25 26 27 24 24 29 26 27 23 21 23 21 22 23 25 28 32 35 38 40 43 42 47 47 53 51 40 37 36 37 40 42 40
17 7 4 5 3 3 5 5 7 8 3 5 7 15 15 16 21 22 25 28 30 28 26 25 25 24 24 25 25 26 28 31 35 36 39 43 44 41 53 50 53 51 42 35 34 36 40 38 38
15 12 13 11 4 4 1 3 5 3 2 7 3 3 5 10 8 9 10 13 14 17 20 22 24 23 26 27 29 32 34 35 37 38 39 41 57 46 47 53 50 43 35 35 37 38 34 34 37
9 15 18 12 6 4 2 7 8 7 11 4 1 3 8 12 11 9 9 11 11 12 17 18 17 18 20 21 23 26 31 32 36 38 44 50 46 51 52 51 48 40 39 37 31 30 35 35 36

GFSSGP_700_spd_045.txt.gz
Wind_Speed
13 13 13 13 8 6 6 11 13 13 15 12 11 6 10 12 12 7 7 16 16 17 24 29 30 30 30 28 25 18 22 18 15 11 9 9 8 6 7 7 7 6 6 5 5 8 9 10 10
13 12 13 10 8 7 12 12 10 18 14 12 12 11 8 8 11 14 10 12 17 20 24 29 32 33 31 30 26 26 22 18 14 10 9 11 11 9 8 7 6 6 6 6 7 9 10 10 11
13 12 12 5 7 16 10 7 12 11 10 10 8 12 10 12 12 12 12 15 17 26 29 31 33 35 34 33 27 26 22 17 13 11 10 10 10 10 9 7 6 6 7 7 7 9 10 11 11
12 12 10 8 12 11 11 14 15 14 8 7 6 6 8 13 14 5 9 13 15 25 30 34 37 39 37 30 25 22 19 15 11 10 11 11 11 10 8 7 7 6 6 7 8 8 9 11 14
10 11 8 12 11 10 10 13 4 11 12 7 4 6 9 8 8 7 9 16 13 26 30 35 37 35 30 32 25 20 15 12 11 11 12 12 12 10 9 7 5 4 4 5 6 7 10 11 14
10 9 7 15 7 6 9 7 5 7 9 11 7 10 13 8 6 8 9 16 19 25 31 42 36 36 29 23 23 17 14 13 15 15 15 14 13 10 9 6 4 2 2 3 4 5 9 13 15
11 10 11 7 8 7 12 9 14 17 12 12 11 14 10 7 6 6 9 11 23 32 38 37 39 38 34 23 25 17 18 18 17 16 15 13 12 10 8 6 4 3 2 3 4 7 11 13 15
10 11 12 7 6 11 6 8 9 9 11 16 14 8 9 9 10 9 7 9 20 23 38 31 40 42 34 27 28 26 19 18 17 16 16 14 12 10 7 4 6 5 5 6 7 9 11 12 14
7 12 12 9 5 8 11 7 9 15 14 11 10 10 7 12 12 7 5 8 23 36 32 33 27 35 37 30 24 22 20 17 17 17 15 15 12 10 7 7 7 7 7 10 12 12 14 12 14
11 14 8 3 11 14 9 12 12 12 12 12 12 8 8 10 10 5 8 6 21 29 30 34 32 31 26 28 17 17 17 17 17 18 16 14 12 10 9 9 8 8 11 13 16 15 14 14 15
12 14 7 13 14 9 10 11 10 11 14 5 4 2 5 2 2 2 6 11 18 19 20 13 35 34 31 18 16 17 17 18 18 18 16 13 12 10 8 10 9 11 14 16 17 18 18 18 20
11 10 12 16 14 6 11 8 5 10 10 6 4 2 2 12 16 13 12 20 11 16 27 36 30 25 20 16 14 15 15 16 16 15 15 13 12 10 10 12 13 15 15 21 18 17 18 20 19
7 13 4 2 2 6 4 4 5 4 5 4 4 2 5 13 16 13 11 12 25 26 28 30 23 19 16 15 14 15 14 14 14 14 13 13 13 13 14 15 15 15 16 18 18 19 21 21 22
13 1 8 2 3 3 3 6 7 6 4 5 6 5 7 11 9 6 8 14 16 18 17 17 14 13 13 12 11 11 11 10 11 11 12 15 15 15 15 15 16 20 21 21 22 22 22 23 24
3 8 3 1 2 4 5 4 3 3 4 9 9 6 7 14 8 6 5 12 13 15 13 14 15 18 16 13 11 9 9 10 10 11 10 10 13 15 18 20 23 25 25 21 21 21 22 25 29
13 2 6 7 9 1 4 9 6 5 4 5 9 10 8 10 11 10 7 8 13 14 17 19 17 18 15 13 10 8 9 9 8 10 10 12 14 19 24 28 30 29 24 19 20 22 26 29 31
10 4 10 12 7 6 7 7 9 6 8 6 7 12 12 16 15 12 9 10 13 13 13 15 14 13 13 11 9 7 8 7 8 10 12 14 18 21 22 22 20 17 17 18 20 26 30 33 35
6 5 12 10 5 13 16 10 10 7 8 6 4 11 12 13 11 13 12 10 11 10 10 10 9 8 10 9 6 4 7 6 9 11 14 17 21 19 20 19 16 17 19 22 27 30 32 34 37
4 6 11 9 9 10 23 17 13 12 12 12 8 8 12 13 10 12 14 13 12 12 11 9 7 4 4 3 5 7 7 9 11 14 17 19 20 19 21 21 21 23 26 30 32 33 35 37 38
4 6 7 10 11 13 16 21 16 17 14 12 9 9 9 12 11 12 11 12 11 11 9 8 6 6 6 7 9 11 12 13 15 17 18 19 20 20 22 23 24 27 30 33 34 37 39 44 41
9 9 7 9 14 12 9 19 22 21 18 17 17 14 13 10 6 6 7 6 9 10 9 9 9 10 11 11 14 16 17 17 16 16 18 21 22 22 23 24 26 27 28 31 31 36 38 41 42
9 10 11 17 17 10 9 7 14 26 25 23 22 23 16 17 15 14 9 7 6 4 7 13 13 15 16 17 18 18 20 18 15 19 22 22 19 21 23 26 27 29 30 34 35 37 38 38 40
5 7 12 17 11 14 9 6 13 14 19 25 24 27 24 21 19 16 14 12 10 9 9 10 13 16 19 20 21 21 20 17 18 18 20 20 21 23 25 27 29 32 35 40 44 46 45 41 40
10 10 13 8 10 2 6 7 10 11 17 22 26 25 27 26 22 20 20 18 18 16 16 15 15 14 19 23 28 21 19 17 18 18 19 22 25 28 30 33 35 37 42 44 41 50 52 41 41
13 10 3 2 1 5 4 6 15 15 10 13 17 21 23 24 25 23 23 21 21 18 17 15 15 17 22 26 24 18 17 15 18 19 22 26 30 34 36 37 43 42 44 46 47 55 55 52 43
8 4 3 3 2 4 5 6 5 8 13 11 12 16 21 25 25 25 25 22 22 21 18 16 17 19 22 22 19 19 21 19 21 25 27 27 31 35 40 40 34 44 41 46 51 49 51 47 38
8 6 7 6 1 1 4 7 11 9 5 5 8 13 14 20 17 18 19 19 19 20 19 18 20 22 24 24 23 21 22 24 27 27 29 35 37 38 47 49 40 40 52 47 49 50 45 40 39
9 7 4 4 1 2 5 6 10 5 3 3 6 12 14 14 18 18 15 13 15 18 22 24 23 23 25 26 25 23 24 28 27 28 32 35 39 36 41 45 51 49 49 50 55 48 39 39 43
17 18 14 12 4 4 1 5 7 2 2 5 3 2 3 10 10 11 11 10 13 16 17 18 21 22 20 17 18 20 21 22 26 28 29 32 34 43 44 41 47 51 53 56 54 48 46 46 45
25 26 17 10 6 6 5 13 11 13 10 6 7 6 4 1 3 1 2 5 8 9 12 15 13 14 16 17 18 21 23 25 30 33 32 36 37 43 42 43 47 51 53 54 53 47 44 43 42

GFSSGP_700_spd_048.txt.gz
Wind_Speed
14 13 12 12 8 6 5 8 11 14 16 13 8 10 13 14 10 7 3 10 13 19 26 30 31 31 29 27 25 22 20 17 13 9 5 6 6 5 4 4 3 3 4 6 8 9 9 10 9
12 11 13 10 7 4 7 11 8 12 15 11 4 6 7 10 11 12 9 8 16 21 24 30 33 33 32 29 26 24 21 16 13 8 7 7 7 7 5 4 4 3 5 8 9 10 10 11 12
10 10 10 5 7 14 8 5 12 12 5 6 8 9 12 11 10 8 10 12 12 21 26 33 34 35 34 31 29 25 19 15 12 8 8 8 8 9 8 5 4 5 6 7 8 10 12 14 15
9 8 8 8 12 10 8 10 12 9 11 11 10 8 8 9 11 7 7 11 15 19 27 34 35 37 36 33 29 24 18 16 12 11 10 11 11 10 8 6 5 5 6 7 10 12 14 16 18
7 8 9 12 11 7 9 9 9 6 9 10 6 5 9 8 12 7 5 11 15 20 26 36 37 37 37 34 26 24 21 16 15 13 13 13 12 10 9 7 5 4 6 8 10 13 15 17 17
7 8 9 15 8 4 7 7 5 4 4 14 10 6 14 12 8 5 5 10 19 21 28 36 39 39 38 32 25 21 19 14 13 15 16 15 13 10 9 7 5 4 6 7 10 13 14 15 15
6 8 12 5 2 7 8 5 7 10 12 13 8 15 15 10 6 6 10 13 22 24 30 35 46 39 39 35 28 23 18 17 15 16 17 15 13 11 9 7 4 2 5 7 10 11 11 14 15
6 10 12 7 5 5 5 7 5 5 8 12 16 13 12 8 10 14 14 14 17 24 40 39 38 39 41 34 32 28 25 21 18 19 17 16 14 11 8 5 1 2 3 6 8 9 12 14 12
7 12 9 7 5 6 10 11 8 11 13 14 11 13 11 7 15 12 10 10 12 17 27 29 36 24 38 39 36 34 32 21 21 21 19 17 13 9 5 2 1 5 7 8 9 12 13 13 13
11 10 8 4 4 14 10 8 10 14 13 7 8 12 8 10 8 8 11 11 10 21 27 26 23 27 43 40 32 29 27 23 23 20 18 15 12 8 4 2 6 7 9 11 13 17 16 14 15
9 13 11 11 9 15 10 9 10 11 11 10 1 2 5 2 3 3 6 11 9 11 25 28 28 24 31 39 28 23 24 23 21 19 16 14 11 7 3 6 8 9 10 12 17 15 14 14 14
12 7 7 11 13 12 5 5 9 8 6 5 3 0 2 13 9 3 7 9 16 15 14 23 15 21 35 29 26 25 23 22 20 18 16 13 9 7 7 8 10 11 12 14 14 14 15 15 15
5 9 7 6 9 2 3 3 4 2 3 5 5 4 7 10 12 11 11 19 15 10 26 33 36 36 28 23 23 23 21 19 17 14 12 11 10 9 10 12 11 12 15 19 18 17 16 16 20
6 1 7 7 2 1 1 4 2 5 5 3 3 6 8 9 6 10 11 12 23 26 27 25 23 21 22 19 17 18 17 14 13 12 13 12 12 12 13 13 15 17 20 22 20 19 19 20 24
1 2 0 2 5 3 4 0 4 4 8 6 5 7 10 4 6 6 8 12 14 16 16 17 16 17 16 18 16 14 14 13 14 12 11 11 12 14 14 16 20 21 21 20 17 19 19 21 25
3 4 6 4 6 3 3 6 5 3 2 0 5 5 12 10 8 6 4 9 12 11 13 15 17 17 17 16 14 13 12 11 11 11 13 13 10 10 13 16 17 17 16 15 17 18 21 24 26
8 4 4 6 9 4 6 9 4 3 3 5 4 9 7 14 9 11 9 9 11 13 15 15 15 15 15 15 14 13 13 13 12 10 11 13 11 12 15 16 16 15 14 14 17 20 23 26 30
5 6 4 12 4 9 13 11 10 6 4 3 3 7 10 10 9 11 12 13 15 15 16 15 14 15 14 12 10 10 11 8 9 10 11 13 13 15 17 17 17 16 15 17 19 24 27 31 35
4 5 10 9 6 13 12 13 16 10 9 6 2 7 12 14 11 13 14 15 16 16 16 15 12 11 9 6 4 3 3 7 9 10 12 13 14 17 18 17 18 17 18 21 24 28 32 35 38
3 4 8 10 8 11 14 10 18 17 13 9 2 6 13 18 16 14 13 13 13 13 12 11 11 9 8 6 5 6 8 9 11 12 12 13 16 18 19 19 20 21 22 24 28 31 35 40 42
9 8 5 8 9 13 14 10 10 19 18 17 14 10 9 12 12 14 12 10 11 11 10 9 8 8 8 8 10 9 11 12 12 12 12 15 18 19 20 21 23 25 26 28 32 34 38 40 41
12 9 5 10 12 13 11 7 11 13 22 21 19 18 15 15 14 13 10 10 5 5 9 11 13 12 13 13 14 15 14 14 14 16 16 18 19 21 21 22 25 26 28 32 35 38 43 43 41
7 3 5 7 11 9 10 5 11 12 16 20 22 22 19 18 16 13 9 4 7 7 6 7 9 12 14 14 15 18 19 18 17 20 20 19 20 22 24 26 28 31 33 35 39 42 36 48 45
9 7 8 11 7 3 7 7 8 11 13 14 16 21 21 17 17 16 14 14 13 13 12 13 13 12 15 15 17 19 22 23 24 24 22 21 22 24 27 31 34 36 37 34 33 38 45 44 48
9 6 3 2 1 4 5 6 15 18 15 10 10 13 16 19 18 19 19 15 12 12 11 13 15 14 14 18 17 19 22 20 21 22 23 21 25 26 29 33 35 39 41 39 45 41 47 44 48
11 6 5 2 2 3 5 6 9 11 12 11 8 10 13 16 19 19 16 17 15 14 14 17 12 12 14 17 17 20 18 21 21 24 24 23 27 27 33 43 38 26 36 37 40 46 49 45 46
12 7 6 4 4 1 5 10 13 9 8 8 2 3 6 8 12 16 12 14 15 14 12 16 13 14 16 18 19 18 20 20 19 26 28 28 30 33 34 33 31 37 37 35 41 45 47 50 48
9 6 3 3 2 3 4 5 7 10 4 5 4 7 9 6 5 9 9 9 10 14 16 17 17 19 19 20 20 19 20 20 21 23 24 27 25 26 27 26 32 39 36 44 43 51 54 49 39
13 14 11 9 4 4 1 4 6 6 1 5 6 6 6 5 8 10 10 9 9 11 13 13 12 14 15 16 18 19 19 19 20 23 23 25 26 27 32 32 31 39 48 48 45 55 46 40 46
17 16 19 16 6 7 6 17 17 13 14 12 7 5 4 3 1 5 4 2 3 4 4 6 10 12 12 15 17 19 19 19 21 21 25 24 24 30 32 30 39 42 47 46 53 41 43 45 41

GFSSGP_700_spd_051.txt.gz
Wind_Speed
12 11 10 10 8 7 6 7 7 10 12 9 9 9 16 15 14 10 9 8 15 18 23 27 29 30 28 26 24 22 20 18 15 10 7 6 5 5 7 9 8 8 7 9 9 9 9 11 11
10 9 9 9 9 8 7 8 9 8 12 10 7 11 11 12 12 13 12 9 13 19 23 29 31 31 30 27 26 24 21 18 15 11 9 7 7 7 7 8 7 8 9 8 8 10 12 13 15
8 7 7 7 10 12 10 4 6 11 9 8 7 8 9 11 8 11 10 10 12 18 24 31 32 32 30 28 26 24 22 19 15 12 11 9 9 9 8 8 8 8 8 9 10 12 14 14 14
5 6 7 11 13 10 6 3 7 7 8 6 10 8 8 6 6 8 11 9 15 19 26 30 30 33 34 31 28 26 22 20 16 15 12 11 11 10 9 9 8 9 8 9 11 13 15 16 16
5 6 9 12 13 5 7 7 4 3 4 3 6 8 4 7 8 6 6 10 14 20 26 29 34 36 35 31 30 26 23 20 16 15 13 13 13 11 10 9 8 7 8 9 12 13 14 15 15
6 6 7 10 11 5 3 8 4 0 2 6 8 12 8 8 12 4 4 10 17 21 25 31 35 35 35 36 30 28 23 20 18 16 15 15 13 12 10 9 7 6 8 10 10 11 13 15 15
5 6 9 5 3 4 6 6 2 4 4 9 8 7 11 14 10 6 4 9 16 21 26 29 35 40 36 36 30 25 25 21 19 17 17 15 14 12 10 7 5 6 7 6 7 10 13 13 11
6 8 9 6 6 1 8 6 2 2 7 8 10 6 5 8 12 11 13 13 17 21 25 31 37 32 32 39 34 27 27 25 19 16 17 16 15 11 8 5 4 4 3 6 9 12 12 13 12
7 9 8 7 6 3 11 7 4 7 9 10 8 5 4 12 10 14 14 12 12 20 30 29 38 45 40 37 38 30 28 27 22 21 20 18 14 10 6 4 2 2 5 7 9 12 14 11 10
9 6 4 7 5 11 14 6 6 10 10 9 4 6 9 10 11 11 12 13 14 9 13 44 36 35 29 32 40 41 34 31 29 23 22 19 13 9 6 2 2 4 5 8 11 14 11 10 11
6 6 3 3 9 14 15 6 7 8 8 4 2 3 6 7 5 4 8 14 15 12 18 20 17 28 38 22 40 38 35 31 29 27 18 15 12 7 5 5 3 4 7 9 10 12 13 12 11
8 4 2 7 8 14 3 3 5 6 5 5 5 5 2 7 3 5 1 5 14 12 13 19 31 37 30 31 33 31 29 29 21 20 18 14 11 8 7 5 6 8 7 8 14 16 13 12 11
3 8 8 3 12 8 1 3 4 4 4 8 6 7 9 9 9 5 9 9 7 9 14 17 18 10 18 31 38 32 28 23 22 19 17 14 9 7 8 9 9 8 11 14 17 16 12 12 13
6 4 4 5 8 2 1 2 3 6 1 6 7 9 8 6 12 9 11 13 12 12 11 27 35 43 38 32 31 28 24 22 21 20 16 13 11 10 11 11 11 13 17 19 15 12 11 12 16
2 3 2 2 6 3 2 1 0 6 6 3 4 6 13 9 7 8 10 16 20 30 32 32 31 28 26 26 28 27 25 22 20 17 13 12 11 12 11 11 13 15 14 12 10 11 13 16 20
5 4 4 2 5 3 3 6 3 2 2 9 3 10 10 13 8 7 9 10 14 13 16 18 18 20 21 21 21 21 21 20 16 14 15 13 12 9 8 10 12 12 11 10 11 12 15 19 24
9 2 1 5 6 7 6 7 7 2 1 1 3 7 5 8 9 10 10 10 12 12 13 15 16 16 16 17 17 17 17 17 17 16 14 13 11 11 10 10 13 12 12 11 12 14 18 22 26
10 9 6 7 3 6 13 10 12 8 4 1 1 10 9 6 10 11 12 12 14 14 15 15 16 16 16 16 16 17 16 16 16 15 14 13 12 13 13 14 14 13 12 14 15 17 21 24 26
6 7 9 10 8 6 6 9 12 13 8 4 3 6 9 8 10 13 15 14 13 14 14 14 13 13 13 11 10 10 10 12 12 15 13 12 12 14 15 15 15 15 16 18 19 21 24 26 30
4 3 6 9 10 11 10 10 5 8 8 6 2 5 11 16 12 15 16 16 15 15 15 15 14 13 13 11 10 10 10 11 13 15 13 12 12 15 16 17 17 18 20 22 22 25 27 30 34
7 6 5 7 7 9 9 7 3 10 11 11 10 9 13 13 13 12 13 15 15 14 13 13 12 12 13 12 13 11 11 9 11 12 13 15 17 18 18 18 19 21 23 23 25 28 30 32 34
12 9 8 7 7 5 7 4 6 6 8 13 14 15 15 15 15 16 13 11 9 11 13 13 13 13 13 14 14 13 13 12 12 14 17 20 22 19 19 21 21 23 24 27 29 31 33 32 35
7 4 4 5 6 7 7 4 5 7 7 9 11 15 18 18 18 17 15 13 11 12 11 12 12 14 15 15 17 18 17 17 16 19 22 24 24 21 21 22 25 27 29 30 32 35 35 37 39
9 7 5 6 6 3 7 5 6 5 9 10 11 15 16 20 21 20 18 16 14 16 15 14 12 13 16 18 18 19 19 18 21 23 24 26 26 24 24 25 28 29 29 34 38 39 35 36 36
12 8 2 1 2 3 5 5 8 10 11 13 12 14 17 17 21 20 21 20 18 17 15 16 13 15 15 16 20 20 21 19 17 22 22 25 25 25 26 27 27 27 33 34 28 31 41 41 39
13 12 5 3 2 0 3 5 4 9 13 8 11 11 16 18 19 19 18 19 19 16 16 13 15 14 15 16 17 17 25 22 19 19 22 24 24 25 21 23 28 32 30 34 33 32 34 41 44
12 10 8 5 2 1 4 7 11 3 4 4 3 6 10 11 13 18 19 18 16 16 17 13 14 15 17 16 20 20 20 20 22 23 23 22 24 25 21 23 22 27 30 32 33 37 42 43 43
12 11 5 5 4 3 3 4 5 6 3 6 6 4 2 8 10 13 17 17 18 17 18 19 17 19 19 19 20 21 20 21 20 22 22 20 22 26 29 22 23 29 34 33 33 38 41 40 37
12 12 8 6 4 2 1 4 3 8 4 4 8 8 6 3 5 9 13 13 16 18 21 21 20 19 17 19 20 21 21 20 21 21 22 22 26 21 26 25 29 34 31 38 36 39 37 37 37
16 15 14 10 5 8 7 14 14 10 9 9 6 3 4 3 0 3 7 8 6 6 8 9 9 8 10 14 18 20 20 20 20 22 23 19 21 24 28 32 30 42 33 34 44 38 36 35 34

GFSSGP_700_spd_057.txt.gz
Wind_Speed
10 9 7 7 10 14 23 26 23 7 11 17 14 19 10 27 20 16 10 1 8 12 15 20 19 21 21 21 20 18 16 14 11 8 5 5 7 9 11 12 12 12 12 13 14 15 14 13 12
7 6 5 6 16 23 23 17 4 12 11 11 10 6 10 16 24 24 27 18 23 20 14 19 22 23 23 23 21 19 17 14 12 9 7 7 9 11 13 12 12 13 13 14 14 13 13 13 12
5 4 7 14 19 23 14 7 9 6 10 12 9 12 11 17 20 19 21 20 17 28 22 21 23 25 25 23 22 20 17 16 14 12 10 10 12 13 13 13 13 13 14 14 14 13 13 13 12
1 3 6 12 19 16 17 2 8 10 10 10 12 9 19 14 16 17 19 20 22 24 26 28 29 31 27 25 24 22 19 17 15 13 11 13 15 15 15 15 15 14 14 14 13 13 11 11 10
1 3 12 18 16 14 9 13 10 10 14 6 14 16 11 10 11 15 21 22 20 25 29 28 32 33 32 30 27 23 20 18 16 15 14 14 15 16 16 15 15 14 13 11 11 10 9 10 9
5 6 12 16 12 5 9 8 8 9 13 7 10 13 4 10 11 14 19 20 21 29 34 36 34 35 36 33 29 25 23 20 18 17 16 17 17 17 17 15 13 11 10 9 8 9 9 9 8
5 10 15 14 8 7 7 4 7 13 14 14 8 10 12 11 14 17 16 17 14 18 15 39 35 35 36 39 36 34 29 25 21 21 22 19 19 19 17 14 12 10 8 7 7 8 9 8 8
5 8 12 8 7 5 1 2 4 4 13 13 7 6 11 11 12 13 9 10 10 14 17 22 27 34 28 36 38 35 31 30 26 25 22 21 20 18 17 13 11 9 6 5 6 8 8 9 7
6 7 11 6 5 2 4 3 4 7 7 12 17 15 18 14 12 11 15 13 16 16 18 19 27 16 21 17 32 33 37 27 28 27 27 24 22 20 16 11 8 6 4 3 6 7 8 7 8
5 12 7 5 6 7 8 8 8 7 8 9 19 14 12 15 15 16 16 16 15 16 14 17 23 22 28 26 38 31 38 38 33 31 29 28 23 19 14 10 8 5 3 1 3 5 9 9 6
5 11 8 7 7 8 10 11 10 11 19 7 11 14 13 14 15 17 17 21 17 18 18 17 18 20 31 34 42 28 36 40 38 34 32 25 21 17 14 10 7 5 2 1 1 6 9 8 5
9 9 9 8 9 8 7 9 7 9 16 9 19 12 12 13 13 14 17 18 24 22 19 22 26 30 28 40 40 44 44 47 45 40 34 28 20 15 12 8 6 5 3 4 6 10 11 7 5
10 9 10 11 12 11 9 7 7 6 6 11 10 10 9 7 8 12 17 14 9 15 17 26 26 31 38 45 36 21 43 52 50 36 32 23 18 14 10 9 7 5 6 7 10 12 9 6 6
8 11 10 10 11 12 11 11 8 9 7 6 8 8 6 1 2 4 5 5 5 7 13 14 19 34 30 20 17 23 29 28 36 32 25 18 18 14 13 10 8 8 9 11 13 11 8 8 7
11 14 13 8 9 9 6 15 15 5 7 5 6 11 7 2 5 3 7 10 2 3 9 17 25 24 20 23 25 36 36 39 29 22 22 21 18 16 14 12 11 10 10 13 12 11 9 9 10
13 15 15 10 10 9 6 10 12 4 4 1 2 4 11 2 2 1 4 10 11 5 12 19 18 25 26 27 37 36 33 31 29 27 25 21 19 16 13 12 13 11 12 12 12 13 12 11 12
15 15 14 10 7 7 7 7 0 4 5 3 4 2 15 8 3 2 5 8 14 16 23 26 26 30 29 30 31 32 32 29 24 24 22 18 18 18 17 16 15 12 13 12 13 15 15 14 15
10 14 13 6 11 5 9 11 5 5 6 7 8 6 10 7 6 4 9 8 13 15 14 15 16 20 21 22 24 26 25 24 25 22 20 19 20 22 20 19 19 17 16 14 16 17 17 18 18
13 13 12 6 6 7 7 8 5 10 9 10 11 7 9 11 11 8 9 11 13 14 13 12 13 15 17 19 19 19 20 21 21 21 21 20 18 20 21 21 22 20 20 19 18 21 21 20 20
11 13 14 7 7 8 10 14 9 9 11 12 12 6 8 15 13 12 12 13 13 14 15 15 15 14 14 16 17 18 19 19 18 19 19 19 21 24 24 24 24 23 25 22 22 22 24 24 22
11 15 13 11 8 11 14 18 6 10 11 13 13 12 10 9 11 16 17 16 16 16 16 15 13 13 13 14 15 15 16 17 18 19 19 21 20 25 29 26 27 25 28 25 23 24 25 25 28
14 14 15 10 12 16 7 11 10 14 12 15 15 16 16 12 10 13 16 17 17 16 16 16 16 17 17 17 18 17 16 16 15 16 18 19 23 28 27 23 32 27 28 30 26 27 26 27 33
14 8 10 13 17 17 16 11 11 11 12 15 16 18 18 19 15 14 15 15 15 18 18 18 18 18 18 18 18 17 18 17 19 21 21 21 24 27 27 27 27 31 30 30 29 27 28 29 29
12 10 11 12 14 16 17 18 3 18 10 8 9 15 20 21 22 19 17 18 18 19 21 21 21 20 20 19 18 18 18 19 21 25 22 25 28 29 31 30 30 28 32 35 32 30 29 28 34
14 14 13 8 12 11 9 10 12 6 5 7 9 10 15 22 24 24 25 23 23 23 21 20 21 20 19 18 18 17 18 19 20 25 21 26 28 30 29 33 34 30 39 35 28 30 28 32 31
15 19 11 6 6 5 7 8 10 4 4 7 9 11 15 17 24 27 28 26 25 24 23 23 21 20 20 21 21 19 19 19 21 25 28 29 29 32 30 32 35 41 35 30 26 28 25 25 32
16 21 20 16 9 9 10 8 9 7 4 4 5 7 8 15 20 24 28 29 29 28 27 25 24 22 23 21 25 27 16 20 21 25 28 29 30 31 32 33 37 40 35 24 25 29 23 34 31
20 15 17 15 4 10 13 11 4 6 5 3 2 0 2 5 10 16 23 28 28 28 30 29 27 25 25 24 24 23 22 24 24 24 26 28 30 33 32 42 40 36 28 33 32 24 30 31 40
17 15 18 16 21 4 6 7 2 6 4 4 6 3 2 3 6 13 14 24 26 26 27 32 29 28 28 28 27 27 27 26 28 30 29 29 31 31 34 33 31 29 30 33 30 34 33 33 44
16 20 22 20 16 16 14 19 3 7 10 10 9 8 6 6 5 7 13 16 19 27 31 29 26 27 26 26 28 31 28 27 28 28 27 27 29 29 31 31 26 24 31 31 25 36 38 38 36

GFSSGP_700_spd_060.txt.gz
Wind_Speed
9 7 6 2 9 12 23 23 22 27 11 13 16 23 10 11 15 25 26 24 46 13 11 12 13 15 20 23 24 22 20 17 13 10 7 8 10 12 14 14 14 15 15 16 16 15 14 13 13
7 8 5 7 17 20 27 17 15 7 5 8 15 15 21 32 27 34 35 36 43 20 16 13 14 15 20 22 23 22 20 17 13 10 8 9 11 14 15 14 15 16 16 16 15 15 15 14 13
3 2 8 14 19 24 27 14 15 17 15 14 16 11 13 18 20 23 23 19 16 18 19 20 20 20 22 22 22 21 20 18 15 12 10 10 13 15 16 16 16 18 16 17 16 15 14 13 12
2 6 7 12 18 23 25 9 7 9 14 12 14 20 23 16 20 16 20 15 17 20 21 21 23 22 24 23 23 23 21 19 17 14 12 12 15 16 16 16 17 17 16 16 15 13 12 12 11
5 2 13 21 21 21 20 16 17 14 17 21 17 23 26 26 17 15 18 19 14 16 21 21 25 24 25 27 26 24 22 19 17 16 15 15 17 17 17 17 17 17 15 13 12 11 11 10 9
9 11 16 19 16 13 14 12 12 12 19 20 23 19 15 10 12 16 17 17 12 17 17 31 21 28 30 32 30 28 24 21 20 18 17 18 20 18 19 18 18 16 13 12 10 10 8 8 8
8 11 18 19 19 8 8 10 14 15 23 23 22 15 8 4 4 17 15 12 10 15 18 20 23 32 34 30 30 29 27 26 24 21 21 21 21 21 21 18 16 14 11 9 8 8 8 8 8
11 11 15 16 12 12 16 14 16 14 33 8 2 8 14 7 6 13 15 9 8 11 14 13 9 15 17 23 23 31 32 30 25 24 24 24 24 23 21 18 15 12 10 8 7 7 8 8 7
9 14 18 11 11 5 7 10 19 13 8 11 12 12 15 12 8 12 11 13 10 12 12 11 13 9 17 12 22 22 32 35 25 28 28 27 26 25 21 17 15 12 10 6 6 7 7 6 6
9 15 16 11 11 14 11 16 12 15 18 18 14 8 13 13 12 14 13 13 15 15 14 15 12 20 18 16 15 21 22 33 35 32 31 31 30 26 21 18 14 11 7 5 4 4 5 6 2
11 17 18 13 12 13 15 18 16 17 21 16 18 8 16 17 16 15 16 15 17 15 11 12 17 15 20 24 21 32 33 33 41 38 33 30 29 25 18 14 9 8 5 2 1 3 6 6 3
12 14 17 14 15 14 15 17 15 21 15 19 11 12 13 14 15 13 11 14 18 21 12 12 21 20 18 25 21 28 36 39 43 38 36 30 26 25 20 14 9 7 3 2 3 7 10 7 2
15 16 14 16 18 17 14 16 17 12 16 15 11 13 15 13 8 8 11 14 12 8 13 17 12 24 22 30 15 27 36 46 44 43 41 29 29 21 16 13 8 6 4 4 6 10 9 6 4
16 16 16 18 12 13 16 21 29 10 8 14 10 11 8 2 5 6 8 13 9 6 16 21 15 23 30 20 30 41 34 33 45 43 34 33 22 16 16 10 8 6 5 7 8 9 9 6 5
17 19 17 21 17 14 14 18 16 22 11 3 9 8 2 1 8 6 7 11 12 8 9 13 15 18 25 25 27 31 18 22 48 38 34 27 21 17 13 9 9 8 9 9 10 10 10 7 7
20 19 21 22 21 16 18 19 16 9 16 17 10 11 8 2 7 6 4 6 12 6 8 7 15 19 16 22 24 17 21 25 33 31 25 20 19 18 13 12 11 11 11 10 11 12 12 9 11
20 21 17 12 5 12 17 18 6 7 6 10 4 5 9 1 6 7 3 5 15 23 27 21 16 17 15 14 25 32 33 30 26 26 25 23 20 17 15 14 13 14 14 12 12 14 13 13 14
22 12 15 11 10 9 13 18 17 11 10 11 8 2 6 3 7 8 4 6 10 18 22 24 26 30 32 38 37 35 27 33 26 25 22 20 20 21 18 17 16 18 18 16 17 15 15 19 18
18 17 19 11 12 9 7 10 5 6 14 9 9 6 7 6 7 4 5 5 6 8 11 15 17 20 22 23 22 25 24 23 23 23 24 23 19 21 24 20 20 21 20 23 20 19 19 22 23
14 16 17 12 6 9 11 13 12 9 5 14 12 10 7 11 11 9 6 5 8 8 9 12 13 14 16 17 18 17 17 18 19 20 20 19 19 19 15 16 22 25 24 27 23 24 24 23 24
15 16 19 14 11 16 13 16 12 3 8 11 12 11 6 16 9 11 11 9 9 12 11 11 12 14 16 17 17 18 20 21 20 19 19 19 18 21 17 17 22 31 30 30 28 25 28 25 29
19 13 16 15 13 15 5 9 13 14 16 16 17 17 13 10 10 9 13 12 10 10 12 12 13 13 13 12 14 16 15 15 14 16 17 17 17 19 23 24 27 32 28 29 32 28 28 30 30
17 10 9 11 14 19 21 6 12 12 17 22 17 18 20 13 10 9 11 12 14 14 13 14 15 14 12 13 13 13 15 13 14 15 16 16 13 18 22 25 26 29 30 31 31 32 27 35 29
15 15 13 14 14 15 22 15 15 7 12 11 16 14 19 20 15 14 13 16 16 17 17 16 14 13 13 14 15 16 19 18 17 17 19 19 16 22 24 28 27 29 32 33 31 33 38 42 34
13 14 13 2 9 10 19 18 13 12 11 15 10 15 19 22 22 20 19 21 20 20 20 19 18 17 17 17 18 17 17 19 19 19 25 22 18 23 22 26 27 28 32 32 37 35 37 39 25
16 19 15 6 4 9 7 6 11 7 6 9 9 11 11 16 26 26 25 25 25 24 22 21 20 20 21 21 23 23 19 19 22 25 22 22 25 23 27 27 26 30 31 33 41 46 39 34 28
20 22 19 16 5 8 11 11 11 14 8 8 6 8 10 15 19 24 27 28 27 25 26 25 23 22 22 19 22 24 28 24 15 19 20 23 24 28 28 29 30 31 29 38 33 32 24 24 27
24 20 16 16 4 4 12 16 9 10 9 7 7 7 7 11 13 22 24 29 29 28 26 26 26 26 25 26 27 26 26 22 21 23 22 22 24 26 28 29 30 29 32 30 23 25 29 28 30
23 25 17 19 21 5 4 1 21 2 10 8 6 4 4 6 8 18 23 24 29 30 29 28 29 30 30 29 31 30 29 22 24 22 24 26 26 29 29 28 29 30 32 24 28 23 27 32 36
28 22 26 21 12 18 13 5 10 5 5 8 8 9 8 5 6 7 9 19 23 28 28 31 29 31 33 30 32 30 29 23 23 21 24 26 26 28 27 29 30 30 27 31 24 28 31 31 36

GFSSGP_700_spd_063.txt.gz
Wind_Speed
8 6 6 5 8 7 19 20 19 10 6 9 12 12 15 8 4 4 6 7 9 15 19 15 22 25 26 27 27 26 24 21 17 14 12 12 14 16 18 18 17 16 16 17 17 16 14 13 11
6 6 6 4 11 16 21 18 26 20 14 14 15 15 8 18 13 13 14 14 11 15 19 33 35 29 28 29 28 27 24 20 17 15 12 12 13 16 17 17 17 18 17 17 17 16 15 14 12
3 3 3 5 11 24 26 24 27 17 13 5 9 13 11 13 15 28 26 28 17 18 17 23 7 25 26 26 26 25 23 20 18 15 14 13 15 16 17 17 18 18 17 16 16 15 15 13 11
2 2 6 13 17 17 21 25 24 5 10 12 14 13 9 15 19 19 30 23 26 18 18 22 19 21 23 29 29 27 24 23 20 17 14 14 16 17 17 19 19 18 17 17 16 14 13 10 8
2 0 13 21 27 27 26 24 10 10 11 15 19 16 19 12 20 24 16 16 19 20 19 17 21 27 30 33 33 31 28 25 22 20 18 17 18 18 18 19 19 18 17 15 14 13 10 9 6
3 8 21 30 31 27 10 9 11 10 17 19 18 23 24 20 17 10 13 14 17 18 16 14 26 32 32 35 36 35 31 25 23 21 20 20 20 19 20 20 20 18 16 14 12 11 9 7 7
6 12 23 28 27 24 10 10 14 16 18 22 25 19 10 18 24 11 12 12 13 15 15 16 14 30 37 34 40 35 35 30 26 25 23 23 22 22 22 21 20 17 14 13 11 10 10 9 7
12 20 25 21 23 23 13 16 13 20 20 10 17 17 11 11 7 11 7 8 10 13 15 18 29 27 5 15 32 31 36 32 28 27 26 26 26 26 25 23 20 17 13 10 10 11 10 9 7
1 12 21 20 22 18 19 12 16 18 17 8 11 20 16 9 8 6 9 7 13 13 12 14 17 13 8 16 10 27 30 31 28 28 29 29 30 29 26 24 21 12 14 10 10 10 9 6 5
10 16 23 22 24 18 16 15 17 16 9 12 18 13 13 10 11 8 10 10 13 16 18 19 14 13 11 4 11 10 13 30 32 30 29 29 29 27 25 21 19 17 11 10 10 7 6 4 2
14 20 19 22 16 22 18 19 18 16 8 18 17 14 12 15 12 11 12 13 15 15 16 14 14 9 14 16 13 12 14 27 30 38 38 33 30 27 23 20 15 11 10 8 6 4 3 1 4
18 20 17 23 20 17 19 18 21 25 22 21 10 13 11 11 14 14 9 9 14 18 19 17 12 14 11 12 13 9 16 27 40 40 37 34 31 29 24 17 15 10 8 6 3 0 2 0 2
25 15 20 22 24 20 15 15 19 27 30 2 14 12 14 13 10 9 7 6 12 9 4 11 12 13 13 14 14 14 27 36 43 43 41 40 35 32 21 20 18 13 8 4 2 3 4 4 2
14 20 19 23 22 24 22 19 17 18 29 19 13 10 12 5 4 1 3 7 13 9 9 12 15 10 12 20 14 22 19 32 48 48 48 43 35 24 24 20 16 10 6 4 5 4 4 4 6
19 19 21 25 22 25 21 24 16 17 19 9 9 10 13 6 4 3 4 9 11 5 7 24 20 16 13 11 17 17 24 41 39 32 46 38 29 27 25 18 14 9 7 7 5 6 7 7 8
19 18 24 25 26 19 18 24 12 11 14 9 7 6 8 6 3 4 6 8 10 5 12 17 11 15 8 12 17 18 38 14 25 27 37 34 30 30 23 17 13 11 8 8 9 9 10 8 8
17 26 22 24 15 12 19 18 14 11 5 5 3 1 6 3 3 4 5 6 12 20 9 17 15 16 13 8 15 26 26 16 23 34 30 34 28 22 18 13 12 11 11 11 11 11 13 13 12
17 22 17 15 9 14 15 17 20 14 2 9 8 11 5 5 2 3 6 6 9 16 20 18 16 18 17 22 22 23 24 31 33 36 37 33 30 26 19 16 15 14 13 13 14 15 17 18 17
19 25 18 17 17 14 14 20 10 14 11 8 10 18 13 11 5 4 5 7 7 11 14 18 22 28 31 29 30 32 33 36 37 35 29 27 25 21 18 17 18 18 14 15 18 20 20 22 21
28 17 17 17 8 6 13 16 14 18 7 4 9 11 9 6 2 4 8 9 9 10 12 12 15 19 24 25 24 22 25 25 24 24 24 24 22 18 18 13 15 15 15 17 21 23 24 24 25
24 18 16 18 15 16 16 21 15 13 5 10 10 13 11 7 2 2 8 8 8 10 11 14 15 15 18 21 20 20 21 21 21 21 20 20 19 19 17 17 16 13 18 14 18 24 28 30 30
18 17 18 18 15 11 12 13 12 10 14 16 17 18 12 9 5 6 7 8 8 10 11 11 11 14 16 16 18 17 15 15 13 14 16 17 19 18 18 19 22 20 21 24 24 23 24 34 32
20 15 13 14 15 16 18 12 12 14 17 22 22 16 15 14 11 8 8 10 10 9 9 10 10 11 12 12 13 12 16 15 14 15 16 17 15 17 20 20 18 20 21 19 22 25 28 34 32
20 19 17 11 16 15 23 18 22 14 16 22 22 22 19 17 15 10 10 11 14 15 14 13 13 12 12 13 13 11 11 13 14 15 16 14 13 16 22 20 20 22 25 27 29 29 30 33 31
17 22 7 4 4 7 8 13 21 25 22 23 18 27 24 15 13 14 15 17 17 17 17 17 16 14 14 16 14 13 13 12 12 14 15 16 17 13 14 17 20 22 24 26 28 29 29 31 32
24 18 12 5 4 5 9 7 8 11 7 13 14 17 22 19 13 16 11 15 19 19 19 20 19 19 20 20 18 17 15 14 13 13 21 17 17 15 16 20 19 23 22 23 24 25 30 27 26
19 23 22 21 5 1 7 19 13 11 11 11 11 13 13 19 20 18 17 17 17 19 25 24 22 23 24 22 21 20 18 18 13 22 23 27 23 20 13 16 21 23 24 23 23 24 27 30 20
30 25 17 20 5 4 8 18 7 8 14 10 10 13 12 15 21 22 24 21 20 19 18 22 27 27 25 25 25 24 24 23 25 22 27 27 32 15 17 18 22 21 22 23 26 29 23 25 24
30 27 25 17 20 5 1 4 4 22 17 9 15 14 16 20 21 15 19 23 27 24 24 22 21 28 29 29 30 30 30 25 31 31 28 10 13 12 17 21 22 22 24 24 26 21 26 27 27
40 35 28 23 12 16 11 9 1 11 14 15 12 11 13 15 13 15 17 19 28 30 29 28 27 25 27 29 31 36 32 24 30 31 14 19 16 16 20 21 22 24 25 27 25 31 27 26 30

GFSSGP_700_spd_069.txt.gz
Wind_Speed
9 9 8 7 5 3 7 1 9 19 26 18 10 10 11 17 15 8 9 17 18 9 8 8 11 19 19 26 31 27 26 27 24 22 20 19 17 16 14 14 14 13 12 11 10 10 11 12 10
8 7 6 4 3 4 4 7 20 28 26 9 9 9 15 14 13 10 10 11 14 11 8 8 8 14 17 23 38 35 30 28 25 21 22 22 20 19 17 17 16 15 15 14 13 13 13 12 9
6 4 2 2 3 6 14 25 26 20 10 8 10 8 10 14 15 15 14 17 15 13 14 14 14 18 21 29 29 24 34 31 27 26 24 23 22 20 19 19 18 17 16 15 14 14 13 13 10
3 3 2 3 7 10 20 17 5 6 4 8 10 9 15 20 20 19 18 17 17 19 22 24 23 20 27 27 29 34 37 40 31 26 26 24 23 21 20 20 18 17 16 14 14 15 13 12 10
1 0 1 6 10 15 12 6 8 8 1 10 13 17 20 23 23 24 23 23 20 17 18 18 24 31 31 30 31 43 43 46 35 31 27 27 26 24 22 21 20 18 16 15 16 16 14 11 10
5 5 4 6 10 15 15 6 7 7 10 14 16 16 17 18 22 18 17 21 17 15 17 21 26 32 38 34 40 44 42 35 38 32 29 29 28 27 25 23 21 19 18 17 17 14 11 10 9
5 4 5 7 12 17 21 10 10 6 12 15 18 20 18 18 17 14 10 16 14 14 15 16 20 31 40 20 33 48 55 43 34 36 31 31 30 29 27 25 24 21 19 17 16 13 11 9 10
6 7 3 6 11 14 19 15 11 14 15 17 15 15 18 24 19 10 8 13 12 10 13 17 17 19 39 22 40 22 51 51 46 45 36 35 33 32 30 27 25 22 18 15 15 13 12 13 13
8 8 4 5 13 17 21 21 15 16 21 22 23 18 20 25 14 9 7 8 12 11 12 14 17 20 19 12 10 36 38 46 42 37 38 38 36 34 31 28 25 21 17 13 12 14 10 11 13
12 12 7 8 19 28 19 14 19 21 22 22 21 22 26 26 16 14 12 14 13 13 14 13 16 18 15 7 8 10 22 31 36 38 41 38 37 35 32 29 26 22 17 13 9 10 12 10 8
15 16 9 11 18 23 21 20 21 24 24 22 24 26 18 22 14 14 13 16 16 15 15 17 18 18 15 8 9 10 21 34 38 37 36 38 37 35 32 29 26 22 18 15 7 9 8 6 7
20 15 15 17 16 16 18 19 24 27 28 27 27 27 26 10 13 12 12 14 14 14 12 16 18 16 15 13 9 9 33 38 41 42 43 38 36 33 32 29 26 20 18 13 11 7 5 9 9
19 18 19 16 14 16 17 22 26 32 31 31 29 28 16 10 13 13 10 10 9 11 12 16 11 17 14 21 22 17 24 31 35 42 45 40 37 34 32 30 24 20 14 14 11 7 6 8 7
21 22 21 21 16 19 21 26 30 29 33 27 26 20 14 15 13 9 7 6 7 11 15 12 7 19 17 20 20 21 20 30 36 39 36 39 43 33 33 27 22 19 17 18 11 7 6 5 6
23 26 23 18 18 18 19 27 27 27 18 18 21 19 18 12 5 6 6 5 8 11 13 14 14 19 21 28 20 18 19 27 37 40 39 37 34 35 29 26 25 20 19 12 10 7 5 4 5
21 20 21 1 9 21 12 21 16 21 16 16 18 14 11 2 2 5 6 3 6 10 3 19 21 18 26 16 15 25 19 32 40 40 37 38 37 34 30 28 20 25 17 12 10 7 6 3 4
23 23 19 16 10 14 13 18 13 13 15 18 15 9 8 10 10 8 4 4 6 9 4 24 14 18 18 11 14 22 22 36 43 42 40 41 44 42 29 25 25 22 17 13 10 10 7 3 5
19 20 18 11 11 12 18 21 13 12 15 17 18 11 10 11 12 9 5 4 6 11 13 19 19 17 17 15 18 19 33 40 42 41 43 41 37 42 32 27 29 19 18 15 11 13 10 7 8
22 20 21 12 8 15 19 15 12 12 16 18 15 13 6 10 14 9 6 4 5 9 12 18 17 16 18 18 23 28 24 40 45 45 38 38 36 37 31 30 25 23 19 15 14 15 11 10 13
24 24 24 17 12 17 12 15 17 17 18 16 13 12 6 8 10 9 7 5 3 5 8 13 17 19 20 18 19 21 27 35 40 39 42 44 44 43 34 33 27 24 20 15 19 14 13 15 16
28 25 19 17 15 19 16 20 18 17 18 16 17 11 11 7 8 7 6 6 2 3 5 9 16 18 13 11 16 26 27 32 31 27 39 40 43 39 38 34 28 23 19 19 22 17 14 12 17
30 23 19 18 17 21 11 7 15 17 17 18 19 14 12 9 8 6 6 5 4 4 5 6 9 15 16 17 19 24 27 30 30 27 34 32 39 37 37 31 26 19 21 21 15 17 19 21 20
29 16 18 20 26 23 20 12 20 11 18 21 21 17 17 14 10 7 5 8 9 7 5 6 7 9 12 12 13 13 16 19 22 26 30 34 36 36 32 29 25 25 19 24 23 23 22 23 25
17 17 19 22 19 12 20 18 16 18 27 29 26 22 17 19 14 12 10 14 14 12 11 9 8 8 9 10 11 12 14 17 19 20 21 24 27 29 30 28 26 26 28 26 23 23 25 27 27
21 21 4 5 5 9 18 13 22 18 12 17 28 24 21 18 18 12 18 16 16 15 14 13 12 11 11 10 10 10 13 17 18 20 22 25 26 26 26 25 28 29 28 28 30 28 25 24 28
24 27 13 6 3 6 13 7 8 8 8 16 21 23 23 21 17 14 14 15 16 16 18 17 16 15 13 13 11 11 13 15 17 19 21 23 24 24 25 26 25 26 28 32 32 20 26 26 27
31 30 24 31 11 3 11 19 25 24 17 20 18 18 20 16 17 18 15 13 15 15 16 18 19 20 17 15 14 15 15 15 17 18 19 20 25 26 27 28 29 31 28 32 19 22 25 27 28
30 21 16 14 5 4 5 8 16 15 9 11 18 14 15 14 16 20 22 20 15 14 18 19 22 25 24 22 22 21 21 22 23 24 24 28 30 30 31 33 34 32 29 26 20 25 25 27 29
31 37 30 22 22 6 2 7 10 4 4 12 13 15 13 15 15 15 18 19 20 20 22 24 21 21 29 31 30 28 27 27 27 27 29 32 34 33 35 48 38 25 24 27 28 27 27 29 30
30 32 34 21 6 15 18 24 20 9 7 10 14 16 13 13 15 13 11 16 22 26 27 29 29 25 23 23 27 31 31 31 34 31 35 33 33 19 13 1 20 24 31 29 31 29 31 32 29

GFSSGP_700_spd_072.txt.gz
Wind_Speed
10 10 9 5 4 2 3 3 8 16 18 9 4 6 7 7 9 6 10 12 12 11 14 18 19 21 20 21 16 22 19 18 18 23 24 21 20 18 17 16 15 14 12 11 11 12 12 12 11
8 8 7 2 1 5 5 11 15 12 11 6 6 7 11 11 11 12 12 10 13 16 18 16 19 22 20 16 20 16 21 19 21 23 23 22 19 20 19 17 15 14 12 12 12 13 12 11 10
8 6 3 1 2 7 11 15 10 9 6 5 7 9 11 11 15 15 15 14 14 13 13 17 19 23 23 24 28 27 25 18 25 24 19 26 23 21 20 18 16 13 12 12 12 12 11 11 10
6 6 2 3 3 7 14 7 5 8 6 3 7 12 13 16 17 15 16 17 17 18 20 20 25 31 34 33 35 37 29 21 32 30 24 26 24 23 21 19 17 15 14 15 15 14 11 11 10
4 3 3 4 4 10 12 3 5 7 7 10 12 16 16 19 16 14 16 20 23 24 24 25 25 24 25 33 38 41 37 24 32 41 31 34 27 26 24 21 19 17 17 16 16 15 14 12 11
5 5 5 5 3 12 11 7 7 7 7 11 14 18 22 22 20 25 22 19 20 23 26 23 25 29 30 31 32 37 31 30 34 34 29 32 28 26 25 23 21 19 17 17 18 17 15 12 10
4 6 8 6 3 8 9 12 12 10 12 14 17 18 20 19 22 23 20 15 14 16 20 21 22 22 19 30 32 42 32 39 35 42 34 31 30 29 26 25 23 22 20 20 18 15 13 12 11
8 8 7 4 3 8 14 12 10 13 15 18 19 17 19 20 25 25 15 12 10 12 16 18 19 16 13 14 10 29 38 52 47 47 36 36 32 31 29 28 25 22 20 18 14 13 12 11 12
11 12 9 7 7 16 18 19 13 12 19 21 20 19 19 20 21 21 16 12 9 12 14 11 12 16 13 19 22 24 41 48 42 45 42 36 36 36 31 29 25 23 22 18 16 14 13 12 10
14 15 12 7 11 17 17 19 16 18 20 21 22 21 22 24 21 15 18 16 14 13 14 12 13 16 17 17 20 8 34 42 51 45 42 37 41 33 34 30 26 23 22 19 16 13 13 13 9
17 16 13 12 14 17 17 16 18 19 20 22 25 21 21 23 19 12 13 15 15 14 16 17 17 17 14 14 15 10 25 37 43 44 47 46 40 39 34 30 26 22 21 20 19 15 11 9 10
21 17 17 19 18 18 18 19 21 24 24 25 27 19 20 16 10 12 13 15 16 17 20 21 19 17 16 13 14 11 29 32 40 37 40 40 41 36 32 27 23 20 20 19 15 11 8 9 8
23 21 25 24 22 21 21 21 25 28 25 25 26 20 17 13 12 12 14 15 15 13 17 18 15 15 19 19 18 19 24 37 37 41 42 43 41 36 32 26 21 19 20 16 6 10 12 8 7
21 21 26 28 24 24 25 25 29 20 22 22 18 17 16 16 16 12 10 10 11 12 16 16 11 9 18 18 17 20 26 38 39 46 44 46 41 36 36 28 22 20 16 11 6 12 7 5 8
22 25 27 25 24 17 20 26 19 15 16 16 14 14 11 11 7 4 6 8 12 13 13 13 11 12 16 17 19 21 28 29 34 41 47 38 38 43 40 31 25 21 15 11 15 9 5 5 7
17 21 22 6 6 13 14 17 12 12 11 13 14 12 9 6 7 7 6 5 8 11 12 14 16 13 14 21 23 22 27 33 38 45 53 51 48 44 31 25 24 20 14 13 14 8 5 6 6
23 23 20 17 15 12 16 18 14 17 12 12 15 15 11 10 9 10 8 6 8 12 12 17 21 13 21 23 27 23 29 31 34 41 41 45 44 33 33 31 24 19 15 12 13 8 7 7 7
22 22 23 22 16 12 15 18 14 14 13 12 15 16 11 10 14 12 10 6 8 13 14 20 23 13 23 15 16 20 31 32 37 36 38 35 37 39 38 33 25 19 19 17 14 8 9 10 8
19 15 16 12 11 18 16 20 11 11 16 16 16 14 9 9 12 11 9 6 7 11 15 18 23 20 20 16 14 21 21 26 30 37 33 37 42 40 39 32 26 23 18 18 14 11 10 13 13
28 25 26 21 15 19 15 19 17 19 22 17 15 16 10 9 7 8 7 3 4 8 11 5 17 20 18 23 16 21 30 38 38 38 38 37 39 39 40 30 25 23 21 18 14 13 14 16 18
31 32 25 22 17 19 19 23 19 17 17 16 14 15 14 10 8 7 5 3 2 3 5 6 6 11 16 20 16 21 32 28 35 39 40 39 35 30 34 34 26 23 23 21 17 16 18 22 17
30 30 25 22 22 16 16 10 21 19 23 20 15 13 14 10 9 4 4 3 3 2 4 6 6 7 7 6 13 24 25 23 25 31 25 29 27 29 29 27 27 26 27 23 21 20 23 25 20
28 29 19 19 20 22 28 13 23 20 24 23 17 14 16 11 11 6 3 6 7 6 5 7 9 10 10 10 9 11 18 26 25 23 21 31 30 34 37 33 34 30 26 27 29 24 22 20 25
24 13 15 15 18 11 25 21 15 14 18 22 23 23 18 17 14 13 10 10 10 8 8 8 10 11 11 11 13 14 15 16 19 20 22 26 28 32 35 35 35 30 30 22 21 27 26 27 30
20 21 3 2 5 6 7 16 26 24 22 19 9 13 19 22 19 16 14 15 11 9 8 9 9 10 11 12 13 14 14 16 16 16 17 21 24 27 31 35 32 30 30 28 29 33 33 34 34
22 25 9 6 3 3 7 7 6 3 10 12 17 13 16 19 19 17 15 13 14 10 9 10 10 11 10 12 13 15 17 18 20 22 23 24 25 25 25 27 27 30 33 33 32 34 38 37 37
23 22 28 22 12 5 13 17 20 24 18 14 16 13 13 12 16 16 15 12 10 10 10 12 13 14 14 14 14 16 17 18 19 20 22 24 25 27 28 31 32 34 37 38 33 35 38 47 23
31 18 16 14 4 5 4 6 12 14 11 11 11 11 10 12 14 17 18 17 14 12 12 12 14 19 20 19 18 18 18 19 19 21 23 25 23 26 30 32 36 37 38 37 38 35 29 20 26
24 31 24 11 16 5 3 8 10 7 1 3 7 7 7 6 10 12 16 18 19 19 18 17 19 17 19 25 25 24 23 23 23 24 26 27 26 29 32 34 38 40 37 44 45 39 26 22 28
6 21 33 25 9 9 15 21 13 6 7 8 8 10 12 12 11 11 12 10 13 18 20 23 23 24 20 20 20 24 27 28 28 30 29 29 31 33 33 34 27 24 32 43 42 35 34 34 35

GFSSGP_700_spd_075.txt.gz
Wind_Speed
8 8 8 7 4 2 2 4 5 7 7 4 5 5 4 5 8 7 12 10 8 11 16 22 21 22 20 19 19 17 19 18 19 19 21 19 16 16 14 13 12 13 12 9 9 10 11 11 11
7 6 6 3 2 3 3 6 6 6 7 6 7 5 7 9 9 11 14 10 11 13 16 21 27 28 25 22 22 22 23 19 19 19 20 18 18 16 16 15 14 13 11 10 11 11 11 11 10
5 5 5 3 1 2 3 4 5 7 5 2 3 6 9 11 14 17 15 12 14 16 20 24 28 30 30 25 23 26 26 25 20 14 22 18 17 18 17 16 15 15 13 13 14 13 13 11 10
4 6 5 6 1 4 5 1 3 5 5 3 5 9 12 12 15 14 11 15 17 19 23 25 27 30 20 20 26 24 34 33 23 17 24 20 18 19 19 19 17 16 15 15 15 13 11 10 9
5 5 5 7 3 5 6 1 1 2 3 8 9 11 15 19 20 16 19 22 21 21 24 27 24 26 26 20 19 25 31 36 27 24 28 25 23 26 21 20 20 17 16 16 15 13 11 10 9
7 6 6 7 4 4 6 6 3 5 5 9 10 15 18 18 16 16 18 22 20 23 26 27 25 23 23 22 24 29 38 41 24 28 30 30 27 26 24 22 20 19 19 17 14 13 11 11 10
7 7 9 9 6 2 3 4 4 5 7 11 15 18 19 14 14 16 20 22 18 20 21 27 27 22 23 19 23 20 28 42 35 29 33 36 33 27 28 22 22 21 20 18 16 14 13 13 11
8 10 10 10 9 4 7 5 5 5 9 13 18 21 20 17 17 18 22 20 19 14 14 18 22 21 25 23 19 19 18 37 41 46 37 41 38 30 25 26 24 23 21 19 17 16 14 13 12
11 14 13 14 10 8 8 10 9 12 13 15 17 20 21 20 22 23 24 17 16 15 14 15 17 21 26 22 17 20 27 25 28 47 33 37 36 30 28 27 26 25 23 20 18 16 14 12 12
17 16 12 16 13 10 10 11 13 14 15 17 18 19 20 22 22 25 20 13 15 17 16 17 19 21 21 21 20 24 26 33 32 49 48 44 41 32 30 29 27 25 23 21 19 16 14 12 10
20 18 11 17 15 15 13 14 16 17 19 19 20 20 19 21 24 17 13 12 13 15 15 17 19 18 19 21 22 25 23 29 42 45 45 50 48 39 34 31 28 26 24 21 19 17 14 12 7
23 18 17 18 21 20 17 19 20 21 21 24 20 19 16 21 19 14 13 15 16 16 15 16 18 18 20 21 24 21 16 37 56 44 37 42 42 39 36 32 30 24 23 20 17 16 13 8 5
26 21 22 21 24 24 21 23 23 20 23 20 17 15 15 18 18 16 15 14 15 15 16 17 16 17 20 21 20 16 13 44 45 40 39 44 39 36 34 32 29 27 23 19 16 11 6 5 14
23 20 21 23 21 26 25 24 25 16 20 13 13 11 14 14 13 8 7 8 11 13 13 14 15 16 19 22 16 14 16 26 37 39 42 45 37 38 35 31 28 27 25 18 12 9 7 9 13
24 25 24 23 21 25 21 17 14 11 10 8 8 10 12 12 12 9 8 8 9 12 13 13 15 16 19 19 15 18 23 25 41 33 40 44 38 42 35 31 32 29 26 25 14 11 6 10 11
16 21 23 16 12 9 9 15 6 8 12 9 9 9 10 11 10 9 8 5 7 9 11 14 15 11 14 16 17 21 30 37 30 33 37 38 38 34 37 38 31 24 23 22 14 8 10 11 11
24 24 20 17 17 18 15 15 11 13 13 10 11 11 10 10 12 9 10 7 8 10 13 14 16 17 16 11 19 23 32 33 30 40 40 40 40 39 39 35 33 26 24 21 15 11 12 11 11
26 25 24 23 18 19 19 17 14 14 13 8 9 13 9 8 11 10 9 8 8 11 15 13 14 17 15 17 21 24 38 34 34 43 46 45 46 44 40 36 32 31 25 19 16 13 11 10 8
24 20 20 16 10 21 20 19 15 16 13 10 9 12 11 8 11 7 7 6 6 10 14 3 19 17 16 18 24 19 27 34 38 40 50 52 51 50 43 40 35 33 24 16 17 15 13 12 12
27 24 28 26 23 22 22 23 16 17 17 14 12 11 14 12 11 7 6 5 3 7 11 2 20 14 18 18 13 19 26 34 36 40 42 49 47 47 44 43 37 32 24 19 16 15 14 14 12
31 34 31 27 25 24 23 27 19 15 18 16 13 12 13 11 11 9 5 4 2 3 6 6 14 16 18 20 20 20 25 24 35 39 41 36 37 42 42 39 36 30 25 18 18 19 19 17 17
30 31 27 25 23 14 10 12 19 23 24 18 17 13 10 8 11 9 5 5 5 2 2 4 6 6 13 19 26 22 26 27 30 35 37 36 36 42 38 41 39 33 28 22 19 22 21 21 21
25 26 21 19 21 22 18 10 13 5 17 17 12 14 12 9 10 12 7 7 6 6 6 6 7 5 6 10 13 23 21 27 33 36 36 37 34 28 26 35 35 30 27 20 23 25 24 25 26
11 13 6 12 12 8 19 13 19 15 14 18 12 10 19 17 13 12 13 10 9 8 8 8 9 8 5 5 9 11 24 31 32 28 28 24 27 27 27 28 30 29 24 25 23 26 27 27 31
22 11 4 3 5 8 10 13 23 20 20 13 8 5 10 18 15 15 16 14 9 8 9 11 11 10 9 7 8 10 14 19 24 24 24 24 25 31 30 26 25 25 28 31 28 33 27 30 34
27 28 9 7 5 3 7 7 7 2 6 17 17 14 12 15 14 13 15 15 11 9 10 10 12 12 11 11 9 10 11 12 15 17 19 21 22 23 25 28 32 34 33 32 34 37 33 36 39
18 23 27 12 5 3 6 10 11 19 14 13 11 10 10 11 14 17 17 16 12 11 10 9 10 12 13 14 14 12 13 14 15 17 20 21 23 24 28 31 31 33 37 39 40 40 40 40 41
26 17 13 15 6 9 6 7 11 9 18 6 10 7 9 10 12 15 18 17 14 13 12 12 12 13 15 16 16 16 16 16 17 18 18 20 22 25 28 30 32 35 38 40 42 43 42 43 43
27 24 16 13 17 6 5 6 8 6 4 1 7 3 3 5 12 14 18 18 17 17 17 16 15 17 16 19 19 19 19 19 21 22 22 23 25 27 29 29 32 37 40 42 45 46 46 46 45
19 22 30 20 8 8 10 13 10 12 6 7 7 9 5 7 10 12 15 18 19 21 22 22 22 22 19 18 16 18 21 24 23 21 22 23 28 30 31 34 37 38 41 44 39 39 45 51 51

GFSSGP_700_spd_078.txt.gz
Wind_Speed
9 7 6 6 2 4 6 6 5 4 4 8 8 7 5 5 5 9 12 14 10 6 11 15 19 22 20 20 20 18 15 14 14 14 14 19 15 11 7 9 9 15 15 10 10 12 12 11 11
7 6 6 4 5 9 7 6 3 5 7 8 9 6 5 7 9 11 16 14 12 11 14 24 24 26 26 26 23 22 20 19 18 15 15 19 17 14 10 11 12 17 17 13 12 11 11 11 12
6 5 3 3 6 8 3 4 3 1 0 0 2 3 7 9 11 15 13 12 12 12 17 24 29 33 29 24 25 27 25 26 23 19 17 20 18 16 8 12 15 18 17 14 11 11 11 12 12
4 5 5 5 7 6 6 5 4 3 2 2 1 5 6 10 16 19 14 14 15 17 19 23 30 30 35 27 37 31 27 26 27 25 18 18 16 18 10 11 17 18 17 13 13 12 12 12 11
5 5 6 9 9 7 4 4 7 4 4 3 4 7 10 15 16 17 15 15 17 19 21 21 23 27 31 27 27 23 24 23 26 27 21 19 18 15 9 10 18 19 16 14 13 14 13 12 11
6 6 7 11 11 8 4 3 9 7 7 7 8 11 14 16 16 16 17 18 19 20 20 23 21 29 31 40 19 20 21 22 22 29 26 22 20 16 14 12 17 19 18 16 16 16 14 12 11
8 8 11 10 12 10 7 5 2 6 8 9 13 15 17 17 17 18 19 21 20 19 17 21 22 27 25 21 17 18 23 26 28 29 25 26 25 22 17 15 17 21 18 18 18 15 14 13 11
11 9 11 11 15 13 9 6 8 8 10 12 13 14 16 20 22 22 22 24 21 21 13 17 19 27 29 17 21 22 27 33 37 39 39 30 29 25 27 20 23 22 21 19 18 16 15 13 12
13 11 13 13 17 15 11 10 10 11 12 14 16 16 19 20 22 23 23 25 26 22 15 13 13 16 18 26 25 28 30 34 34 41 32 38 36 30 24 27 25 25 23 21 19 17 16 14 14
16 14 13 12 15 14 12 15 14 14 15 17 17 20 19 19 19 21 23 20 15 17 17 15 19 21 24 21 30 31 33 29 27 33 33 37 40 33 32 33 28 26 26 23 20 18 15 13 12
18 20 13 14 15 16 15 16 16 16 17 13 18 24 18 14 16 21 19 15 14 14 18 20 21 21 21 26 28 32 29 27 28 40 45 61 44 36 33 34 31 29 27 24 22 19 16 14 12
21 18 18 13 15 22 18 16 21 19 20 19 22 17 15 13 17 19 18 16 16 16 15 18 20 21 21 24 25 30 27 30 35 33 46 52 50 39 38 36 32 30 27 23 22 19 16 12 10
24 18 16 19 21 23 23 24 22 19 22 20 19 13 11 12 14 15 14 16 16 15 13 12 15 20 22 23 25 27 28 28 30 42 57 42 40 41 37 38 32 29 27 25 22 18 15 9 8
14 18 19 19 21 21 24 20 24 10 18 15 11 10 9 11 12 13 11 10 10 9 9 10 12 15 19 21 25 26 21 22 24 58 53 47 49 48 36 39 32 30 28 25 21 16 12 11 10
23 22 19 21 21 20 19 22 22 10 9 10 9 9 8 9 10 11 10 11 10 9 10 10 13 16 21 24 23 20 12 12 35 49 42 33 49 40 37 39 32 31 26 27 22 18 14 7 10
16 17 18 15 13 19 16 14 10 11 12 13 12 11 11 8 10 9 10 9 10 11 12 13 14 16 19 19 17 16 17 24 18 31 33 34 39 34 37 32 32 33 32 23 19 15 11 15 15
20 21 15 14 12 12 16 12 12 13 15 16 15 13 11 11 10 12 11 10 10 11 13 18 19 16 16 13 17 21 19 25 26 34 31 38 41 44 42 47 45 40 30 25 21 17 17 14 13
25 20 17 16 10 14 19 22 18 16 17 17 15 13 13 13 11 12 12 12 11 12 15 19 19 17 16 18 12 19 23 28 30 32 27 32 45 51 46 44 36 32 29 31 28 22 17 15 14
22 18 19 13 11 13 17 22 21 19 21 19 18 14 13 14 15 12 12 13 12 10 13 18 5 13 12 17 15 17 23 30 28 24 27 35 38 35 40 44 41 30 28 28 31 25 18 15 14
26 23 24 18 13 17 19 22 20 19 21 19 18 18 13 14 17 12 11 14 11 8 10 10 9 12 13 13 17 19 27 31 29 24 30 28 33 37 40 35 36 34 32 36 29 24 19 16 17
27 27 24 20 12 16 20 26 23 21 21 21 23 19 17 14 15 12 10 12 9 6 5 2 8 10 16 13 19 22 28 32 33 31 33 39 41 41 41 42 43 41 38 33 27 24 22 18 18
29 24 23 22 17 14 6 13 10 14 19 20 19 21 19 14 14 12 10 10 10 7 3 1 5 9 13 14 20 18 25 35 32 33 32 34 44 45 47 35 36 37 39 33 27 21 19 19 18
27 20 18 16 19 19 21 13 12 12 13 11 13 15 18 15 13 12 12 11 11 8 6 4 5 7 8 12 16 20 24 26 33 34 37 34 33 37 48 44 41 40 36 34 29 27 26 21 20
8 11 9 8 9 13 22 17 17 17 15 8 9 12 14 21 16 16 17 13 10 10 8 7 6 6 6 7 12 21 25 25 32 35 41 34 34 35 37 40 45 45 42 39 32 29 24 23 26
19 16 8 9 8 9 6 14 20 11 13 11 10 10 10 18 24 19 17 12 11 10 10 10 8 7 7 7 7 7 19 28 27 32 33 39 36 33 29 28 31 40 42 39 35 30 27 24 27
26 23 9 7 8 6 7 9 9 6 8 7 12 15 16 14 23 22 21 17 14 13 14 13 11 10 8 7 6 6 7 13 23 28 29 27 30 27 26 28 26 32 34 37 36 33 31 28 32
18 26 24 23 14 8 10 6 10 9 9 8 8 7 12 13 20 21 21 21 18 17 15 14 14 14 12 10 9 7 7 9 11 17 23 22 22 22 26 28 27 32 33 34 36 35 34 37 37
21 16 13 17 8 14 10 15 11 4 11 7 4 0 7 11 15 18 22 25 21 19 19 18 17 17 15 15 13 12 11 10 11 12 13 14 15 18 21 22 25 28 30 33 35 37 39 41 40
28 24 18 18 24 12 10 8 7 9 7 9 4 5 4 4 11 15 18 25 25 22 21 21 20 19 19 19 18 18 16 16 17 17 16 17 19 21 24 26 27 29 30 33 36 38 41 43 44
21 25 25 19 15 16 17 18 4 8 5 7 6 9 4 7 5 12 17 20 21 22 22 21 21 20 19 18 19 22 22 23 23 22 20 21 22 24 25 28 30 32 34 36 39 39 40 45 50

GFSSGP_700_spd_084.txt.gz
Wind_Speed
10 7 6 4 7 11 18 18 8 2 5 5 6 5 10 8 10 6 7 10 12 16 12 10 11 13 16 19 18 17 19 20 17 14 12 13 11 9 6 4 6 8 10 12 10 10 9 11 14
8 7 4 1 15 19 20 4 3 2 5 9 12 7 6 4 4 6 19 19 17 17 13 7 10 10 16 23 23 21 21 22 19 15 14 15 13 11 8 5 5 10 12 12 11 10 11 13 15
7 5 4 9 18 22 22 3 2 3 7 6 6 6 7 6 8 13 13 16 19 18 16 14 13 15 19 29 27 25 24 25 22 21 19 17 17 13 10 6 6 12 13 11 9 11 12 13 14
6 4 8 12 17 21 11 7 3 7 6 5 5 8 6 17 21 21 19 18 18 15 16 15 15 19 22 28 32 28 27 28 27 25 22 19 16 14 12 8 8 13 14 12 7 10 12 13 13
8 7 16 21 23 21 10 8 7 8 7 5 6 8 9 16 17 19 18 14 14 14 17 16 17 20 22 24 30 33 33 27 34 34 29 21 19 15 14 10 9 14 16 14 10 12 13 14 15
10 8 16 21 23 15 8 8 5 9 10 8 10 9 12 18 23 21 20 19 17 19 20 22 19 19 24 24 27 34 35 49 26 31 24 24 21 18 15 17 11 14 16 15 13 13 14 16 16
16 15 22 22 23 20 11 12 6 7 11 9 8 9 12 20 22 19 21 24 24 23 25 25 22 22 22 26 25 32 32 28 28 32 44 29 25 22 17 18 18 16 18 16 15 15 16 16 17
16 15 21 22 23 23 15 12 10 11 11 15 14 13 12 17 20 25 27 26 24 24 25 27 26 23 21 22 21 24 26 26 31 23 32 28 24 28 22 22 18 21 18 16 16 17 17 17 16
17 21 25 22 21 21 14 15 9 11 12 14 13 15 12 26 25 28 27 23 23 23 24 23 21 17 18 19 16 16 12 8 6 17 22 21 16 19 21 19 23 23 19 18 18 19 18 18 18
24 28 26 20 20 14 11 10 9 12 13 15 17 18 18 18 25 25 28 31 23 22 23 19 16 16 15 17 11 12 11 12 12 17 27 30 20 13 21 22 22 20 21 19 20 20 19 19 20
26 33 24 23 22 14 17 17 15 14 17 14 13 7 11 19 26 25 23 29 23 19 20 18 15 15 18 16 14 13 10 15 16 12 13 22 23 21 19 24 31 26 23 23 23 22 21 20 18
28 29 27 24 22 19 18 18 20 19 19 17 18 19 23 18 25 23 19 23 24 18 16 18 17 16 18 18 16 17 16 13 16 18 19 23 24 23 21 26 28 30 26 25 24 24 22 20 19
30 28 27 28 25 23 21 22 21 23 22 22 20 22 22 21 22 19 18 23 19 16 13 12 15 17 17 19 22 19 17 18 18 22 22 24 23 26 31 27 27 37 30 24 26 25 24 22 21
26 26 30 28 27 25 25 25 24 27 21 19 20 26 21 17 17 15 19 19 19 17 11 9 9 11 14 17 19 21 22 21 21 23 27 28 31 29 35 44 37 33 30 28 27 27 25 23 22
28 32 28 28 26 26 25 30 29 26 22 22 21 23 16 16 17 17 19 18 16 18 16 10 10 11 14 16 18 20 23 27 29 28 30 32 32 33 26 35 40 34 31 31 30 28 26 25 23
27 25 31 31 28 28 24 35 24 22 22 22 23 20 18 15 18 17 19 18 18 18 19 13 14 15 19 20 21 22 23 24 26 29 30 32 34 31 29 33 37 33 37 36 32 28 28 26 23
27 29 27 26 25 27 30 33 24 19 15 21 18 17 18 18 19 17 20 16 19 18 18 17 16 19 23 26 26 26 24 24 24 29 29 28 28 41 44 43 34 31 37 39 34 32 30 26 24
29 26 27 28 24 26 24 26 21 13 19 19 18 18 19 19 19 21 20 17 17 19 18 18 17 22 24 22 18 13 16 16 15 20 21 28 23 40 47 39 42 42 40 36 33 34 32 29 25
29 22 25 27 24 23 27 22 22 21 22 24 19 17 19 20 20 21 25 19 18 19 18 15 18 20 14 3 6 8 7 8 4 7 19 29 37 46 42 40 40 45 45 37 35 36 31 30 23
31 31 34 31 26 15 19 22 22 22 25 25 26 24 20 21 19 23 28 20 17 18 16 12 16 15 10 6 8 7 8 12 8 20 21 14 20 23 34 28 49 45 42 43 44 42 32 24 29
33 34 33 33 28 23 20 25 26 26 27 27 25 25 22 19 22 26 29 18 16 15 14 12 12 13 9 6 7 8 11 15 16 19 19 17 20 16 17 30 48 45 41 40 40 34 33 26 27
38 33 30 28 27 26 23 19 26 25 30 30 24 26 23 22 18 23 28 19 17 14 13 12 11 10 10 8 3 7 8 8 12 13 17 16 8 5 9 30 42 47 44 39 41 34 34 33 28
37 30 23 25 29 32 29 22 27 17 19 15 18 19 23 22 23 23 28 20 19 15 13 13 10 7 8 6 5 6 8 9 9 12 22 15 11 9 16 22 38 42 42 42 40 35 36 32 27
25 27 23 24 29 26 28 26 27 30 25 17 15 17 19 20 23 23 28 23 20 16 13 13 11 7 7 5 4 4 6 9 11 15 17 15 14 14 15 21 29 36 38 38 38 37 32 29 31
22 20 5 7 13 14 23 24 31 19 25 14 14 15 15 16 22 23 31 26 21 16 13 13 12 9 8 5 5 2 4 6 9 12 16 16 11 14 12 14 26 32 31 35 39 37 34 35 39
22 29 11 6 4 11 29 16 28 17 15 12 12 13 14 15 22 22 26 25 21 17 14 14 14 12 10 7 6 3 1 4 4 9 15 16 19 13 14 15 14 30 39 42 43 39 33 33 38
18 26 36 19 15 9 10 32 9 12 17 12 10 10 12 15 18 17 23 29 23 20 16 15 15 15 13 11 9 7 3 1 3 5 9 14 17 18 16 20 18 18 28 40 41 38 39 33 38
19 12 14 8 4 4 9 21 12 16 15 12 8 5 7 9 15 19 19 28 26 22 21 19 18 18 16 14 12 10 8 5 4 6 8 12 12 17 18 18 21 21 25 25 36 41 38 34 41
27 20 9 7 9 1 3 6 3 12 5 12 10 4 2 2 9 12 17 25 24 23 24 23 21 21 21 18 17 14 13 11 9 7 7 9 15 17 18 20 23 25 26 30 35 35 39 43 44
27 25 22 6 5 12 5 7 3 16 5 8 16 8 5 2 2 7 13 18 22 23 24 25 23 23 22 20 19 18 17 16 15 14 12 12 13 15 17 19 23 24 27 27 30 32 32 34 36

GFSSGP_700_spd_087.txt.gz
Wind_Speed
5 5 5 6 5 8 15 15 11 2 5 5 9 9 8 9 10 11 6 8 10 13 13 12 9 9 13 17 20 19 16 16 17 17 13 13 14 12 10 8 10 13 13 12 12 11 11 12 13
5 7 6 5 7 13 14 3 3 1 2 5 10 9 3 7 8 12 13 17 21 22 19 16 12 10 13 17 23 20 19 18 19 19 15 16 16 15 12 10 11 14 13 13 13 13 13 14 16
7 9 11 4 9 19 7 3 5 7 8 13 16 4 4 13 10 9 14 20 24 24 22 19 15 15 16 17 23 27 22 20 21 21 18 19 19 17 14 12 11 16 16 12 12 13 14 15 16
10 10 8 14 15 14 16 8 11 10 10 13 3 5 8 16 19 22 22 22 25 23 18 15 15 17 16 20 22 28 29 23 26 28 23 22 24 23 16 13 13 17 17 12 10 13 14 15 15
14 14 13 15 19 11 12 22 16 10 4 8 6 7 13 14 13 15 17 22 21 19 17 17 17 17 16 18 24 26 30 32 33 31 32 29 31 29 20 19 15 20 18 14 11 12 14 16 16
19 13 13 21 18 18 24 26 24 14 9 3 13 14 16 18 16 20 20 22 22 23 22 22 22 21 21 21 20 23 27 26 34 39 44 21 28 23 19 19 19 22 22 17 14 14 15 15 16
22 15 19 22 25 27 18 22 19 12 4 10 9 12 13 17 17 22 20 19 27 27 24 24 24 22 23 25 23 25 24 30 33 39 39 48 20 25 22 24 24 21 22 20 15 17 16 15 14
22 17 22 25 24 22 15 18 16 13 11 18 17 16 20 23 26 24 24 26 26 26 26 26 23 23 24 25 23 21 25 29 31 35 34 27 29 30 25 21 24 25 22 20 17 17 18 17 16
17 23 28 28 21 13 4 14 12 9 8 14 15 16 18 24 18 18 19 22 23 24 26 26 24 18 18 19 17 19 23 23 17 16 28 36 29 33 30 24 20 24 25 20 19 20 19 18 18
26 32 35 24 21 24 18 15 14 10 11 13 12 17 23 21 20 21 22 26 21 18 21 23 20 17 13 12 15 18 14 16 9 3 6 25 41 27 27 19 21 21 23 23 21 21 22 20 20
28 38 30 28 24 26 19 19 14 17 15 17 13 14 13 18 19 24 29 27 23 20 19 21 17 15 11 12 15 16 13 14 11 9 10 27 25 21 12 18 29 26 27 24 25 25 23 22 24
29 28 27 27 25 23 25 20 24 18 15 16 11 18 20 23 30 33 29 29 22 18 17 18 15 14 12 11 14 15 16 11 15 12 10 8 9 17 13 15 26 28 28 29 26 26 25 25 24
28 28 30 31 32 31 30 23 28 28 22 27 25 20 23 25 26 25 27 28 18 16 15 14 13 8 11 11 13 15 15 15 14 16 16 16 18 20 19 14 13 22 28 27 27 27 27 28 25
27 28 32 33 32 31 29 31 25 31 28 26 28 30 30 28 26 25 30 24 18 15 15 12 11 8 7 8 10 12 15 18 17 18 17 18 21 21 22 21 17 21 36 29 29 29 29 28 25
28 34 36 38 35 32 31 37 39 28 27 27 27 22 27 29 21 23 25 24 19 16 16 12 11 10 10 12 12 13 15 18 21 21 21 21 20 26 26 22 22 21 29 35 32 32 32 30 27
28 32 39 36 36 32 23 39 34 31 30 30 25 21 26 30 24 21 26 24 24 16 16 13 13 14 14 15 17 18 20 22 23 26 26 26 26 27 27 26 20 30 38 42 33 32 31 29 28
28 28 30 34 31 33 31 40 33 23 23 26 30 26 28 27 21 21 26 25 23 16 14 14 14 16 18 22 22 22 23 25 25 27 30 32 32 31 29 32 21 37 39 43 37 35 33 31 31
26 28 28 31 28 26 31 37 34 35 29 32 26 32 25 22 26 23 22 23 23 17 16 15 14 15 17 20 18 13 14 19 26 25 29 31 32 34 32 39 36 40 35 40 40 39 37 33 31
22 24 30 30 27 28 30 35 34 26 19 23 25 23 21 24 26 27 24 24 18 19 16 16 14 14 15 14 11 6 5 8 13 18 21 21 25 29 35 46 48 34 31 42 41 39 37 35 31
25 31 39 37 32 25 28 29 28 28 27 26 27 28 26 22 26 29 28 26 18 17 16 15 13 14 12 10 9 8 8 8 13 15 16 17 19 29 29 42 44 43 39 41 40 37 38 38 33
36 36 35 36 39 34 32 30 29 27 28 28 27 27 26 24 25 32 32 26 21 17 15 15 12 14 10 8 6 7 3 4 9 11 16 7 4 21 43 43 40 34 43 42 42 40 41 37 35
37 29 26 31 21 21 22 22 30 27 29 30 30 33 31 28 28 28 32 27 22 18 16 15 13 12 9 6 4 3 5 5 7 9 8 9 7 17 21 24 36 26 42 48 44 41 37 33 36
39 30 25 23 22 25 40 25 30 26 32 31 25 31 31 32 30 28 27 25 24 20 17 15 14 11 8 4 3 4 4 8 7 15 18 16 13 16 16 22 29 33 43 45 48 47 42 42 32
31 30 23 22 19 13 41 20 20 33 33 26 20 19 29 26 33 31 31 26 28 23 18 15 13 11 7 4 2 2 3 4 5 16 24 21 14 11 11 19 24 27 45 44 42 33 34 37 34
18 14 7 8 7 8 8 23 32 19 27 28 20 27 27 21 29 30 32 31 30 21 16 14 13 10 7 5 3 1 2 1 4 12 17 21 17 14 11 10 12 20 26 34 37 37 39 39 36
14 25 5 4 3 3 16 12 23 29 15 19 13 14 20 19 24 27 29 26 25 22 18 14 13 10 9 6 4 2 2 3 1 7 20 18 13 10 9 10 12 19 25 31 36 40 43 39 38
13 17 25 10 9 3 8 10 30 11 19 17 20 15 15 14 18 24 25 21 22 22 18 13 13 12 11 9 7 3 1 2 2 2 10 17 19 18 14 16 16 17 29 34 39 40 42 40 41
24 4 13 7 3 4 8 13 3 10 11 19 15 15 15 11 14 20 19 21 15 12 18 17 16 13 13 12 11 7 5 3 2 1 2 7 12 18 19 18 22 18 19 29 34 36 38 38 39
15 18 9 9 6 2 3 5 6 12 8 11 16 15 14 17 14 8 22 17 15 17 16 18 19 17 15 15 14 12 9 7 6 5 5 5 8 8 11 16 21 23 23 22 29 27 33 42 35
18 21 21 6 7 7 1 5 4 12 10 9 17 15 12 9 7 5 10 13 17 14 14 15 19 22 19 16 16 15 14 12 11 9 8 10 11 13 13 14 16 17 21 26 29 31 32 38 45

GFSSGP_700_spd_090.txt.gz
Wind_Speed
10 8 7 8 7 8 11 7 5 3 12 12 9 9 13 11 14 13 12 7 4 10 15 14 10 8 12 15 17 21 19 17 17 18 18 17 17 16 15 13 14 16 16 16 17 17 16 16 16
10 8 8 10 9 10 8 7 9 8 15 10 8 11 14 16 16 16 12 13 13 19 22 22 19 15 12 16 19 22 24 18 19 19 21 19 18 20 18 16 15 17 18 18 18 17 17 17 17
12 11 11 8 15 19 5 9 5 9 7 9 13 15 13 11 10 12 14 15 19 23 24 23 22 19 15 16 20 23 25 23 20 20 24 21 21 21 19 18 16 17 20 19 18 18 18 17 18
14 14 12 17 21 16 15 3 7 11 14 15 14 7 11 10 11 14 17 20 21 20 19 17 17 15 16 16 20 22 25 29 26 25 26 25 25 22 22 19 16 20 20 18 17 18 18 18 17
15 17 18 20 21 13 11 12 16 18 22 13 16 9 7 14 10 12 17 20 21 20 19 21 20 17 17 17 19 22 27 29 32 31 28 32 30 28 23 21 20 23 21 18 18 18 17 18 18
20 21 16 22 22 20 16 11 14 26 21 13 11 12 10 14 18 15 18 21 20 18 22 22 21 21 22 22 23 21 24 27 28 31 30 36 31 36 21 23 23 25 24 20 19 18 17 17 16
24 25 24 23 26 22 13 13 17 26 22 17 11 15 14 13 13 16 18 20 20 22 23 23 21 21 22 24 25 25 25 25 27 29 31 33 38 28 27 23 30 26 22 22 18 18 18 18 17
25 28 28 28 28 25 6 6 12 27 17 14 18 19 17 16 18 20 19 19 17 19 23 24 24 23 23 24 25 26 26 26 27 28 32 34 36 32 37 27 25 27 31 22 19 19 19 19 18
26 30 33 34 28 17 10 2 13 19 15 16 19 20 15 16 20 20 18 19 19 20 22 23 23 21 22 21 23 23 24 24 26 29 31 35 35 37 36 34 31 33 29 25 21 20 19 21 19
33 40 39 32 26 25 19 14 13 18 17 17 17 16 17 17 21 21 19 22 24 26 19 20 19 18 16 18 18 19 19 20 24 22 22 19 35 36 40 33 29 36 34 31 24 22 23 21 20
35 45 36 30 27 26 24 18 16 17 20 19 22 22 18 21 17 18 20 24 29 20 17 17 16 16 12 16 17 16 16 18 20 20 21 26 23 29 35 33 30 34 34 32 30 26 26 25 21
38 38 36 31 28 26 26 22 24 23 20 21 15 17 22 19 16 18 23 27 23 17 16 15 15 15 10 14 16 17 18 17 17 17 14 7 32 30 31 27 22 26 33 33 27 24 26 25 22
38 34 32 29 26 23 21 28 27 30 22 23 23 21 23 22 22 22 28 27 18 16 16 14 13 12 7 13 16 17 18 18 18 15 15 11 12 20 16 12 7 24 30 30 29 28 27 27 24
33 31 29 25 27 27 30 32 32 33 26 24 27 29 29 31 30 30 30 30 18 16 15 15 13 12 8 6 11 16 18 18 19 18 17 16 16 19 22 14 11 15 32 32 31 29 28 30 28
31 34 33 33 30 32 30 40 39 34 31 32 30 26 29 30 28 30 30 26 20 18 14 15 13 13 11 9 10 13 16 19 22 22 20 20 21 20 24 15 15 17 17 31 31 31 32 34 30
28 32 35 36 32 31 27 45 38 30 32 37 33 27 26 25 31 30 29 29 23 15 14 14 14 15 15 14 13 15 19 20 22 24 25 24 23 22 27 21 23 16 25 25 35 35 36 35 32
29 32 35 36 31 26 29 38 42 33 32 35 34 29 29 31 30 33 31 17 14 13 12 14 15 16 16 16 16 17 22 25 25 25 27 26 25 24 21 33 22 28 31 27 40 38 35 35 34
28 32 31 29 24 24 26 33 34 35 36 39 33 28 29 30 36 29 28 23 18 12 13 14 16 17 16 17 16 14 15 22 27 28 30 31 31 35 32 34 28 27 33 32 42 41 38 35 34
32 27 27 30 28 26 20 27 35 35 28 34 34 31 33 30 25 29 30 27 22 15 12 13 16 16 16 16 14 12 10 11 19 27 30 34 33 32 38 30 39 32 28 43 44 41 38 39 38
31 28 34 33 29 22 29 37 36 38 32 26 24 24 24 22 25 28 30 30 25 18 12 14 15 15 16 14 12 11 8 7 10 15 23 29 33 38 41 36 39 41 34 47 49 43 42 38 39
30 37 32 26 27 37 34 50 44 39 28 24 25 29 26 30 30 30 31 30 27 21 12 14 14 14 14 13 11 8 4 4 10 10 12 19 23 31 36 40 38 49 37 44 36 45 43 44 41
32 32 33 27 25 15 12 18 40 43 30 28 25 33 35 27 31 36 34 31 25 21 13 15 15 15 13 12 10 8 5 4 8 13 20 21 24 22 29 30 28 52 43 45 36 43 43 42 39
32 26 19 19 20 18 30 16 49 40 39 32 28 34 37 37 32 35 37 28 23 19 15 14 15 15 13 11 10 8 7 6 6 15 21 18 21 15 16 31 43 40 31 32 40 37 40 38 41
20 19 17 18 18 14 25 21 30 45 40 33 33 32 29 28 35 40 33 27 23 21 18 16 16 14 12 9 8 7 7 5 4 9 17 18 14 14 17 26 27 31 25 39 40 42 39 36 34
12 12 5 7 8 11 6 21 35 34 40 30 29 26 27 28 22 37 36 30 25 24 21 16 15 13 11 8 7 6 6 5 5 6 13 21 17 17 16 13 16 21 24 29 32 39 42 41 39
13 21 5 6 4 3 18 10 15 21 34 27 27 27 27 29 30 36 33 27 24 25 21 14 16 14 10 8 7 4 4 4 4 4 12 24 22 18 14 14 17 25 34 37 36 42 36 44 45
7 21 22 7 4 1 7 8 13 14 11 27 30 19 19 24 32 34 28 23 24 21 16 17 18 15 10 9 8 5 2 2 2 1 10 20 23 18 16 17 17 20 25 29 40 41 38 38 37
19 9 5 6 3 3 6 6 4 9 5 2 8 19 22 20 25 27 22 23 22 11 11 14 18 16 13 10 11 8 6 3 1 2 2 9 15 22 22 20 19 17 17 24 33 38 38 40 43
10 20 16 6 5 1 3 2 4 18 14 18 15 13 15 19 20 19 18 20 13 10 11 10 17 18 16 13 11 11 9 7 5 2 2 4 9 13 15 18 23 22 20 20 24 30 37 41 41
16 23 16 7 4 7 1 5 9 21 13 15 22 19 14 18 21 19 16 17 15 10 8 8 11 15 19 19 15 13 13 12 9 8 6 6 5 7 9 11 14 19 24 25 27 30 30 33 37

GFSSGP_700_spd_093.txt.gz
Wind_Speed
11 11 12 12 9 8 10 3 10 10 11 9 9 10 11 17 19 12 12 8 5 6 10 12 16 13 10 13 14 15 17 20 20 20 19 17 16 15 15 15 15 16 15 16 16 17 18 18 17
13 14 13 13 11 11 8 4 7 10 10 10 12 11 14 19 19 17 13 9 9 11 16 20 18 16 14 14 17 17 20 21 20 20 21 20 19 17 15 15 16 17 18 19 19 19 19 19 19
17 15 14 11 17 21 3 2 4 3 9 10 13 14 18 17 12 9 9 12 14 17 19 14 12 12 13 15 17 19 21 24 23 25 22 23 22 20 19 16 16 18 19 20 21 21 21 21 20
19 17 17 20 24 15 11 6 1 8 11 13 15 13 17 16 13 12 12 14 17 18 14 13 15 13 13 14 15 18 22 25 27 24 24 26 26 25 24 20 17 18 20 21 21 22 22 22 20
21 21 22 23 25 20 17 16 11 12 18 14 18 21 16 14 13 14 13 16 18 17 15 17 17 16 15 16 17 18 21 25 29 27 29 28 32 30 30 28 25 18 23 21 22 24 24 20 19
23 25 18 27 24 19 17 13 13 13 21 18 21 23 17 16 12 12 15 16 15 15 17 18 19 18 17 18 21 21 22 23 27 30 31 31 31 35 36 34 34 22 24 23 23 22 21 19 17
27 29 29 27 27 22 16 11 13 17 17 19 24 19 17 22 19 15 16 15 14 13 15 18 19 18 19 21 22 24 25 25 26 28 30 34 35 34 25 22 27 25 27 25 24 22 21 17 17
30 30 32 29 31 27 17 10 12 6 12 18 16 19 20 18 18 16 17 15 15 14 17 23 22 20 21 22 23 24 25 26 26 27 27 29 35 39 38 26 33 32 29 27 24 23 21 21 18
31 35 39 33 34 26 8 15 12 12 13 16 20 22 20 18 17 17 18 19 21 19 20 22 22 22 20 22 25 25 26 28 28 28 28 30 31 31 34 30 26 37 34 30 24 23 21 21 19
36 44 45 35 33 26 18 16 8 13 13 14 22 21 20 20 19 18 19 22 21 20 20 19 20 20 18 20 22 25 25 26 26 25 26 30 32 28 33 32 30 39 30 30 27 24 24 23 21
39 48 41 34 31 29 27 29 23 18 14 9 16 24 23 22 21 19 18 21 19 20 21 18 19 17 17 16 18 22 20 21 21 22 23 24 28 35 29 33 31 35 32 29 29 27 26 24 22
41 44 39 34 30 32 31 29 33 25 16 11 12 20 24 23 22 22 16 18 18 21 20 17 19 16 15 13 15 18 18 19 19 19 20 26 31 39 32 44 40 39 32 37 35 32 30 26 23
43 42 38 34 31 32 31 34 33 33 22 18 18 23 27 25 23 19 18 22 23 22 20 17 19 16 14 12 14 18 17 18 19 19 20 23 9 18 26 30 42 42 38 36 32 31 30 26 23
40 39 37 36 33 32 31 35 31 35 29 25 22 24 25 26 26 25 26 29 22 22 18 16 19 16 14 13 12 16 19 19 21 20 20 17 8 13 26 31 27 34 34 32 32 31 29 25 25
34 40 35 34 28 31 30 46 41 33 34 32 26 27 28 28 24 25 25 25 23 23 21 16 17 16 16 14 15 16 16 18 20 21 22 18 14 4 12 20 11 17 32 32 32 30 29 26 27
27 35 35 32 32 29 28 59 36 32 34 35 30 30 31 31 30 26 26 26 25 20 13 15 15 16 17 16 18 18 19 20 21 23 23 21 20 18 21 19 17 14 28 32 31 31 30 30 29
28 31 30 30 31 25 34 50 38 34 30 33 34 33 32 33 36 29 29 27 27 17 12 12 14 16 17 17 17 19 22 24 24 25 25 26 24 24 27 30 19 22 18 27 31 33 33 33 31
27 28 30 31 27 31 37 46 43 41 39 37 36 34 36 34 35 32 31 32 25 21 18 13 14 16 17 17 17 19 21 21 24 26 27 30 27 27 28 29 23 28 22 26 21 34 36 34 30
30 31 29 29 26 32 37 42 47 42 47 44 39 39 34 31 31 28 33 31 28 24 25 13 13 15 16 17 18 19 18 18 17 21 29 26 32 31 35 28 29 34 21 31 29 33 39 38 36
30 31 35 36 34 31 35 46 47 44 47 41 43 36 31 32 31 31 31 27 29 19 25 16 13 13 15 16 17 16 16 14 14 15 24 32 33 32 35 38 29 32 32 35 39 38 41 40 38
28 29 33 36 34 34 36 47 46 50 47 43 44 37 31 26 23 24 25 26 27 19 21 16 13 13 15 15 16 15 13 12 13 13 12 24 34 37 36 41 33 39 34 42 40 38 43 44 44
26 27 26 26 24 20 21 25 48 51 51 47 49 39 28 29 25 26 27 29 27 20 21 20 14 13 14 15 15 14 12 11 13 13 14 19 25 33 35 42 40 39 31 32 40 40 45 43 43
27 25 25 26 25 21 21 13 55 19 34 38 45 40 27 24 26 26 26 30 31 27 22 22 14 13 14 13 13 12 12 10 12 14 14 16 24 27 33 35 41 37 44 38 52 44 48 50 43
19 20 17 19 17 12 25 22 35 26 32 36 32 42 29 25 23 25 27 30 30 32 26 25 17 13 14 12 12 11 11 9 9 12 17 20 21 22 25 25 30 29 35 45 46 44 44 41 52
18 10 3 5 6 6 9 22 36 24 20 27 26 32 32 28 29 32 31 35 37 29 27 24 18 13 14 12 10 9 10 9 8 9 15 21 21 22 22 27 30 18 27 42 45 39 35 41 40
7 14 6 4 3 3 16 10 9 18 23 22 18 30 31 33 29 34 33 29 32 26 24 24 16 14 15 12 11 8 7 8 6 6 9 19 21 15 14 9 16 20 20 28 28 28 30 32 35
5 12 17 11 14 4 8 11 16 17 11 16 21 37 34 30 25 30 27 28 28 22 19 19 16 14 16 13 12 9 7 7 6 4 3 15 18 17 14 12 12 16 17 22 22 37 29 34 41
11 8 6 8 3 3 6 8 2 4 7 1 7 24 32 24 22 23 28 27 24 21 18 14 17 16 16 15 12 11 9 6 6 5 2 7 15 19 19 19 18 18 16 19 27 28 33 32 43
5 10 9 6 7 2 3 3 3 6 12 16 10 15 30 28 21 19 23 24 21 21 16 14 14 16 17 15 12 12 11 10 6 5 2 2 8 13 17 15 18 18 17 19 26 31 42 46 40
12 10 10 5 3 8 3 7 11 3 7 10 15 15 7 23 21 20 22 21 23 18 17 12 11 10 13 17 16 13 14 13 11 8 6 4 3 7 12 15 15 19 21 22 24 25 27 34 42

GFSSGP_700_spd_096.txt.gz
Wind_Speed
16 14 14 14 9 8 8 3 7 8 7 10 7 8 8 10 14 14 15 5 4 2 6 10 13 14 11 9 11 13 13 15 16 18 19 17 17 16 15 16 16 14 13 14 15 15 15 15 15
17 15 16 15 11 13 8 5 8 13 12 11 10 10 11 12 17 16 14 9 9 8 12 13 10 7 6 8 10 13 15 17 19 19 20 22 19 17 16 15 15 16 16 15 15 16 16 17 17
18 17 17 12 19 25 7 9 8 11 15 13 12 10 11 14 16 12 10 7 8 14 15 11 8 9 7 7 10 15 16 19 20 22 23 22 21 20 18 17 17 16 17 18 17 18 18 19 19
19 20 21 21 25 13 10 10 10 10 10 12 10 10 12 14 15 13 8 8 11 13 11 10 10 11 10 9 10 13 17 20 21 25 25 25 24 25 21 20 20 20 20 18 19 18 19 20 20
22 24 26 25 31 28 18 14 9 10 14 16 16 17 17 16 14 13 10 10 11 13 10 10 11 12 12 12 12 14 15 19 25 27 26 28 27 25 23 22 22 23 20 19 18 20 20 21 20
25 27 22 30 32 27 20 15 14 17 16 21 23 18 16 19 16 13 11 10 10 13 9 10 13 15 15 14 16 16 18 20 23 27 27 29 29 33 21 29 31 26 24 19 19 23 22 20 21
28 30 33 33 31 29 21 15 12 19 17 16 23 21 17 15 15 13 12 10 10 11 10 14 18 17 16 17 18 19 20 23 25 25 27 29 30 29 28 23 27 32 24 21 24 24 23 22 20
29 32 37 37 32 35 27 17 12 17 12 12 17 22 17 13 14 14 13 10 11 13 15 15 15 17 18 18 20 22 23 24 26 26 27 27 27 28 31 30 31 33 15 28 24 25 23 23 22
31 36 42 40 33 32 15 8 19 14 16 17 21 22 18 16 16 16 14 13 14 16 17 16 15 16 19 20 22 25 25 25 26 26 27 27 27 28 30 28 30 25 19 32 31 28 26 23 21
34 43 46 39 33 34 30 19 19 16 14 18 18 16 21 20 19 16 15 15 15 16 15 16 14 16 19 19 22 24 25 25 25 27 28 28 29 29 29 27 27 26 20 27 33 29 28 25 24
38 48 42 38 32 34 36 30 27 27 22 18 19 19 20 21 21 19 20 17 15 16 13 15 16 18 19 19 20 19 18 20 23 25 26 26 28 30 32 30 29 27 32 33 36 34 30 26 23
42 44 40 35 33 37 37 33 36 35 29 19 19 17 16 11 20 26 21 17 14 16 15 16 17 20 20 18 17 16 15 15 17 21 24 24 24 24 30 34 31 28 35 38 38 35 26 25 23
43 42 38 36 33 36 36 38 37 39 31 27 23 21 19 19 15 20 20 22 18 19 17 16 17 21 20 17 15 14 14 13 17 22 23 23 22 23 29 29 33 35 37 39 33 34 29 26 24
40 35 36 38 37 38 39 39 36 39 32 32 32 27 22 19 15 19 20 21 23 17 16 16 18 21 20 17 15 15 12 13 17 21 24 22 20 21 15 18 35 38 33 43 38 32 27 25 26
37 38 36 39 33 35 32 47 44 37 32 33 37 33 26 21 18 19 20 19 18 16 17 20 18 20 18 17 17 17 15 14 16 19 24 22 20 17 3 13 25 43 28 33 31 29 27 25 26
25 30 33 33 33 35 28 60 25 20 24 35 37 36 31 23 22 19 22 23 20 19 18 13 17 18 17 17 18 20 18 18 18 20 23 21 19 15 7 9 21 29 38 33 34 31 28 26 25
26 28 21 22 24 24 29 47 39 39 37 38 36 37 36 31 27 26 27 25 23 22 19 16 17 18 18 17 19 19 17 21 20 21 24 24 20 17 15 10 10 15 19 33 32 31 29 27 26
23 26 26 27 28 29 33 44 40 37 39 42 39 37 37 36 34 30 31 32 26 26 23 19 21 19 18 17 19 18 18 20 20 17 22 28 24 22 21 21 18 20 19 28 31 28 25 24 24
32 27 27 25 18 23 32 44 40 37 40 44 44 41 40 37 35 35 34 34 31 29 25 21 21 19 17 16 16 17 17 18 19 18 18 27 27 27 25 25 31 26 23 22 26 32 32 30 30
29 28 29 29 30 31 37 52 47 44 45 45 44 43 42 39 40 36 34 34 31 26 25 25 20 20 17 14 16 16 16 16 17 16 15 20 25 29 25 28 32 33 32 26 29 29 27 30 32
28 26 25 26 26 30 35 55 53 48 48 48 47 47 43 39 36 34 32 33 33 26 25 24 21 19 18 14 15 16 14 14 14 14 15 15 26 26 27 31 27 34 36 26 30 39 34 34 35
23 20 19 19 17 11 12 22 45 43 45 44 45 48 43 39 34 30 29 33 28 23 25 23 22 21 19 15 14 16 14 13 13 14 13 14 18 34 34 32 32 34 39 34 32 36 42 36 39
11 14 16 17 18 20 16 12 30 20 36 39 34 31 39 40 37 27 30 28 24 23 21 22 21 21 18 15 14 15 12 12 12 14 13 15 18 23 34 39 36 33 35 41 36 35 40 43 40
9 10 13 15 10 7 18 21 25 17 18 16 18 16 25 31 33 23 31 29 27 23 25 27 23 21 18 15 13 15 12 10 10 13 14 14 13 19 24 29 34 41 36 36 37 34 35 39 42
9 8 5 4 3 5 7 15 33 32 24 29 23 17 11 17 32 26 31 29 25 23 22 24 28 22 19 15 13 14 12 9 9 12 14 14 12 14 19 22 27 31 38 38 36 38 48 35 44
1 4 5 4 3 3 5 9 8 6 12 18 26 19 19 20 33 34 32 31 28 26 23 25 25 23 19 15 13 12 10 8 8 11 13 10 11 11 11 16 19 23 23 31 24 40 41 44 44
2 3 8 7 22 7 9 15 18 19 12 13 17 18 20 21 30 35 36 30 32 27 24 26 25 25 18 17 14 12 10 7 6 8 9 7 7 12 15 16 12 17 25 21 15 24 35 37 34
3 4 2 8 3 4 6 9 9 9 4 6 9 16 21 26 30 36 40 34 32 25 20 24 23 24 18 16 15 13 12 9 5 5 6 4 6 10 13 13 12 10 11 14 14 16 21 24 16
5 5 3 6 7 3 3 3 5 5 9 12 17 10 11 26 32 25 28 27 30 25 25 26 25 24 22 19 18 14 13 11 8 4 2 1 3 7 9 10 11 13 13 14 13 15 18 21 23
6 7 10 5 5 8 9 7 12 10 7 10 19 16 6 5 17 17 19 24 30 28 26 28 24 21 22 20 19 16 14 14 12 8 6 4 4 5 7 8 9 11 13 13 15 17 24 29 32

GFSSGP_700_spd_099.txt.gz
Wind_Speed
17 16 14 13 8 8 8 8 12 8 8 13 13 11 6 7 5 8 10 6 6 10 8 10 12 12 10 9 9 10 10 11 11 12 12 16 15 16 15 16 14 13 11 12 12 11 12 13 12
19 18 16 15 12 13 12 11 12 14 13 16 12 12 10 8 7 11 9 5 4 7 10 12 11 5 3 5 7 10 10 12 13 15 16 14 17 16 17 16 15 13 12 12 13 12 12 14 13
20 19 17 11 20 25 14 15 13 16 18 16 16 14 12 8 8 9 9 5 5 7 11 10 5 5 3 4 6 9 12 13 15 17 18 20 17 20 15 17 17 15 14 12 13 14 13 15 15
22 20 20 22 25 13 7 10 13 12 16 20 16 15 14 8 8 9 8 5 5 7 13 7 6 6 6 5 7 9 11 15 17 18 21 22 22 22 18 21 19 17 16 14 13 14 16 17 18
23 24 25 25 30 30 16 12 14 11 11 15 19 20 14 10 8 8 7 4 5 7 9 5 7 9 10 9 9 11 12 13 17 20 22 23 23 17 16 30 19 16 19 20 16 16 17 19 19
27 27 25 32 34 30 22 20 20 20 17 18 21 21 17 11 10 8 7 6 6 7 4 6 11 11 11 11 11 12 14 16 17 20 22 20 23 27 31 23 20 18 21 27 23 16 18 19 20
30 30 35 34 33 30 26 20 19 21 24 22 22 25 20 8 10 9 9 8 7 8 6 9 10 13 12 12 14 15 17 17 20 21 24 24 23 27 24 22 25 23 23 24 34 28 20 18 20
29 31 31 36 34 34 29 25 18 16 19 25 22 18 21 14 12 11 10 10 8 8 9 12 10 11 13 15 17 17 18 21 21 24 25 25 24 25 22 24 22 22 24 27 30 30 22 20 22
29 35 36 39 32 30 21 6 8 20 16 16 16 19 21 21 15 13 12 11 9 10 11 13 10 11 13 16 20 20 21 23 24 25 25 25 26 24 22 23 22 22 26 27 20 27 24 24 24
34 42 45 38 30 30 32 26 22 21 18 12 12 18 25 24 21 16 13 11 12 13 13 12 12 12 13 16 20 22 23 22 24 26 24 25 24 24 24 24 25 25 25 21 22 32 24 25 25
38 46 41 38 27 29 34 35 32 32 29 19 14 16 21 26 28 21 15 15 13 14 15 13 15 14 13 16 19 21 20 17 19 23 24 24 25 26 25 25 26 24 24 22 24 28 29 28 26
40 42 39 35 27 32 36 36 39 34 31 27 23 22 20 23 24 20 17 18 18 15 15 16 16 15 14 16 17 19 17 12 14 20 23 23 21 22 24 26 25 29 28 26 27 29 31 29 25
42 42 38 35 31 35 36 39 37 38 31 30 32 28 22 21 21 19 13 14 14 16 17 16 16 16 16 16 16 17 15 11 13 17 18 18 19 22 23 23 26 32 34 29 33 26 33 29 26
33 27 35 36 35 35 39 41 38 41 26 29 34 32 30 24 22 22 21 14 14 13 15 15 15 16 17 16 16 16 16 12 12 16 16 19 20 20 21 21 30 26 36 30 33 31 38 30 28
35 37 36 38 35 36 34 46 47 36 33 33 30 32 36 32 26 25 22 19 15 13 14 15 14 15 16 16 17 16 16 15 14 16 17 20 20 20 20 19 19 25 31 34 31 34 37 35 28
23 27 27 22 28 30 27 56 24 14 17 22 27 31 34 38 34 28 25 25 22 18 16 16 13 14 16 16 18 18 18 16 16 17 18 21 19 19 21 17 13 19 34 33 33 40 33 32 25
23 20 19 15 12 16 26 45 32 32 31 33 32 30 28 34 38 30 29 28 26 22 21 19 16 15 14 16 18 19 19 17 16 17 19 23 21 19 20 17 12 17 29 32 38 38 35 31 26
20 25 21 19 15 19 28 39 36 32 32 32 30 30 30 29 30 34 32 31 30 30 25 23 21 19 16 16 19 18 17 18 17 16 16 20 21 21 21 17 10 5 22 32 30 37 35 30 25
16 17 17 16 12 19 29 39 37 35 35 36 35 35 35 36 33 32 32 34 35 38 34 29 24 20 19 17 16 16 16 17 17 15 15 18 19 20 23 20 17 10 7 26 29 34 33 29 37
26 26 27 28 26 27 34 49 45 45 44 40 39 41 40 38 36 36 35 34 34 36 35 34 27 24 21 18 16 16 16 16 16 15 14 15 17 24 27 25 22 21 18 15 23 29 29 23 24
26 26 24 23 24 26 32 50 35 24 27 30 37 42 44 44 41 37 35 34 34 35 34 34 28 26 22 19 17 15 15 15 14 14 13 14 15 16 22 29 27 26 28 24 27 26 29 26 30
24 21 18 18 12 9 7 13 19 17 14 17 22 24 30 37 44 41 37 34 34 32 34 35 29 26 24 21 16 15 15 14 13 13 13 12 14 14 25 24 29 28 28 37 33 26 27 26 27
15 13 12 12 13 13 9 11 7 14 22 6 7 14 22 33 36 43 40 33 31 33 37 34 31 28 25 23 17 16 15 14 12 11 12 11 12 16 20 28 25 32 28 33 39 37 32 32 37
10 10 6 9 7 6 12 12 8 11 12 27 19 16 16 18 30 33 35 33 27 30 36 31 30 27 25 22 17 15 14 13 11 10 11 11 12 15 21 27 33 31 31 30 33 34 36 39 32
13 8 3 2 4 4 2 10 19 19 15 16 24 25 22 19 23 30 33 32 23 29 33 32 28 25 24 23 17 16 15 13 10 9 10 10 11 13 14 18 21 29 35 32 34 34 39 34 36
13 10 4 4 3 1 2 8 5 8 12 14 21 30 29 19 23 28 34 31 23 32 34 30 29 29 26 23 18 17 16 12 9 6 8 10 7 9 13 16 18 21 28 32 35 31 28 33 35
9 6 6 1 4 1 6 11 14 15 13 13 18 24 25 22 24 28 34 31 30 31 30 28 27 29 28 24 19 18 16 12 10 6 5 6 3 7 9 10 12 11 17 19 25 26 26 29 34
4 7 4 4 2 3 5 7 8 9 16 14 17 21 23 23 19 24 31 29 29 28 27 28 27 30 29 25 21 19 18 15 12 7 3 2 4 6 6 8 8 8 11 19 21 23 27 36 26
9 4 3 3 3 1 3 1 7 14 13 13 22 23 14 13 14 24 29 32 31 27 26 31 29 34 31 26 22 20 20 17 14 10 6 3 4 7 9 10 10 10 9 13 17 19 14 16 18
6 5 2 3 4 3 5 9 7 11 14 15 22 27 23 11 9 20 27 30 35 33 36 28 32 32 33 29 25 21 22 19 16 13 10 6 5 6 9 10 10 10 9 9 8 9 10 9 10

GFSSGP_700_spd_102.txt.gz
Wind_Speed
19 17 16 13 6 9 14 12 12 8 9 13 15 15 10 7 6 5 8 11 9 2 10 10 11 15 17 13 11 10 9 9 8 9 9 9 12 12 12 11 12 11 9 9 8 8 9 10 11
20 19 17 14 11 18 15 13 11 11 11 13 14 15 10 8 8 7 9 9 5 5 8 11 12 10 7 7 7 7 8 9 10 11 12 12 13 12 13 13 14 12 11 11 10 8 9 11 12
21 20 15 11 17 25 14 11 11 16 18 16 14 16 13 9 7 5 6 4 3 4 8 11 5 5 4 5 6 6 8 10 11 13 14 15 13 14 16 13 15 14 13 11 11 10 10 12 13
21 21 22 20 22 15 14 10 12 16 18 20 16 10 18 14 8 6 5 2 2 5 8 7 4 5 4 4 5 6 7 10 13 15 15 17 17 17 20 17 18 14 13 12 14 12 12 12 14
22 20 20 22 29 23 16 11 15 16 14 13 21 14 14 14 10 6 6 3 4 5 6 3 5 6 7 6 5 6 8 10 11 14 17 18 21 22 16 22 16 20 21 16 14 14 14 14 16
21 21 23 30 27 23 22 18 19 19 14 14 21 17 18 17 12 9 7 5 5 6 5 5 8 8 8 7 7 7 8 10 12 15 17 19 17 20 18 17 19 27 25 20 17 21 20 17 17
24 22 31 28 26 23 20 20 23 19 16 16 22 20 17 20 15 12 9 8 7 6 5 8 9 8 8 8 10 10 9 11 13 15 18 20 20 19 22 21 25 21 16 18 22 26 31 23 18
24 24 29 30 29 29 20 18 17 18 17 29 24 18 18 26 20 15 12 10 9 7 7 9 11 8 8 9 11 12 12 12 16 18 20 22 22 23 23 23 25 23 20 16 20 24 18 26 27
28 27 34 29 23 23 26 15 12 20 22 22 22 23 25 26 26 20 16 12 11 10 9 10 13 11 11 11 12 13 13 14 17 21 23 23 24 24 25 24 24 22 20 22 23 24 26 29 27
36 33 36 25 25 18 19 19 14 15 14 18 16 21 25 26 27 23 17 13 11 12 13 13 14 14 13 12 13 15 14 14 18 21 23 24 24 24 24 24 23 23 21 23 26 26 28 25 27
36 44 27 27 28 26 29 23 20 21 21 19 16 19 23 27 28 28 23 18 15 13 15 17 15 17 15 14 14 15 14 13 17 18 20 23 22 22 24 25 25 24 23 25 25 29 24 30 26
37 34 32 30 31 31 34 26 26 24 25 26 27 27 25 23 28 29 27 23 21 18 18 19 18 18 16 15 15 15 14 11 12 12 16 19 22 24 24 23 23 23 22 23 29 22 21 27 26
36 31 28 33 36 34 34 35 33 32 25 23 31 36 30 26 28 29 31 30 26 24 20 18 19 19 18 17 17 15 15 11 11 12 14 17 20 21 21 21 22 23 24 25 27 26 22 28 26
21 29 32 27 31 36 37 38 32 30 30 25 28 33 37 31 29 29 31 29 27 22 20 18 20 20 19 18 17 15 15 12 12 14 13 16 18 20 21 22 22 22 24 29 30 26 27 30 28
27 28 23 24 24 33 33 39 37 33 33 33 30 30 33 37 34 33 31 31 30 26 22 18 19 20 18 18 18 16 15 13 13 17 16 17 19 20 22 22 22 21 24 24 29 33 29 33 31
23 26 30 27 26 28 28 44 19 17 21 24 26 27 30 33 37 37 32 32 33 32 28 21 20 20 18 18 18 17 16 15 14 16 17 20 19 20 22 24 22 20 22 21 34 34 34 27 37
20 25 21 20 19 17 24 29 19 23 24 26 24 26 24 26 32 37 37 32 34 35 32 27 23 21 20 18 17 17 17 17 15 16 19 20 20 21 22 23 20 22 25 22 31 35 32 38 38
23 20 24 22 17 19 24 29 22 21 19 19 20 19 21 29 31 30 37 37 37 37 36 31 27 25 23 21 17 16 16 16 14 16 20 20 20 22 22 23 20 20 13 19 35 37 37 35 39
21 21 21 16 16 18 26 28 26 25 27 26 26 31 33 34 34 33 32 39 40 38 39 35 32 28 25 24 18 15 15 16 14 16 19 19 18 19 25 23 19 16 8 14 25 32 42 35 40
24 20 20 18 20 21 25 30 28 29 31 31 32 34 35 35 36 37 39 39 41 42 41 41 35 33 29 26 22 17 17 18 14 16 18 18 17 14 18 22 23 18 13 11 25 25 43 40 43
26 25 19 18 15 21 23 29 20 14 19 21 27 30 34 35 35 37 41 40 43 43 42 43 39 36 35 29 26 21 18 18 15 16 18 16 16 15 18 25 25 25 18 11 12 21 37 39 36
25 19 19 16 12 10 3 7 14 12 6 6 10 14 17 22 27 34 41 43 43 42 40 43 37 38 37 33 28 22 17 18 14 16 18 15 15 15 17 20 29 27 23 25 19 16 19 23 28
22 17 12 13 13 14 16 10 4 5 7 4 11 12 15 21 30 31 34 44 47 38 42 43 38 38 38 35 29 24 18 18 15 15 17 16 13 15 17 20 23 28 28 26 28 24 26 29 30
13 10 7 6 7 8 18 15 6 3 6 9 10 14 14 14 19 24 32 37 42 43 43 40 38 37 37 34 30 26 20 19 15 15 16 16 14 15 18 19 25 25 32 28 27 30 33 29 30
13 14 6 5 5 6 5 10 13 9 4 12 14 17 17 18 16 19 22 29 35 42 39 37 38 37 36 33 30 28 22 19 16 15 15 16 14 14 17 18 20 27 26 31 30 30 36 40 36
19 18 6 7 5 5 6 8 3 4 6 11 14 19 26 25 20 17 19 25 33 37 37 35 37 38 36 32 31 29 24 20 16 15 15 15 13 13 14 16 20 23 32 33 26 27 30 31 31
16 13 9 3 1 3 7 7 7 3 7 11 15 21 25 25 22 18 18 23 32 36 34 34 36 36 34 34 33 30 25 20 17 16 15 15 11 9 12 15 16 19 24 28 34 34 34 36 32
9 13 5 6 5 5 5 5 3 6 11 13 17 22 22 22 20 16 14 21 31 33 32 33 34 34 37 35 32 32 26 22 19 16 15 14 10 10 13 13 11 13 16 19 21 24 29 29 31
12 8 4 4 1 2 1 5 3 8 14 15 18 20 27 28 22 16 17 22 30 30 30 32 32 29 34 34 34 33 28 23 21 18 16 13 10 11 12 13 11 10 8 11 15 18 20 24 29
10 9 6 5 6 3 0 4 4 12 18 18 19 20 26 26 27 19 16 27 32 33 30 30 30 36 33 33 37 35 29 25 23 21 19 15 12 9 11 11 10 9 9 9 11 13 18 21 15

GFSSGP_700_spd_105.txt.gz
Wind_Speed
18 17 14 11 8 13 21 20 14 9 10 10 9 10 10 9 6 4 5 8 11 10 8 6 10 12 13 16 18 13 12 12 12 10 9 8 8 8 7 7 8 7 7 6 5 6 7 8 8
18 16 14 10 15 23 21 17 13 12 12 9 14 17 13 8 11 13 10 9 7 7 6 8 11 12 10 8 9 10 11 11 11 11 10 10 9 10 10 11 11 8 8 7 8 8 7 7 8
19 16 11 14 26 28 23 8 14 11 11 10 9 12 10 9 10 7 7 6 5 5 5 8 5 3 3 4 5 6 8 9 10 11 11 11 11 12 12 13 11 12 10 9 8 8 7 7 9
19 17 17 24 26 22 24 16 13 15 11 13 12 10 15 11 9 9 8 4 4 4 6 6 3 2 2 2 4 5 6 7 9 10 12 13 14 15 15 16 13 13 11 10 11 10 10 9 10
18 15 23 26 29 28 18 16 10 13 12 11 16 16 9 16 14 11 8 5 5 4 6 2 4 4 3 2 3 4 6 7 7 9 13 14 17 17 16 11 11 17 10 15 18 16 11 13 12
19 19 28 30 31 25 25 21 14 15 13 11 14 18 15 11 17 16 11 8 6 5 6 4 4 6 5 4 4 4 6 8 9 9 13 16 18 18 23 20 12 18 19 17 19 20 14 18 17
24 25 31 31 28 24 24 22 21 20 18 15 15 16 18 16 15 18 14 11 9 6 6 6 4 4 5 5 5 5 6 8 10 11 12 17 17 17 16 16 15 18 24 15 18 20 22 20 20
24 27 34 34 30 29 21 21 19 22 21 23 22 14 15 23 19 19 18 15 11 9 8 7 7 6 7 7 7 8 7 9 11 13 14 17 18 20 21 21 20 20 21 17 20 23 27 18 21
22 32 41 36 30 27 22 19 18 17 19 18 20 18 24 32 31 23 23 18 14 12 12 10 10 11 10 10 9 10 9 10 12 14 16 19 22 22 24 24 23 21 21 19 20 25 28 26 17
33 35 42 28 24 25 23 20 14 17 19 21 17 21 32 34 31 27 28 22 18 15 15 14 13 13 15 12 11 12 12 11 12 14 15 19 23 23 25 26 24 23 22 21 23 27 27 25 26
36 49 32 28 29 25 23 21 19 20 22 20 19 18 15 16 30 32 31 26 22 20 20 17 16 17 17 16 14 14 14 13 12 12 13 16 20 23 23 24 23 24 23 24 24 24 26 23 24
41 39 34 35 27 27 31 26 28 28 27 23 21 20 24 20 19 26 33 26 27 26 23 20 20 19 19 19 14 16 15 14 13 13 11 13 18 19 22 23 23 25 25 25 25 20 23 27 20
42 38 36 29 32 33 29 31 30 31 28 27 27 27 28 26 25 24 27 32 27 28 29 23 23 21 22 21 18 19 17 15 14 15 12 11 16 18 23 26 26 26 24 25 23 24 23 25 27
34 39 35 35 30 29 34 35 32 32 27 29 29 27 29 30 31 28 27 29 29 28 32 29 27 22 23 23 21 21 18 16 13 15 15 13 15 19 22 25 26 24 23 23 23 25 21 22 27
37 33 32 32 36 36 28 40 42 33 30 31 28 28 29 29 30 32 30 29 33 30 29 33 27 23 24 23 22 22 19 16 15 15 16 15 17 17 21 24 24 23 23 24 24 26 28 28 23
23 35 38 37 29 28 28 46 27 22 26 32 32 32 31 30 31 33 32 31 28 27 27 35 32 26 25 24 22 22 21 18 16 16 18 16 17 19 22 25 24 23 23 25 24 26 23 29 26
33 35 36 33 31 30 35 40 27 28 27 22 23 22 23 23 28 31 34 33 30 30 29 34 34 28 26 25 23 22 21 18 19 18 19 17 17 20 22 25 25 24 26 27 27 30 27 36 33
35 32 30 30 23 30 33 35 27 22 20 26 24 24 25 23 23 24 29 34 33 31 31 36 38 33 29 27 26 25 20 17 18 18 19 19 18 19 22 24 25 25 24 25 25 26 25 35 36
30 28 27 22 26 26 28 26 27 26 28 27 26 26 26 26 24 23 24 27 30 33 36 44 41 38 33 30 28 26 18 18 18 18 19 21 18 19 20 23 22 25 24 19 21 23 26 31 34
29 27 24 21 20 18 22 29 29 29 31 31 30 29 27 27 26 27 29 28 29 31 44 45 44 42 35 31 30 29 22 21 20 20 19 20 19 19 19 21 23 27 24 20 18 16 28 34 45
30 27 25 22 17 20 20 30 30 32 29 29 29 27 27 28 28 28 30 32 33 34 38 49 46 45 42 34 33 32 27 26 23 20 20 20 19 18 15 19 20 20 23 20 15 20 25 37 47
29 26 23 22 19 21 16 18 17 8 11 12 13 14 16 17 20 23 29 34 34 36 35 43 47 47 45 40 36 32 31 26 21 22 20 20 19 17 19 20 17 23 22 19 12 11 23 30 46
28 19 23 22 22 20 24 14 23 11 12 12 6 7 7 11 14 17 22 25 29 34 35 40 46 48 50 46 40 35 33 29 26 24 20 19 20 18 20 21 20 26 25 25 25 14 10 32 37
21 19 18 16 18 18 25 23 16 16 11 9 5 4 8 9 12 15 18 21 25 29 36 36 45 48 48 45 40 37 34 32 28 23 22 20 19 19 20 22 21 23 26 26 24 25 21 20 31
24 23 11 11 13 12 13 19 16 9 6 5 2 5 7 9 13 13 16 16 21 25 34 40 42 44 48 43 40 38 36 35 29 24 23 22 18 20 21 23 23 21 28 29 31 25 26 28 27
27 26 10 11 13 14 12 9 7 9 6 2 3 5 11 12 14 17 16 11 19 24 28 35 42 42 45 41 39 38 38 36 30 25 23 22 18 19 21 21 22 21 23 27 30 27 25 35 35
27 26 21 9 9 4 13 10 6 5 6 2 2 8 11 14 18 18 14 19 18 21 23 34 45 42 42 44 38 39 41 35 32 25 23 22 19 17 18 17 19 18 22 26 26 29 30 25 32
21 20 11 11 4 6 10 11 15 6 5 5 9 12 17 19 22 20 17 14 20 8 21 36 38 40 45 39 40 41 41 37 32 27 23 21 19 16 15 15 15 17 19 23 29 33 34 29 26
11 19 9 10 4 4 2 8 10 7 8 10 11 17 24 25 22 24 18 10 17 14 18 27 33 36 38 38 42 41 40 39 33 29 24 22 19 15 13 15 14 15 17 19 21 24 25 30 33
17 14 13 8 6 3 5 4 8 8 11 12 14 21 22 20 22 22 19 11 15 19 19 24 25 31 33 36 38 38 42 39 35 30 26 23 20 16 12 14 15 13 12 11 12 15 17 17 19

GFSSGP_700_spd_108.txt.gz
Wind_Speed
17 14 13 11 9 13 21 25 20 19 6 12 10 7 10 3 4 7 17 12 16 13 17 9 4 6 10 11 13 15 15 12 11 11 9 10 9 8 8 7 5 3 4 4 2 3 4 6 5
16 14 13 8 17 21 25 21 21 18 12 15 17 11 13 4 10 12 11 11 14 15 15 7 6 8 9 9 8 8 10 11 11 10 10 10 10 11 11 8 8 7 6 7 6 5 6 6 6
15 16 10 13 24 32 27 23 13 9 15 15 16 11 8 8 10 9 14 15 18 15 10 7 4 3 3 3 4 5 6 8 9 9 10 11 11 12 11 10 10 8 9 7 6 6 7 7 6
14 15 15 23 30 23 30 30 15 9 10 14 8 9 13 15 11 13 18 11 14 11 7 5 0 2 1 1 3 4 5 6 7 8 9 12 13 12 11 9 9 7 9 7 5 6 8 7 7
16 13 20 24 29 29 29 29 16 14 10 10 14 14 11 17 11 15 15 10 10 9 6 3 1 2 1 2 3 4 5 5 6 7 9 11 13 14 12 11 9 7 7 9 7 8 14 11 9
20 17 26 32 32 27 27 27 21 19 13 13 11 17 12 13 16 18 17 11 9 7 6 4 1 1 1 0 2 4 4 5 6 7 9 12 12 14 15 12 14 10 12 15 12 15 14 16 8
24 21 33 33 32 27 25 22 22 15 17 16 13 15 19 17 20 23 20 14 10 9 5 5 2 0 1 1 2 3 5 6 7 9 9 10 11 13 14 15 18 13 11 18 14 18 17 20 20
26 26 34 38 34 31 26 20 21 22 23 20 19 16 12 19 19 20 23 18 14 12 9 8 6 4 3 4 4 4 6 7 8 10 10 12 13 14 16 16 17 16 16 17 20 19 17 19 22
24 33 44 37 32 31 24 26 15 19 19 22 22 22 18 22 21 23 23 22 20 16 13 11 10 9 8 6 6 7 7 9 9 11 12 13 16 18 19 19 20 20 20 18 23 21 21 21 22
35 41 50 31 28 29 26 29 25 18 18 22 25 22 31 29 25 27 29 28 27 21 17 15 15 11 12 10 8 8 9 10 11 11 13 14 16 18 20 21 21 21 21 23 24 24 20 22 22
38 53 39 33 30 30 29 27 21 27 22 23 22 24 28 33 35 30 25 30 30 25 22 21 18 16 15 13 12 11 10 12 12 12 12 14 14 17 20 21 23 23 23 24 25 24 20 20 21
37 50 42 37 33 30 29 31 30 22 24 20 22 18 17 24 19 23 34 24 28 31 28 25 22 21 17 16 15 14 13 13 13 13 13 12 13 14 16 20 22 22 23 24 26 23 21 20 22
41 47 38 38 36 33 32 30 34 37 27 26 27 31 26 20 25 22 20 23 26 28 33 28 26 23 19 20 18 15 17 16 15 14 14 13 13 13 14 18 20 22 24 25 26 23 21 24 19
41 39 41 37 38 37 32 36 32 34 29 31 33 32 40 33 27 29 26 25 25 27 30 32 31 26 23 21 23 18 18 18 16 16 14 15 14 15 15 19 21 24 26 27 26 24 23 21 24
34 40 40 42 42 39 34 39 47 34 33 35 34 35 38 40 34 34 30 28 28 29 30 35 35 30 27 23 25 23 21 20 17 15 16 15 16 18 17 19 22 23 26 26 25 25 25 21 22
35 34 44 48 36 38 36 60 38 31 32 37 38 35 35 33 35 33 32 31 30 28 31 37 37 34 30 25 26 25 24 21 16 17 16 17 17 18 20 20 21 22 24 24 24 24 22 25 22
32 41 43 41 36 36 32 53 35 32 30 32 32 30 38 34 33 32 30 34 34 32 30 37 37 40 31 29 28 27 26 24 18 17 17 17 17 18 20 22 20 23 24 25 25 24 26 21 22
41 39 37 38 30 37 41 49 32 30 29 25 31 29 27 28 28 27 32 32 37 37 32 36 39 41 33 32 30 28 29 26 20 17 16 17 18 18 20 21 21 22 25 25 25 26 25 27 25
36 36 33 31 32 34 43 42 37 30 29 28 23 26 24 24 26 24 28 29 36 38 32 37 44 43 43 34 33 30 30 26 18 20 18 18 19 19 19 21 21 23 24 25 25 24 21 28 29
37 36 38 31 33 25 29 30 28 28 29 29 28 28 27 29 26 26 25 24 24 37 38 38 44 45 48 35 34 33 33 26 21 22 19 19 21 21 20 22 18 21 25 25 24 27 24 22 27
39 39 32 29 21 21 20 24 25 26 29 32 31 30 28 28 24 23 24 25 27 27 36 42 43 49 51 39 36 36 37 29 27 26 21 19 22 23 22 23 15 19 23 25 24 25 21 19 26
36 32 30 25 22 19 20 18 24 32 33 37 28 28 27 27 28 30 31 31 29 33 36 35 39 43 49 42 39 39 38 32 27 30 24 21 22 24 22 23 17 18 22 18 22 21 20 13 27
34 26 22 21 20 23 24 20 20 9 15 17 17 19 18 16 18 19 22 30 38 35 31 38 36 38 43 42 41 40 41 34 30 32 28 24 23 24 23 24 19 17 21 22 19 20 11 17 21
23 12 14 14 18 19 30 25 18 21 16 19 15 7 3 7 13 15 18 18 21 39 43 36 36 42 43 47 42 43 41 39 34 34 32 25 25 24 24 22 22 19 20 22 21 23 21 13 20
21 19 4 9 8 12 24 24 24 12 16 18 12 11 11 13 18 22 23 25 25 22 17 36 44 36 42 47 43 43 41 40 40 36 34 27 26 25 23 22 23 20 18 22 23 25 21 21 20
28 28 11 8 9 12 24 11 28 22 15 11 11 6 6 13 18 14 13 14 23 29 28 25 38 44 41 45 43 42 42 40 38 36 34 30 26 24 24 22 22 19 18 21 28 23 24 22 22
28 35 32 6 7 3 13 9 13 20 19 12 8 3 4 7 13 15 16 16 18 25 29 30 32 40 39 42 44 43 41 41 38 37 34 32 27 23 23 21 20 16 15 20 24 26 25 28 23
25 30 17 9 5 3 12 15 14 17 15 11 6 4 9 17 20 20 18 15 15 22 24 29 24 32 38 41 44 42 40 40 38 38 36 32 28 22 22 19 17 14 13 18 24 26 24 25 27
29 25 14 15 13 2 4 5 11 10 11 11 5 7 16 23 22 15 15 13 12 17 18 20 21 31 40 42 45 40 39 38 39 39 36 33 26 23 22 18 16 14 11 15 19 23 26 25 27
10 16 25 5 7 4 5 7 7 12 13 4 4 12 20 20 14 15 17 18 8 19 20 19 26 32 41 45 41 37 36 36 41 39 37 34 26 24 23 18 16 15 12 13 15 17 21 25 28

GFSSGP_700_spd_111.txt.gz
Wind_Speed
16 14 15 14 12 13 18 22 14 12 10 14 8 12 10 8 10 13 14 9 8 10 12 14 16 8 6 9 11 11 12 13 11 10 9 9 12 14 13 10 8 6 5 5 5 5 5 6 6
14 16 17 13 16 21 25 14 15 19 29 22 18 12 14 9 11 12 9 13 13 11 12 15 15 10 8 9 11 10 10 10 9 9 10 10 11 13 14 11 9 7 6 5 4 5 6 6 8
13 18 19 18 24 33 27 18 18 16 13 13 16 16 16 10 11 15 12 14 13 12 14 14 13 8 4 5 6 7 8 8 8 9 10 11 12 13 13 11 10 9 7 5 4 3 5 6 7
11 18 20 25 30 23 22 19 11 12 19 14 12 11 14 15 16 17 21 19 16 16 14 12 10 6 3 4 6 7 7 7 8 9 10 12 12 13 11 11 9 7 6 7 6 3 3 4 5
15 20 25 30 35 34 25 22 27 25 16 11 10 9 14 22 23 19 22 22 15 15 13 10 7 5 3 3 5 5 6 6 7 8 10 11 12 13 11 11 10 10 8 8 8 4 5 9 7
21 21 23 33 37 31 25 22 17 20 19 10 10 18 11 20 25 26 26 29 18 13 13 10 7 4 2 3 4 5 5 6 7 8 9 10 11 13 13 12 13 12 11 10 13 11 8 10 11
29 25 34 37 37 34 21 17 26 25 31 21 11 16 15 18 22 23 24 22 18 12 11 10 7 4 3 2 3 4 5 6 7 8 8 8 10 13 14 14 15 13 15 12 16 15 12 11 17
29 26 35 40 36 39 24 23 21 27 27 24 20 16 17 24 21 23 25 18 18 13 12 10 9 6 6 4 4 5 5 5 6 7 8 9 11 13 15 16 16 15 16 11 14 16 16 13 14
28 32 46 50 38 38 23 26 19 17 24 20 21 22 21 22 22 22 24 21 16 17 15 13 11 10 10 8 6 6 6 6 5 6 8 9 12 14 16 17 17 18 18 17 16 16 16 14 16
38 42 57 42 37 36 28 29 25 22 25 25 25 19 28 25 24 24 26 26 22 19 19 17 16 14 12 12 9 8 7 7 7 6 8 9 11 15 17 19 19 20 22 19 19 19 18 15 16
35 51 53 45 38 33 30 31 27 29 25 22 21 28 27 34 30 27 31 31 27 23 23 22 20 17 15 14 15 11 10 9 9 9 8 10 10 12 16 20 21 20 21 21 20 20 17 15 15
35 49 50 48 40 32 36 33 38 33 31 26 20 25 25 27 29 35 33 35 34 32 27 26 25 22 19 17 18 14 14 12 12 11 10 10 10 10 13 16 20 21 21 21 21 19 18 16 18
42 50 42 43 36 42 39 43 44 41 21 30 29 25 20 24 25 27 23 23 28 31 37 28 29 25 21 20 17 18 16 15 14 13 11 11 11 10 12 13 17 19 20 21 21 19 18 19 20
34 45 44 41 41 40 39 44 38 47 28 33 36 38 30 31 24 23 22 24 23 24 28 30 28 25 26 25 19 19 19 18 17 15 13 12 12 12 13 16 15 18 20 22 22 20 21 22 23
30 35 40 45 46 45 41 44 51 41 34 33 41 42 44 41 42 34 29 29 31 27 28 33 30 28 27 28 24 19 21 20 19 17 16 13 14 13 14 17 17 19 20 22 24 22 22 23 24
32 30 41 52 49 46 37 53 48 44 42 40 38 41 47 50 50 44 41 35 34 32 32 35 34 32 31 30 29 23 20 21 20 19 19 16 16 16 15 17 18 19 22 23 23 22 23 24 25
38 39 38 46 35 39 38 48 45 44 40 47 40 39 41 35 37 40 48 48 43 33 33 36 38 38 33 31 30 28 23 22 22 21 19 19 18 17 16 17 19 20 23 23 23 23 23 24 23
31 30 36 39 32 31 38 52 41 38 39 44 41 35 36 33 31 31 23 30 34 35 36 37 38 39 34 34 33 31 29 24 23 22 19 20 19 18 17 17 20 19 22 24 23 23 24 24 24
34 26 32 31 30 37 33 46 44 42 43 38 39 40 31 32 28 23 22 22 26 30 38 38 37 37 33 37 37 33 33 28 24 22 20 20 19 19 18 18 21 20 21 23 23 25 26 26 24
37 35 38 36 35 29 35 37 28 44 43 42 33 32 24 27 28 26 23 23 27 28 37 41 42 40 38 37 38 37 34 33 28 24 22 24 20 19 19 20 20 20 21 23 22 25 26 27 27
36 37 35 34 34 29 16 24 33 33 26 42 33 30 30 30 30 27 31 27 23 25 23 42 43 40 37 36 39 40 38 35 34 29 25 27 22 21 20 20 21 20 21 22 20 24 26 27 26
35 33 35 35 31 19 12 8 21 23 30 24 28 32 24 21 28 31 29 30 33 33 31 31 39 46 39 39 42 47 45 39 36 32 27 28 27 25 21 21 21 21 21 22 20 20 24 25 26
33 29 30 30 7 11 17 18 22 20 20 27 35 33 29 27 30 33 34 36 38 36 34 39 33 37 43 45 43 45 49 40 38 33 30 29 30 29 25 21 22 21 22 23 21 20 23 22 19
31 29 10 15 6 7 22 16 11 11 15 12 22 29 29 32 37 37 36 38 40 42 40 37 41 32 38 42 43 48 47 38 39 35 32 30 32 32 28 22 21 22 23 23 21 19 21 20 17
24 21 4 1 4 6 9 12 22 13 21 24 24 20 21 29 28 25 28 32 37 44 47 45 40 40 41 36 39 42 44 40 37 35 34 32 31 32 29 23 22 22 24 23 21 21 23 23 23
14 25 10 5 4 2 7 11 24 11 23 17 20 20 22 21 19 18 21 25 26 33 37 47 57 45 48 48 37 37 39 38 34 36 33 33 32 31 28 25 22 22 24 23 20 22 21 23 19
26 23 24 0 1 3 12 14 12 20 25 23 20 23 22 14 11 14 15 17 17 23 30 34 35 39 59 59 47 38 40 39 37 36 35 35 30 33 29 25 23 21 23 20 18 21 20 23 21
30 25 16 8 2 4 8 11 9 17 16 22 24 18 9 7 9 15 18 18 19 20 24 38 40 35 33 47 46 39 39 40 36 36 35 36 30 35 30 25 22 21 21 17 16 18 22 24 29
15 20 14 10 11 2 2 3 13 7 14 17 17 11 2 9 14 16 18 15 13 18 22 29 34 35 35 34 34 35 38 41 36 35 38 35 31 35 27 25 21 20 19 17 17 17 20 24 27
16 15 24 6 3 5 3 10 15 16 19 14 11 9 11 14 8 8 10 11 14 12 20 22 21 25 28 25 33 37 40 39 34 34 37 34 33 34 28 24 20 20 19 17 16 17 17 23 24

GFSSGP_700_spd_114.txt.gz
Wind_Speed
15 18 19 20 13 14 21 25 18 18 12 12 10 11 18 21 17 7 13 14 9 7 7 7 11 11 10 11 12 13 13 12 12 13 12 10 12 14 15 13 10 6 6 6 7 7 8 9 9
15 17 18 21 19 25 30 23 21 10 12 8 10 14 19 22 22 14 9 12 8 7 8 9 11 13 10 10 12 13 14 15 14 13 12 12 12 14 15 13 11 9 7 7 6 7 7 8 9
16 15 17 16 27 41 37 24 20 13 4 6 14 19 21 24 24 25 19 10 8 9 10 13 12 12 9 9 10 12 12 12 11 12 11 12 12 13 15 14 13 12 9 8 8 7 7 7 7
16 17 20 27 35 31 27 15 18 17 9 6 10 20 20 21 19 20 15 11 11 13 14 13 12 10 8 8 10 10 10 10 11 12 12 12 12 14 15 14 14 13 12 10 9 7 6 6 6
17 21 26 33 39 36 30 22 17 15 10 9 12 18 18 20 17 17 15 14 16 17 15 13 11 8 9 8 9 9 9 9 10 11 12 12 13 14 15 14 14 13 12 11 11 10 8 7 6
20 23 28 38 41 33 29 20 19 20 12 14 15 21 20 21 19 19 18 18 19 21 20 14 10 8 8 9 7 7 7 8 9 9 10 11 13 15 16 15 16 15 12 12 10 12 10 8 8
27 28 40 44 45 40 30 14 22 17 18 19 19 23 25 22 20 19 17 14 16 15 17 14 10 9 8 7 6 5 6 7 8 9 9 9 12 14 15 16 17 16 14 14 14 14 13 10 8
28 32 45 50 47 50 30 17 20 21 18 14 19 30 32 29 29 22 19 15 15 13 16 16 12 10 8 7 6 5 6 6 7 8 8 10 11 13 15 17 17 18 16 15 13 12 15 12 11
29 37 52 56 47 46 32 25 25 21 19 8 20 25 23 26 26 26 26 21 17 15 16 16 13 12 11 9 7 6 7 7 6 7 9 10 11 13 14 17 18 19 19 18 16 13 13 13 13
36 43 61 50 30 33 35 32 25 25 22 13 22 28 25 26 27 27 27 24 21 19 18 17 15 15 14 13 10 8 8 8 8 8 8 9 10 13 15 17 19 20 20 20 18 16 14 14 14
40 54 52 47 39 38 40 38 29 30 29 17 24 29 27 30 32 29 27 21 22 19 21 20 18 19 18 16 14 11 11 10 10 9 8 9 9 11 13 16 20 21 21 22 21 17 14 14 15
42 51 51 50 47 46 49 41 40 37 37 24 19 26 29 30 32 32 30 28 31 29 26 25 24 23 22 19 18 15 13 13 12 11 9 10 10 10 11 13 16 19 21 21 22 19 17 16 16
43 49 46 49 50 51 49 50 43 42 40 28 21 15 28 29 30 31 31 28 27 24 27 33 29 26 26 24 22 20 16 14 15 14 12 12 10 11 12 12 14 16 19 20 21 20 18 17 18
41 40 46 46 50 50 44 47 43 47 44 35 30 27 25 30 32 31 34 31 31 23 21 23 26 23 29 27 26 23 19 17 17 17 15 13 11 11 12 13 13 14 16 18 20 20 19 19 20
42 39 45 45 50 49 40 43 51 55 45 40 38 35 30 30 29 34 32 33 29 25 23 25 22 23 23 24 27 27 22 19 19 18 17 16 13 12 12 14 15 15 17 19 22 22 22 23 23
29 30 39 51 43 42 36 52 56 50 48 43 39 40 37 37 37 33 31 33 32 30 30 30 27 24 24 24 25 27 27 23 22 21 19 17 15 14 14 15 16 16 18 19 22 24 26 24 23
41 37 39 47 33 31 28 52 57 50 47 46 39 41 42 46 41 42 40 38 35 36 35 34 33 30 28 28 28 27 25 28 27 24 21 18 17 15 16 15 16 16 18 20 21 23 24 25 23
37 29 35 38 43 29 27 43 54 46 37 42 45 39 45 44 46 47 49 50 46 46 44 43 39 38 33 32 32 31 29 27 29 26 24 20 18 17 16 16 16 17 18 20 21 22 23 25 24
38 36 38 36 36 28 32 38 42 38 44 45 35 39 44 46 43 35 30 32 36 45 49 49 46 40 40 36 37 34 32 27 24 29 28 23 20 19 17 17 18 17 18 18 20 21 24 26 26
37 38 41 47 43 29 31 34 32 33 34 43 44 41 37 33 39 30 31 26 29 25 31 37 42 41 39 34 30 34 32 30 28 27 31 26 23 23 18 18 18 18 19 19 21 21 22 28 28
35 38 38 37 39 36 33 40 37 31 41 35 43 46 40 29 28 28 34 33 33 39 40 36 36 37 39 36 35 38 36 37 32 29 32 30 28 27 22 21 19 19 20 20 20 19 21 26 29
29 36 36 35 27 22 8 10 27 21 27 40 24 29 36 37 35 36 37 32 32 35 39 40 38 37 35 40 37 35 39 40 33 30 29 33 32 30 28 24 21 20 21 21 21 20 20 26 29
32 22 35 32 29 21 21 10 29 14 16 23 31 25 29 31 37 41 41 35 34 38 39 40 39 37 36 40 38 42 39 36 32 31 33 36 38 34 33 28 26 22 21 23 22 22 21 24 27
23 27 20 19 19 11 19 20 13 8 15 16 23 21 26 30 32 34 37 36 38 38 38 40 40 40 42 39 39 40 41 36 32 33 36 38 39 36 33 30 28 23 22 23 23 23 24 24 27
19 19 3 4 4 5 5 17 13 11 7 24 30 30 35 37 33 35 38 41 43 41 40 40 38 37 43 46 44 40 43 39 33 30 37 35 37 35 32 30 29 24 22 23 25 24 25 24 27
18 22 9 6 4 4 10 9 6 8 9 28 34 33 32 30 28 32 34 35 37 39 41 43 44 41 38 38 44 46 44 37 36 29 32 32 35 34 34 31 28 26 23 23 24 25 25 23 27
14 23 27 12 10 3 5 10 17 12 15 12 14 21 23 23 24 23 23 24 30 33 39 45 49 52 53 49 46 43 45 50 40 31 33 31 33 35 38 32 30 28 24 23 24 24 23 23 23
22 19 16 11 3 2 3 9 10 9 5 13 13 18 17 16 17 21 21 24 25 24 25 28 32 38 47 54 49 47 48 49 43 34 32 34 32 37 35 32 32 29 24 22 23 22 21 24 22
9 23 13 12 3 1 1 6 9 7 9 8 14 22 17 13 10 19 20 20 25 24 23 26 32 34 36 39 37 37 33 42 40 38 35 35 33 38 37 34 32 30 25 22 21 20 20 23 23
9 16 18 6 1 7 6 5 8 9 10 12 15 15 9 6 6 12 14 16 17 22 23 22 28 30 32 35 36 37 36 39 37 37 36 36 33 34 35 32 31 30 26 22 20 20 20 24 23

GFSSGP_700_spd_117.txt.gz
Wind_Speed
17 21 20 19 14 15 22 21 19 18 11 7 12 10 10 17 17 19 13 15 13 13 12 4 6 9 13 11 11 12 13 13 13 13 13 12 10 11 12 11 9 8 8 9 7 7 7 9 10
15 18 20 20 19 27 32 28 24 13 7 5 11 7 10 12 15 11 13 14 14 15 7 4 5 10 12 12 11 13 14 15 14 14 14 13 11 11 13 13 11 9 8 9 8 8 8 9 9
16 17 19 18 28 41 34 25 20 17 12 7 6 11 13 20 21 19 13 9 9 9 5 6 9 10 11 11 10 11 13 13 14 14 14 13 12 11 12 13 12 11 9 9 9 9 9 9 9
18 19 22 29 38 31 22 12 13 10 14 11 8 10 13 17 21 15 15 11 8 6 7 9 9 7 8 9 8 9 9 11 11 12 13 13 12 12 12 13 14 13 10 10 10 9 9 9 7
22 24 28 37 43 38 32 24 22 20 12 15 11 16 15 16 18 18 17 13 9 10 10 10 10 8 6 7 8 8 8 10 11 12 13 12 12 13 13 14 15 15 13 11 11 9 9 8 6
25 26 32 42 45 34 31 21 22 21 16 18 11 13 17 18 21 20 13 11 12 11 11 13 15 11 6 5 6 7 7 9 9 10 11 12 12 13 14 15 16 16 14 13 11 9 10 8 6
28 31 44 48 48 41 32 19 21 22 22 20 12 20 20 26 24 21 14 13 12 10 10 11 11 10 7 5 4 5 6 7 8 9 9 11 11 13 14 16 17 17 16 14 13 11 11 11 9
31 35 49 52 49 51 36 27 22 26 25 21 13 26 29 25 27 24 22 16 16 13 10 10 11 10 8 7 5 5 5 6 7 7 8 10 11 12 14 17 18 18 17 16 15 14 13 12 10
30 40 57 53 47 47 32 30 26 24 31 22 18 16 20 29 34 27 25 21 22 19 16 16 12 12 9 9 8 7 6 6 6 7 8 9 11 12 14 16 18 19 18 18 17 15 13 12 12
34 44 53 48 47 46 34 32 36 35 31 31 23 15 17 25 30 32 28 24 23 24 20 16 16 15 12 11 11 10 8 6 6 7 7 9 11 12 14 16 17 19 18 19 19 19 16 14 13
37 53 41 42 38 37 37 35 30 29 37 31 26 18 14 25 29 29 28 24 24 22 21 17 18 17 15 14 14 14 11 8 6 7 7 9 11 12 12 15 17 18 18 19 20 20 18 16 15
43 46 46 47 44 47 48 45 41 39 43 35 31 18 16 28 32 29 27 26 26 24 22 20 20 21 19 18 17 17 16 12 9 8 8 9 11 13 12 14 15 16 16 18 20 20 21 20 19
42 45 46 49 50 49 50 52 49 51 46 41 34 26 21 23 35 34 25 25 24 23 21 22 25 25 23 22 21 21 20 16 13 12 9 10 11 12 14 13 14 14 15 17 19 20 21 22 21
41 45 49 50 50 47 48 54 45 57 46 47 40 35 23 22 32 36 35 30 27 23 22 23 24 29 28 27 26 24 23 20 18 17 13 12 12 12 13 14 14 14 13 14 17 20 21 22 24
41 46 51 56 51 48 39 48 57 56 45 46 48 40 37 26 28 39 34 31 28 27 26 27 24 23 25 27 26 29 25 24 22 21 18 15 14 13 13 13 14 14 15 16 18 20 21 23 25
36 36 41 50 37 35 26 49 57 49 47 47 46 45 46 36 30 33 34 34 30 26 27 27 28 21 20 20 22 22 23 25 24 23 22 20 17 15 14 14 14 14 15 16 18 20 22 24 26
35 35 36 54 42 39 32 35 49 44 33 47 49 49 49 42 32 32 36 31 28 29 29 30 32 29 25 24 22 21 22 23 23 26 25 24 21 18 16 14 14 15 15 15 18 19 20 23 25
31 31 36 38 49 33 34 35 39 34 28 38 42 45 47 44 40 39 35 33 35 34 35 35 36 34 32 30 28 28 28 26 25 23 25 27 24 21 19 16 15 15 14 14 16 18 20 22 24
31 33 38 40 37 42 41 37 32 43 35 32 40 42 35 40 38 34 38 38 35 38 43 45 44 42 41 38 35 32 32 31 28 25 24 26 26 24 22 19 16 15 15 14 15 18 20 22 23
38 33 36 38 34 31 31 39 33 35 37 31 33 35 40 28 48 35 38 37 36 39 44 45 46 38 45 48 43 40 34 33 33 31 28 26 24 25 24 24 19 17 16 16 16 17 18 20 22
31 30 40 37 39 39 33 35 39 39 36 35 39 35 33 41 39 40 31 34 47 45 46 45 38 34 35 36 38 38 38 35 39 39 33 29 25 26 27 28 23 20 18 18 18 18 18 20 21
34 27 26 34 33 27 22 15 29 28 35 27 31 37 31 30 40 38 36 35 46 50 47 42 41 36 37 37 38 36 34 37 38 34 30 29 26 24 26 30 30 25 22 20 20 20 19 20 21
38 22 22 22 25 27 34 15 24 21 22 14 16 25 37 29 35 35 36 40 42 43 41 41 42 39 36 37 40 36 35 34 36 34 29 29 29 28 27 28 34 32 29 24 23 22 21 22 23
19 17 23 28 25 8 30 18 10 3 4 13 14 24 31 27 32 34 37 41 40 40 41 40 40 38 37 38 38 39 40 38 36 37 39 33 31 29 30 32 35 37 34 29 25 25 24 23 24
13 16 5 2 2 5 10 15 21 10 4 18 24 25 23 25 33 36 40 44 43 39 37 38 38 37 37 38 39 41 38 36 41 35 39 35 31 29 28 29 33 37 34 32 28 27 26 25 26
18 21 8 3 3 4 15 4 6 9 6 14 20 24 27 27 29 32 35 38 41 40 38 37 37 36 38 38 38 40 39 40 39 37 34 35 36 30 27 28 32 34 32 34 31 29 28 26 27
11 24 24 21 18 5 8 9 15 13 4 5 15 17 20 22 26 30 31 32 33 35 36 37 39 40 42 39 38 40 42 40 40 40 38 39 37 32 27 29 32 36 35 34 33 30 28 27 27
20 13 7 13 3 5 5 8 16 18 16 14 11 14 19 22 20 24 29 30 32 34 37 39 41 44 45 48 47 47 45 42 41 41 39 40 37 33 31 32 34 37 38 36 36 30 29 27 25
15 19 16 11 6 2 2 5 14 12 11 17 15 10 13 13 10 17 20 21 25 28 29 30 32 34 36 39 41 42 41 43 43 44 44 43 39 37 33 33 35 39 35 36 36 31 29 26 24
8 13 19 8 3 0 7 4 8 5 9 14 13 11 10 11 9 7 12 15 19 22 26 29 30 30 29 30 32 31 27 32 31 34 36 39 40 40 37 35 34 39 37 36 36 32 29 26 24

GFSSGP_700_spd_123.txt.gz
Wind_Speed
14 14 14 14 11 10 7 6 10 12 6 1 5 11 12 11 12 8 4 9 16 17 14 13 8 3 3 5 5 4 5 5 4 6 7 7 7 6 5 4 5 5 6 4 4 3 2 3 4
15 16 16 16 13 13 13 18 16 11 14 17 13 16 12 12 10 10 7 7 11 16 14 13 8 3 1 2 1 2 3 4 4 6 6 7 8 7 6 6 6 7 7 6 5 5 5 5 4
18 17 18 12 17 22 19 13 7 7 8 11 18 16 14 8 7 7 7 7 10 16 15 13 7 3 1 2 1 0 3 4 5 6 6 7 8 8 7 7 7 8 8 7 6 5 4 4 5
21 21 21 22 23 18 15 14 17 18 14 18 15 12 9 9 10 8 2 4 8 13 17 11 6 2 2 2 2 2 3 4 6 5 6 6 7 8 8 7 7 8 8 6 5 7 6 6 7
22 24 25 25 27 26 21 19 18 18 21 15 20 19 17 9 9 6 7 9 12 15 13 8 5 4 3 3 4 3 4 5 6 5 5 5 7 8 8 8 7 7 7 6 6 6 5 6 6
24 26 27 27 28 27 23 16 21 20 21 17 19 19 17 14 11 10 11 13 16 15 10 8 5 6 6 5 5 5 5 5 6 6 5 5 5 6 7 8 7 7 7 7 7 6 5 6 7
24 26 32 30 29 29 26 23 27 28 27 25 24 23 20 20 13 15 18 16 18 17 12 9 6 6 7 7 6 6 6 6 6 6 5 4 4 6 6 7 8 8 8 7 7 6 5 7 8
24 27 26 22 21 32 31 29 30 30 29 25 22 14 20 24 17 16 21 23 23 20 15 12 8 7 8 7 8 8 7 6 6 6 5 4 5 5 6 7 8 8 9 9 8 9 8 9 11
23 29 27 30 30 31 29 29 25 29 30 31 28 22 23 24 21 17 24 26 29 24 19 16 12 9 11 11 10 9 8 8 7 7 6 4 4 5 6 7 8 9 10 10 11 11 11 10 10
23 31 31 30 30 31 31 29 26 29 29 31 30 28 31 23 23 19 25 27 30 26 22 18 17 12 13 13 11 11 10 8 8 7 6 5 4 5 6 7 8 9 11 11 13 14 14 13 12
30 33 30 31 31 34 36 35 33 34 36 31 27 26 22 27 26 24 22 33 35 35 29 23 19 17 15 16 13 11 11 10 9 8 7 5 5 5 6 7 7 9 10 11 12 13 15 14 15
31 32 33 37 37 41 42 44 44 42 42 40 32 30 31 27 22 28 25 33 40 39 34 29 24 22 17 19 17 12 11 12 11 9 9 6 5 5 6 7 8 9 10 12 13 13 16 17 18
33 35 36 38 40 41 43 46 47 49 47 42 40 38 38 39 31 27 27 31 44 44 40 33 27 26 21 20 19 17 16 15 14 12 10 8 6 6 7 7 8 9 10 11 12 14 16 18 19
35 38 41 41 42 44 45 49 48 45 42 45 43 41 45 44 42 33 32 34 40 45 44 38 31 29 26 22 21 23 21 19 17 15 13 10 9 8 8 8 9 9 10 11 12 14 16 18 20
32 40 41 42 35 30 32 50 42 41 34 35 38 48 44 43 45 41 37 38 39 46 47 45 35 33 28 27 26 27 24 23 21 18 17 15 13 11 10 10 10 10 10 12 13 15 17 18 20
30 34 31 15 18 27 29 65 44 48 48 51 48 50 50 50 50 44 42 41 40 45 50 47 41 36 32 28 29 30 28 26 25 23 21 20 18 16 15 13 11 12 13 12 13 14 17 17 19
24 27 33 32 24 23 18 49 31 40 45 49 49 50 50 51 49 50 45 45 41 43 51 50 47 39 33 31 33 31 28 25 26 28 27 24 23 21 19 18 15 15 15 13 13 13 15 16 17
19 27 29 31 29 31 35 43 51 44 40 42 44 47 46 47 48 45 45 44 48 43 52 53 50 41 35 33 35 31 30 28 28 26 25 23 23 24 24 21 21 19 17 15 14 13 14 15 17
22 27 32 31 26 29 36 33 47 45 35 36 34 35 36 43 38 44 45 42 51 46 49 55 55 47 41 40 37 32 30 30 29 27 28 26 24 23 24 23 25 24 20 17 17 17 15 14 17
20 24 27 32 30 27 33 36 36 35 36 33 35 34 34 33 37 41 42 41 45 48 46 53 54 52 45 42 38 37 38 35 32 30 27 26 26 27 25 24 24 27 25 22 21 19 17 16 17
21 22 29 28 36 36 22 25 15 36 32 34 34 29 35 34 39 41 35 41 40 49 45 48 48 48 49 47 46 41 37 36 35 34 32 34 32 31 32 28 25 27 29 27 24 23 22 19 19
25 23 22 27 20 15 17 20 30 20 24 27 33 28 27 30 34 38 32 35 40 47 45 43 40 39 39 40 40 40 39 38 39 38 37 38 35 35 36 36 31 27 28 31 28 27 26 24 24
23 16 17 18 18 22 24 12 12 17 22 24 23 27 27 30 32 31 30 28 29 35 43 41 41 40 41 40 41 41 38 40 41 42 42 42 42 42 40 39 36 32 28 28 31 31 31 30 28
10 12 14 12 14 7 6 9 6 22 22 21 20 15 16 23 27 31 31 28 27 30 37 43 45 43 41 35 34 34 32 35 36 35 37 41 41 42 44 40 38 40 33 26 26 31 34 35 33
6 6 4 2 3 5 10 15 6 20 20 17 15 8 8 14 22 28 30 29 27 30 38 45 47 46 39 34 39 41 30 31 34 35 34 39 39 42 39 40 39 39 39 34 32 30 32 34 36
8 6 3 4 4 12 18 6 5 24 14 11 9 4 6 14 16 19 24 26 27 34 37 38 42 49 50 48 41 35 34 30 34 36 37 36 35 35 37 39 40 42 44 43 50 39 34 36 38
5 9 8 7 12 8 2 3 12 24 17 15 17 14 14 18 18 20 20 22 25 31 34 34 31 28 29 35 40 35 32 29 37 36 34 33 35 36 36 39 42 39 35 40 35 40 37 36 37
13 6 1 2 4 4 2 3 11 25 21 20 21 22 22 18 19 19 20 22 21 22 25 26 26 25 30 28 25 29 28 30 30 37 37 36 34 34 35 35 36 44 43 36 39 37 35 35 35
7 11 9 7 7 3 4 4 14 17 15 18 21 22 22 24 18 21 20 21 21 21 20 19 17 21 22 24 25 28 29 32 37 41 39 39 40 39 39 38 41 40 41 40 42 41 37 35 35
6 9 12 7 3 4 1 2 10 10 10 13 17 19 20 21 20 21 16 17 19 19 20 22 21 24 19 22 23 27 32 38 38 35 37 38 41 44 41 42 43 42 44 45 45 44 42 40 38

GFSSGP_700_spd_126.txt.gz
Wind_Speed
13 12 11 10 3 5 8 4 6 8 7 5 6 9 10 10 9 7 8 8 10 16 16 13 12 8 3 4 3 3 2 1 2 2 4 4 5 5 3 1 3 3 3 3 3 1 1 2 4
15 14 12 10 6 11 9 10 9 7 11 11 16 15 12 8 9 12 13 9 10 13 16 14 12 8 5 2 1 2 2 1 1 3 4 5 5 5 4 2 2 4 4 4 3 3 4 4 4
17 17 11 6 10 16 9 5 5 5 7 9 10 11 13 7 11 9 11 8 6 13 17 15 12 9 7 4 3 4 3 3 3 4 5 6 6 4 5 4 3 5 5 5 5 3 4 3 4
19 19 18 15 17 12 7 6 14 14 16 15 16 13 11 8 12 13 10 8 8 13 17 15 12 9 8 6 5 6 6 5 4 5 5 5 6 4 4 5 4 5 6 5 5 5 5 5 6
20 20 16 17 19 19 19 17 18 18 18 14 17 13 13 15 12 10 11 11 9 14 17 16 12 10 9 8 7 7 7 7 6 6 6 6 6 5 4 5 4 5 6 7 6 5 6 5 5
15 20 17 22 19 17 18 15 20 19 19 18 18 17 13 15 17 12 12 11 13 17 17 15 12 12 11 11 9 8 8 8 7 7 6 6 5 6 5 5 5 5 6 7 6 6 5 5 5
16 14 21 23 19 19 18 20 21 20 18 17 20 19 13 18 18 14 15 17 18 19 20 15 15 13 14 12 11 10 9 9 8 8 7 6 5 6 6 5 6 6 6 7 6 6 5 5 6
18 16 18 18 18 20 16 21 24 26 21 27 18 7 9 21 17 17 18 22 22 23 24 19 18 16 15 13 13 12 11 11 10 9 8 8 7 7 7 7 6 7 7 7 7 7 7 6 7
17 14 18 20 17 17 14 20 15 26 26 21 26 24 24 20 18 19 19 27 26 27 29 24 22 20 17 15 15 15 14 13 12 12 10 9 7 7 7 7 7 8 8 8 9 8 8 8 9
15 16 16 17 14 16 20 24 24 28 22 24 24 23 26 26 27 21 22 27 32 31 31 29 27 23 20 19 17 16 15 14 12 11 11 9 8 7 8 8 8 9 9 10 10 10 10 11 11
16 18 17 19 18 28 30 31 30 32 34 25 30 30 26 21 26 29 27 28 34 36 36 36 32 28 20 19 19 17 16 14 14 13 12 11 10 8 8 8 8 8 9 10 10 10 11 12 13
24 26 26 24 31 32 33 36 39 37 40 39 39 37 36 34 29 26 30 29 33 39 41 39 36 33 27 23 22 19 16 15 15 14 14 12 10 8 8 7 8 9 9 10 11 11 13 14 15
29 27 30 31 33 35 37 39 40 41 42 40 43 42 40 41 38 33 30 32 33 40 44 45 42 37 33 28 26 23 20 18 17 16 15 14 12 10 9 8 9 9 10 10 11 12 13 15 17
29 32 33 33 33 34 38 40 39 32 37 41 43 45 45 43 41 41 37 34 35 35 46 50 47 43 38 34 30 27 25 23 21 19 17 15 13 11 10 9 9 10 10 11 12 13 14 15 18
24 28 25 18 16 17 30 36 19 20 25 26 36 43 47 48 46 44 40 38 39 38 40 52 51 47 43 38 35 30 28 28 25 21 19 17 15 13 12 11 11 11 12 12 12 14 15 16 17
22 20 7 12 17 19 24 39 19 24 28 35 41 43 49 54 52 49 47 43 38 44 41 46 55 53 47 42 39 34 32 30 28 25 22 20 19 17 17 15 13 13 14 14 13 13 15 16 17
14 12 17 17 16 19 13 36 21 31 34 35 35 37 37 42 47 46 52 50 42 46 46 44 53 57 52 46 42 38 34 32 30 29 27 25 23 22 21 20 18 17 17 16 15 13 14 15 16
18 24 23 23 14 23 29 40 32 30 31 33 32 31 31 32 34 37 41 46 48 48 53 49 50 59 55 50 46 42 38 33 31 32 32 31 29 27 26 25 23 22 21 19 18 16 15 15 16
18 21 26 21 18 22 23 35 39 33 27 26 27 27 28 30 29 29 32 33 58 48 52 54 51 56 59 56 51 46 40 33 35 35 34 34 33 30 29 28 27 25 24 23 22 21 20 17 17
15 19 25 24 10 23 27 35 32 23 24 19 26 32 35 34 35 37 35 50 53 47 50 57 54 50 56 60 53 44 38 39 36 36 33 30 30 30 29 27 25 26 27 27 27 25 23 21 20
15 19 22 28 24 23 16 28 17 22 17 26 27 28 31 37 33 33 36 42 50 41 47 53 58 53 53 58 55 48 43 42 41 36 33 32 33 34 31 30 29 28 28 28 30 29 27 26 23
14 12 14 16 20 20 19 18 25 13 19 25 35 33 32 32 33 32 31 36 47 41 42 47 58 54 48 54 60 56 50 44 39 37 37 37 36 35 34 34 34 34 32 31 30 31 31 30 29
8 12 11 12 17 22 12 14 13 18 27 35 34 36 37 38 35 30 28 25 30 32 33 36 51 55 50 52 57 60 54 42 44 42 38 36 37 40 39 40 40 39 38 36 33 31 32 33 34
12 11 12 10 10 7 6 8 7 24 32 36 36 37 36 30 27 24 25 27 26 26 25 31 37 46 50 52 45 57 38 44 41 41 37 39 40 41 42 44 45 43 41 39 39 34 32 34 35
10 7 4 3 5 6 10 17 4 26 31 30 33 31 29 25 21 15 17 23 26 27 24 25 32 37 39 46 38 34 42 41 41 38 36 37 40 37 40 43 44 46 47 43 48 41 40 43 39
7 6 6 5 5 12 10 3 5 20 23 21 22 21 19 17 16 12 11 17 23 26 26 24 28 22 30 37 36 33 31 32 35 31 31 36 33 35 40 38 38 39 42 43 43 35 36 34 41
3 6 6 11 12 8 1 3 7 20 18 18 19 19 17 11 5 8 12 13 16 23 25 27 37 34 30 26 31 32 31 30 32 37 39 38 35 38 39 39 40 40 38 41 42 40 40 41 49
15 6 6 6 4 5 3 3 8 21 19 18 19 20 20 17 14 9 11 12 13 17 22 26 28 36 46 31 32 37 38 32 31 34 33 37 36 37 36 38 39 40 39 42 45 52 45 44 41
9 12 12 8 8 4 5 5 8 14 16 16 16 18 19 19 19 18 15 13 17 16 18 25 29 26 26 29 36 35 31 31 36 40 42 40 38 44 45 45 44 42 41 39 42 42 45 43 40
8 11 16 9 4 9 4 2 8 10 12 13 13 14 15 17 18 17 15 20 17 15 16 17 21 23 24 22 25 24 36 38 28 30 33 30 27 39 45 46 47 45 46 43 45 42 45 46 46

GFSSGP_700_spd_129.txt.gz
Wind_Speed
11 11 9 7 4 8 15 11 11 6 5 5 6 5 7 10 7 7 10 17 11 15 12 16 15 10 7 6 3 1 3 4 4 3 2 2 4 4 3 3 2 2 2 2 1 1 1 2 3
14 12 10 5 9 18 16 12 7 7 7 7 8 9 7 7 9 11 10 15 13 14 12 16 17 12 9 7 6 3 3 4 4 3 1 2 3 4 2 1 1 2 3 2 1 2 4 4 3
16 12 6 9 16 18 15 2 6 6 6 7 6 6 7 5 11 10 17 16 15 13 13 16 17 12 10 8 7 6 4 4 4 3 1 2 3 4 2 0 1 3 3 3 3 3 3 3 3
16 14 13 15 19 14 11 2 1 7 10 9 6 7 7 9 8 16 15 14 17 15 15 16 17 13 10 10 9 8 6 5 5 4 3 4 4 4 3 2 2 4 4 5 4 3 4 4 5
15 10 18 20 19 18 15 16 14 15 13 13 10 10 9 12 15 14 12 17 15 14 17 19 18 14 12 11 11 11 9 8 8 6 5 5 5 5 4 3 3 4 5 5 5 5 6 6 5
10 10 19 21 19 17 17 15 14 13 12 13 14 10 7 9 16 14 13 16 17 16 18 20 19 15 14 14 13 13 10 9 9 8 7 7 7 6 5 4 4 5 5 6 6 7 7 6 6
13 17 22 21 22 21 16 15 16 16 14 13 14 10 8 14 18 12 16 16 18 18 19 21 20 18 18 17 16 15 13 12 11 11 9 9 9 8 6 6 5 6 6 7 7 8 8 7 6
13 15 21 21 21 20 14 14 13 14 16 14 12 7 10 14 22 14 13 18 20 21 23 24 23 21 20 20 19 17 16 14 14 13 12 12 11 10 9 7 6 6 8 8 9 9 9 9 8
10 13 18 17 16 18 11 13 11 13 15 15 15 15 17 22 20 16 18 15 19 27 26 28 26 24 23 21 21 20 18 17 16 15 15 14 13 12 10 8 8 8 9 9 10 10 10 10 9
11 14 15 15 14 12 14 13 17 18 18 17 16 16 18 17 26 28 21 22 17 25 30 31 30 28 27 25 24 22 20 18 17 16 15 14 13 12 11 10 10 9 11 11 10 11 11 11 11
9 17 16 16 14 17 20 20 21 24 26 20 23 26 25 27 23 24 24 23 24 18 25 34 35 33 31 29 27 25 23 21 19 17 17 16 15 13 12 11 11 9 9 10 10 10 11 11 12
19 14 17 18 20 25 30 29 29 30 32 33 33 31 33 30 28 27 27 26 25 21 16 30 38 39 35 33 31 28 26 24 22 20 18 18 16 14 13 11 11 11 10 10 10 11 12 13 13
19 17 18 21 27 26 27 28 30 31 33 31 33 33 35 31 23 24 26 27 27 26 23 22 34 44 40 36 35 31 29 27 24 22 20 19 18 16 14 12 11 11 11 11 11 11 11 13 15
16 25 27 28 24 22 24 24 23 24 22 23 28 32 35 36 35 35 36 34 38 34 25 30 34 42 46 42 39 34 32 31 28 24 23 20 19 17 15 14 12 12 12 11 10 12 12 14 15
21 21 20 19 14 16 18 20 13 10 11 17 21 28 35 36 34 32 34 39 37 40 37 33 30 44 48 47 43 41 36 36 30 27 25 23 21 19 17 15 13 12 11 11 12 12 13 14 15
15 16 12 8 9 18 15 25 17 18 21 28 31 29 29 31 30 28 27 31 38 40 36 38 30 34 47 51 50 44 42 40 36 32 29 26 24 23 20 18 15 13 13 13 13 13 13 14 15
14 11 11 19 17 19 18 24 22 25 25 28 29 29 29 28 27 25 25 27 26 30 39 37 38 36 46 51 53 50 47 44 40 37 32 30 28 26 24 21 19 17 16 15 15 14 14 15 15
15 20 20 21 17 20 24 27 23 24 27 27 23 18 18 19 21 28 29 20 23 25 28 46 48 44 37 51 52 54 52 50 44 40 36 35 33 30 28 26 24 22 20 18 18 16 17 17 17
14 15 16 17 17 21 23 28 27 26 17 12 17 27 31 28 34 35 33 37 34 37 45 53 56 54 40 49 48 58 58 55 46 43 39 40 35 33 32 29 28 27 25 23 22 21 21 21 20
11 15 16 16 13 20 26 28 23 18 8 14 28 32 34 41 42 38 32 35 45 45 47 53 55 48 49 37 49 54 60 56 49 45 44 42 40 38 38 36 34 31 29 28 26 26 25 23 23
10 15 18 18 18 19 18 25 20 12 7 13 21 34 40 41 43 40 39 33 39 47 51 43 51 50 46 50 41 49 57 58 56 51 49 45 41 40 39 36 36 32 31 30 29 28 28 27 26
10 9 13 14 14 14 15 21 9 6 11 22 34 43 46 43 41 37 35 29 33 39 46 37 44 51 49 57 51 54 52 63 60 55 46 43 42 40 37 34 34 32 32 32 31 29 29 30 31
6 12 13 15 16 18 14 11 6 8 22 36 43 43 43 43 40 35 28 24 28 32 34 26 35 47 47 56 61 54 52 60 58 55 50 47 44 40 37 36 34 33 33 33 34 31 32 32 34
9 12 14 12 10 10 4 8 7 14 27 36 37 35 40 42 38 30 27 26 24 27 25 23 28 35 37 49 58 55 51 54 53 55 51 48 43 37 39 37 38 38 37 38 37 36 35 40 33
4 8 7 7 9 11 7 14 3 16 24 30 32 34 36 37 35 29 23 22 20 20 24 21 27 29 30 39 56 56 53 55 60 74 14 28 32 35 40 40 39 41 41 42 42 40 36 39 41
8 7 9 6 7 13 23 3 3 11 21 23 24 28 32 33 31 25 21 20 17 16 16 17 22 21 21 28 42 47 48 54 51 41 27 31 32 37 40 41 40 41 38 39 39 42 41 41 44
3 7 7 12 20 14 6 1 4 8 17 19 22 23 28 29 30 27 18 19 11 13 14 13 19 18 14 22 37 36 31 28 23 27 31 36 41 42 39 39 34 35 34 36 35 37 40 42 43
14 6 6 9 5 7 4 3 1 14 19 21 23 24 23 25 24 23 19 10 4 10 10 10 17 19 17 14 15 17 27 26 26 29 28 35 36 32 31 36 36 35 33 32 39 40 39 42 45
8 12 14 15 16 5 8 4 8 15 18 21 22 22 21 20 21 20 21 16 10 13 18 9 13 18 21 20 18 9 11 19 24 23 27 29 32 35 37 41 42 40 43 35 39 41 41 41 44
9 12 15 16 10 12 10 2 10 12 13 18 19 18 17 15 16 16 18 19 16 21 19 13 14 13 30 35 24 22 22 21 19 19 25 27 28 34 37 38 39 43 46 49 42 46 45 44 44